GFSNGP_250_spd_000.txt.gz
Wind_Speed
34 35 35 37 37 40 41 45 43 48 53 59 60 62 65 69 75 79 82 84 89 94 100 105 108 111 116 120 124 128 133 137 138 138 127 116 109 103 101 100 98 94 90 86
36 35 37 43 45 45 46 50 51 54 58 63 65 68 71 76 79 84 87 92 97 102 105 108 114 117 122 129 134 136 137 137 135 128 116 109 106 103 99 96 92 87 83 78
36 38 42 51 51 46 49 55 58 59 63 66 69 73 78 81 85 91 96 99 103 109 115 119 124 125 129 135 140 141 136 133 122 111 108 108 106 101 95 90 85 80 75 71
36 39 40 57 52 50 53 59 65 67 69 71 76 80 85 89 94 97 100 105 110 116 122 125 129 133 141 141 141 135 128 120 113 108 106 104 99 92 86 80 77 73 69 64
43 45 45 55 56 56 59 63 70 73 76 81 85 85 90 95 101 103 104 112 119 123 127 131 137 140 146 137 130 121 116 112 109 106 102 96 91 85 80 75 70 67 64 62
51 53 52 59 61 62 63 66 71 78 83 89 93 95 96 101 103 106 113 122 126 129 135 145 144 148 136 126 118 114 110 110 106 99 93 90 85 80 74 69 67 65 63 58
58 57 57 62 65 67 70 73 78 82 87 91 98 103 105 108 112 119 122 126 131 137 146 148 145 135 125 117 112 109 110 105 96 90 87 82 77 72 70 68 64 60 56 52
61 63 65 67 70 75 79 81 86 88 92 99 102 106 110 115 121 126 128 132 138 145 152 144 133 125 118 113 111 109 100 92 87 84 79 75 71 69 66 62 57 54 52 50
68 68 73 73 77 83 85 88 91 98 102 105 111 115 119 125 127 130 133 137 144 149 147 131 122 119 114 113 109 100 92 87 83 79 74 70 68 64 60 56 54 52 51 49
71 74 78 83 85 89 93 98 102 108 110 116 121 127 129 131 132 136 139 145 149 145 128 120 115 112 110 107 98 91 85 81 77 73 71 66 61 57 54 53 52 50 49 46
77 81 84 88 94 97 101 105 109 114 120 126 126 133 134 134 136 140 146 150 140 125 118 114 109 108 103 96 90 86 80 76 73 70 65 62 59 55 53 50 50 50 47 44
86 91 94 95 98 101 106 110 116 122 127 133 134 134 135 137 141 147 150 135 123 117 112 109 107 102 95 89 85 80 76 72 68 65 62 58 56 55 50 48 48 47 44 42
93 96 98 103 108 111 117 122 125 131 133 132 137 140 142 141 144 147 134 120 116 111 109 107 100 93 88 83 80 75 70 68 65 61 57 55 54 53 52 48 44 44 40 36
101 103 107 112 117 121 126 128 130 136 136 140 143 144 148 148 142 128 117 115 114 110 103 97 90 85 81 78 72 68 65 64 60 56 55 54 53 51 49 47 44 38 34 32
108 113 117 121 126 129 130 135 139 143 145 147 149 146 138 125 116 114 112 111 108 100 93 87 81 78 75 70 66 63 62 59 55 53 53 53 51 49 46 43 39 35 31 28
118 121 125 127 131 135 138 143 146 147 149 141 130 122 115 112 111 109 105 101 96 91 83 79 76 71 68 64 61 61 57 55 53 52 52 52 49 46 44 40 36 33 30 29
125 129 132 136 139 138 141 142 142 130 124 118 110 108 107 107 107 104 96 89 85 80 76 73 69 65 61 60 59 56 55 52 51 50 51 50 47 44 41 38 35 32 30 26
129 131 138 142 138 137 135 136 126 118 113 108 105 104 103 101 96 90 84 79 76 74 70 66 63 60 59 57 55 53 51 50 50 49 48 47 44 41 39 36 34 31 28 24
137 137 135 134 132 131 124 112 107 105 106 106 104 101 95 88 82 79 76 73 71 68 63 60 59 57 56 54 52 50 49 49 49 48 45 45 42 39 37 35 32 30 26 24
133 134 135 127 123 114 106 106 106 104 104 101 96 90 85 81 77 73 70 68 64 61 59 57 57 55 52 50 49 47 48 49 47 46 44 42 41 36 34 33 30 28 24 23
126 126 123 111 105 107 107 105 104 102 98 94 87 81 78 74 71 68 65 62 59 58 57 56 54 51 49 48 47 47 47 47 45 44 42 39 39 35 31 31 29 26 24 23
118 111 108 105 103 103 105 105 102 95 89 84 79 74 71 69 66 63 61 59 58 57 55 52 49 48 47 46 46 47 46 46 44 42 40 38 37 35 31 28 28 26 25 24
107 103 102 102 101 101 100 97 92 84 78 74 71 68 66 64 62 59 58 57 56 53 51 49 47 47 47 47 47 46 45 45 42 41 39 37 36 34 32 29 27 27 26 26
102 101 101 101 99 94 89 86 80 72 69 67 66 63 61 60 59 57 56 54 52 50 49 48 47 46 46 46 46 45 45 44 42 40 38 36 34 33 31 30 29 27 27 27
99 97 95 92 88 82 79 73 68 66 64 63 61 59 58 57 56 55 53 52 50 50 48 47 46 46 46 46 46 45 44 44 42 39 35 34 33 32 31 29 28 27 26 26
91 89 86 83 77 71 68 66 65 64 62 60 58 57 55 54 53 52 51 50 49 48 46 46 45 45 45 45 45 44 44 43 40 37 34 33 33 32 30 29 27 27 27 26
83 80 76 71 67 64 62 59 59 60 58 57 56 55 53 51 50 49 48 48 47 46 45 44 44 45 44 44 45 44 42 41 39 37 35 33 33 32 30 29 28 27 26 26

GFSNGP_250_spd_003.txt.gz
Wind_Speed
28 29 31 33 34 32 32 37 40 42 46 51 54 59 63 67 68 71 76 80 85 89 94 98 102 105 111 118 123 125 130 134 139 142 123 115 110 105 102 101 99 93 86 81
34 32 34 37 38 39 38 43 46 48 51 55 60 65 68 72 75 79 83 87 92 97 101 103 109 112 119 123 126 130 134 140 134 118 111 105 102 100 98 95 91 85 81 75
34 34 39 44 41 43 45 50 51 54 58 61 66 69 74 78 83 87 90 95 98 104 111 113 116 122 125 126 128 135 134 128 115 108 103 100 97 93 89 86 81 76 72 66
35 35 39 47 42 44 49 53 56 57 60 66 70 76 80 85 90 93 97 104 109 114 119 125 126 126 131 133 135 130 123 112 107 105 102 97 90 86 82 77 72 68 65 62
37 36 41 50 49 53 55 59 62 64 69 74 79 81 87 92 96 100 106 113 116 121 126 127 128 133 135 134 126 117 108 108 105 102 97 91 86 82 76 71 68 66 62 60
42 44 46 51 54 58 60 65 69 71 74 79 84 86 91 95 101 110 113 117 120 126 131 132 135 135 136 124 115 107 106 106 102 97 90 85 80 74 70 69 68 64 61 55
48 50 54 59 61 65 71 70 71 76 82 84 89 94 100 105 110 116 119 123 129 133 138 138 136 127 118 110 106 106 104 100 93 86 82 78 73 71 69 67 65 61 58 52
54 61 63 66 68 73 73 74 80 84 89 92 96 102 110 113 118 125 129 132 134 137 141 127 117 112 107 104 105 104 99 92 86 82 79 73 71 69 66 63 60 57 54 49
61 67 70 72 74 74 77 81 87 89 94 100 106 112 114 120 124 131 134 135 136 137 123 115 109 107 105 105 103 96 90 85 82 79 74 71 68 65 62 58 55 52 49 47
66 74 75 77 78 82 87 90 92 98 105 107 114 118 120 125 133 135 133 132 131 118 109 108 109 108 104 100 95 89 84 80 77 73 72 69 65 60 56 53 51 47 45 44
74 77 78 83 86 89 94 99 104 106 112 118 119 120 127 134 134 133 127 122 113 107 107 108 109 107 101 94 88 82 79 76 72 71 67 64 61 55 53 50 49 47 46 43
77 81 84 87 92 97 102 110 109 112 116 121 125 128 134 130 129 123 116 109 106 106 105 105 105 100 92 85 82 79 75 72 69 66 63 59 58 55 49 46 47 44 41 39
81 85 90 95 100 107 111 113 114 120 122 127 131 130 130 129 120 111 107 107 106 106 103 99 95 90 85 80 77 74 71 68 65 63 59 58 55 53 53 45 41 43 39 35
89 94 99 104 110 112 116 119 121 127 131 132 131 129 127 117 110 109 107 105 104 102 99 93 87 82 78 75 72 69 67 64 62 59 57 55 53 52 49 46 42 37 35 32
99 104 108 111 114 119 122 126 129 128 129 127 128 123 113 110 109 105 103 102 103 98 91 85 79 75 72 70 67 65 63 60 57 55 54 53 51 50 47 43 39 36 34 31
106 109 113 119 124 126 129 130 126 124 124 124 116 113 111 108 106 105 102 99 94 88 82 76 73 70 67 65 63 61 60 56 53 52 52 51 50 47 45 41 39 36 33 30
113 118 121 124 126 127 130 129 123 121 118 111 109 109 106 104 102 100 95 90 84 79 74 71 68 66 63 61 59 58 54 51 50 50 50 50 48 46 45 41 38 35 32 29
122 123 125 126 124 126 122 120 118 113 112 110 107 105 102 101 95 91 86 82 77 72 69 67 64 62 60 58 55 52 50 48 48 49 49 48 47 45 44 41 37 34 31 28
121 124 125 127 124 119 116 110 109 108 109 106 104 101 99 94 90 85 80 75 71 67 65 62 60 58 56 53 51 49 48 48 48 47 46 46 45 44 43 41 36 33 30 27
124 124 123 116 113 113 112 107 105 106 106 103 99 96 94 89 83 78 74 70 67 64 61 59 57 55 53 51 50 48 47 47 46 45 45 44 43 42 42 39 36 33 29 26
126 119 113 108 105 107 110 109 105 104 102 98 94 90 85 80 76 72 69 65 63 61 59 57 55 53 52 50 49 48 46 45 45 44 43 42 42 41 40 38 35 33 30 27
115 111 106 103 104 104 106 106 104 100 95 91 87 81 76 73 70 67 65 61 59 58 56 54 52 51 50 49 47 45 44 44 44 43 43 42 41 39 38 36 34 32 30 27
109 105 104 104 101 100 100 100 97 93 88 81 76 73 70 67 65 63 60 59 57 55 54 51 50 48 47 46 45 44 43 43 43 42 42 40 39 37 37 36 34 32 29 27
105 103 101 99 97 95 94 92 89 85 79 72 68 68 65 64 62 60 58 56 54 53 51 50 48 46 45 45 45 43 42 42 42 41 40 39 39 37 36 35 33 30 29 26
101 97 97 96 91 89 86 80 79 74 71 69 65 64 62 60 58 57 55 53 51 50 48 47 46 45 45 43 43 42 42 41 40 40 40 39 38 37 36 34 31 29 28 27
94 92 90 87 83 78 74 72 70 68 67 66 63 61 59 58 56 54 52 50 49 47 45 45 45 43 42 42 42 42 42 41 41 40 39 37 36 36 35 33 31 29 27 27
87 83 81 79 75 71 67 64 64 65 62 61 60 58 57 55 52 50 49 47 46 46 46 44 42 42 42 42 42 42 42 41 41 40 37 36 35 36 35 32 31 29 28 28

GFSNGP_250_spd_006.txt.gz
Wind_Speed
32 32 35 33 30 31 31 35 36 39 41 44 49 53 61 63 65 67 72 77 81 85 88 95 98 103 109 114 118 124 129 132 130 130 125 118 110 105 104 104 102 97 89 84
39 35 37 36 32 34 37 36 38 42 47 52 53 60 63 65 67 72 78 81 85 91 97 100 103 108 116 120 128 136 136 128 124 116 110 105 105 104 102 99 94 87 81 75
40 39 43 37 39 40 41 42 45 48 53 57 61 65 67 70 75 80 83 87 93 97 101 105 111 116 122 132 134 130 122 117 110 105 105 104 103 99 94 88 83 79 74 70
39 39 44 38 41 43 46 49 52 56 60 63 68 70 72 75 81 84 86 94 97 101 107 114 119 127 130 134 128 119 114 107 105 105 103 100 96 90 84 79 75 72 68 65
37 37 45 44 45 48 49 55 60 62 65 71 73 77 81 83 87 96 98 100 105 112 116 121 129 131 131 126 115 110 105 105 103 101 97 92 85 80 75 73 70 67 65 61
41 43 45 43 47 50 54 58 62 68 72 74 76 79 82 89 99 102 107 109 114 119 125 129 131 129 120 111 107 106 103 101 99 94 86 81 77 73 70 68 67 64 60 55
47 46 46 47 52 57 61 63 67 70 73 78 83 88 92 97 101 107 113 117 121 126 130 129 126 113 108 106 104 103 101 96 91 84 79 77 73 69 67 65 64 60 54 49
51 52 51 55 58 61 64 66 70 74 78 83 88 92 99 105 111 116 120 124 128 128 125 122 111 108 106 105 103 101 96 89 83 78 75 73 69 66 64 63 61 55 51 48
52 57 56 60 62 64 67 70 75 79 85 92 97 101 108 114 117 122 127 128 126 120 115 108 108 106 103 102 100 95 89 82 78 75 72 69 66 63 62 60 56 52 49 47
58 63 64 67 69 73 77 79 82 88 94 101 106 111 112 118 124 127 126 121 115 109 105 106 105 104 100 95 90 86 81 77 74 71 69 66 63 61 59 56 52 50 49 47
64 67 70 76 80 83 84 86 92 98 104 108 112 113 120 122 125 121 115 107 105 104 103 103 101 97 94 89 83 79 76 74 71 68 65 62 62 60 54 51 50 49 46 44
70 73 78 81 82 86 89 93 98 106 110 112 117 121 123 123 121 114 109 105 105 105 103 100 96 92 87 82 78 74 72 70 67 65 63 61 60 54 51 47 48 46 43 41
78 79 80 83 88 92 97 102 106 113 115 117 122 123 123 117 114 109 105 106 105 104 100 96 90 85 80 75 73 71 69 66 64 62 60 58 55 51 49 45 43 42 39 37
80 83 87 92 96 99 103 108 113 118 118 123 123 123 120 117 114 111 107 104 105 102 97 90 83 78 74 72 70 68 65 63 61 58 56 53 51 49 47 45 42 38 35 33
90 93 97 100 104 108 111 116 120 119 122 122 122 121 118 115 114 109 106 104 101 96 89 83 78 75 72 70 67 64 61 58 55 53 51 50 49 47 46 44 40 36 34 32
96 100 103 107 111 116 121 122 121 122 123 121 119 118 117 115 111 107 102 99 95 89 83 78 75 72 69 66 63 59 56 54 52 50 49 48 47 45 44 42 38 35 34 30
103 106 109 113 118 120 119 121 122 121 120 118 117 116 115 111 107 103 98 94 89 82 77 75 72 69 65 61 58 55 52 50 49 49 48 46 45 44 43 41 38 36 32 30
109 112 115 119 121 119 117 119 118 118 118 116 114 112 110 106 100 95 91 87 82 76 74 72 69 65 61 58 55 52 50 48 48 47 46 45 44 43 41 40 38 35 32 29
113 117 121 122 120 121 117 116 115 116 115 113 109 106 104 100 93 88 84 79 75 72 70 68 64 60 57 55 52 50 48 47 47 46 45 44 43 42 41 39 36 33 31 28
118 120 118 121 121 119 115 115 115 113 111 106 102 100 97 93 86 82 77 73 71 69 67 63 60 57 54 53 50 48 47 46 46 46 44 42 42 41 39 37 36 33 31 30
118 118 122 120 117 116 115 114 110 107 106 103 97 94 89 85 80 76 73 70 68 65 62 59 56 54 53 50 48 47 47 46 45 44 43 42 41 39 38 37 35 34 32 30
117 118 117 114 110 113 114 111 104 102 102 96 91 87 83 78 74 72 68 66 63 61 59 56 54 52 50 48 47 47 46 44 42 42 42 41 39 39 38 37 35 34 32 29
114 113 110 111 111 109 106 101 100 98 93 89 83 79 76 72 69 68 65 62 59 58 56 54 51 49 47 47 47 45 43 43 42 41 40 40 39 38 37 35 34 33 31 29
109 110 108 107 105 102 94 97 95 88 84 82 76 71 69 69 66 61 60 58 57 56 54 51 49 48 48 46 44 43 42 42 41 40 39 39 39 37 36 35 33 32 30 29
108 106 103 102 98 93 90 88 84 80 79 77 70 68 66 63 60 59 58 56 54 52 50 49 48 47 45 44 43 42 42 41 40 39 38 38 37 37 36 35 33 30 28 28
103 99 97 95 91 85 82 78 74 74 70 70 68 65 63 59 56 55 55 54 51 49 48 47 45 44 44 43 43 42 41 40 38 39 38 38 37 36 36 35 34 30 28 27
94 91 90 86 81 78 75 71 70 67 64 64 64 60 58 56 54 53 51 49 48 47 46 45 44 44 44 43 43 42 40 39 38 38 38 37 36 34 34 34 33 30 28 27

GFSNGP_250_spd_009.txt.gz
Wind_Speed
31 33 35 35 37 37 37 39 39 42 44 44 45 50 52 56 62 64 71 74 77 81 85 90 96 102 108 112 116 121 127 132 133 135 130 125 120 117 113 111 109 107 101 95
39 40 41 40 39 39 40 39 42 44 46 49 51 53 57 60 66 71 74 78 83 86 91 97 102 108 114 121 130 136 137 135 132 123 119 115 113 110 108 106 102 96 89 84
40 42 45 45 43 39 39 40 44 45 48 51 54 58 62 65 71 73 76 81 85 91 99 106 111 119 125 133 138 136 128 121 115 111 111 110 107 106 102 96 89 84 80 76
42 44 47 44 45 44 46 44 43 46 49 54 59 63 66 69 72 77 81 88 95 102 109 115 122 126 129 135 129 121 112 108 107 107 106 104 101 95 89 84 79 75 71 67
46 47 48 48 46 46 48 47 48 51 53 59 63 67 74 74 78 82 89 96 103 111 119 120 125 129 130 123 116 113 107 108 107 104 101 97 91 84 80 75 72 69 64 61
50 50 50 48 46 49 47 49 51 56 61 64 68 72 79 82 88 93 100 106 112 117 122 126 129 125 122 116 112 111 102 103 102 100 96 89 83 77 74 69 66 64 61 58
52 53 52 50 51 54 53 54 59 63 68 72 76 79 83 87 92 99 106 112 119 124 128 128 126 121 116 112 111 108 105 100 95 91 84 79 74 71 67 65 63 61 60 56
57 60 55 53 52 55 57 61 64 68 73 77 80 84 88 94 100 108 114 121 127 127 127 123 120 114 111 112 111 105 101 95 89 83 77 72 69 66 64 63 61 59 55 52
60 66 62 59 57 59 63 66 69 74 77 81 86 91 97 104 109 117 124 126 126 125 123 120 115 112 108 108 105 99 94 87 81 75 71 68 66 64 63 62 59 55 52 50
63 68 64 65 65 66 70 73 77 81 86 90 94 100 105 111 116 122 124 125 122 121 120 115 111 108 106 101 96 90 83 78 74 70 68 66 64 61 58 56 54 52 50 48
66 68 68 71 69 74 76 81 85 90 92 97 103 107 114 117 124 127 128 124 122 121 117 113 109 105 100 93 86 79 75 72 69 67 65 63 60 59 54 52 50 50 49 45
67 68 71 73 75 77 83 87 91 95 100 106 111 114 118 122 127 128 125 123 122 118 112 109 107 99 92 84 77 74 72 69 66 63 62 60 57 53 52 51 49 45 45 43
72 72 74 77 81 87 91 95 97 101 106 111 114 119 122 130 129 126 123 122 119 117 110 106 98 92 84 78 74 71 69 66 63 61 58 56 54 51 49 47 47 47 43 39
78 80 81 86 89 92 95 97 102 107 112 116 119 123 128 128 126 123 122 119 116 111 106 98 91 84 78 74 72 69 66 64 60 58 55 54 51 50 48 45 43 40 40 36
81 85 89 91 93 96 99 104 107 111 114 117 121 123 127 126 120 120 119 115 109 104 97 90 84 78 74 71 70 66 63 60 57 55 53 51 49 48 47 45 42 40 37 36
87 89 91 95 99 103 106 108 112 115 120 123 120 125 124 122 121 119 115 110 102 96 90 83 78 75 72 69 66 63 60 57 55 53 51 49 48 47 46 43 41 39 36 33
92 95 98 101 104 108 110 113 116 119 120 118 122 123 119 118 116 114 109 103 94 90 82 78 74 72 69 66 63 60 57 55 53 50 49 48 47 47 45 42 41 37 34 30
98 99 102 104 107 110 113 118 119 119 118 122 121 119 116 115 110 105 100 94 87 83 76 73 71 68 65 62 60 58 55 53 51 49 49 48 46 44 44 41 38 36 33 31
104 105 106 112 114 115 116 118 118 118 122 119 116 114 114 110 103 96 92 87 81 76 73 70 67 64 61 59 57 55 53 50 50 49 47 45 45 43 42 40 38 36 33 30
108 110 114 117 119 116 117 118 117 120 119 112 111 109 106 104 96 89 86 82 75 72 69 66 63 60 58 56 54 53 51 50 49 47 45 45 44 42 40 40 38 35 32 29
117 120 120 119 117 117 117 117 117 115 112 110 107 101 97 95 90 85 79 75 73 69 66 63 60 58 56 54 52 52 51 49 47 45 45 44 41 41 40 39 37 35 32 30
117 115 117 118 115 114 117 118 113 109 108 104 102 96 91 89 83 81 73 69 67 65 63 60 58 55 53 53 53 51 48 47 46 46 44 43 40 39 39 38 37 35 33 31
116 117 115 115 114 116 114 110 107 105 101 99 94 89 85 83 77 71 71 68 64 61 59 57 54 53 52 52 50 48 47 46 46 44 44 42 40 39 38 37 36 35 34 32
113 115 115 115 112 108 104 104 99 97 96 93 87 84 78 75 74 67 65 63 61 59 56 54 53 52 51 49 47 47 47 46 45 44 43 41 40 40 39 38 37 35 33 31
114 113 110 106 104 102 97 95 93 92 87 85 82 79 72 68 65 66 62 59 57 55 53 53 53 51 49 48 48 48 47 45 44 42 40 39 40 40 39 38 36 35 32 30
105 102 101 99 96 92 90 89 86 84 80 77 76 70 66 65 63 60 57 54 54 51 51 51 50 48 48 48 49 48 47 44 42 40 39 39 39 39 37 36 35 34 32 29
98 96 94 93 90 85 84 81 78 76 73 70 68 66 63 62 59 56 54 51 50 50 50 50 49 49 50 49 48 46 43 41 40 40 40 40 40 39 36 34 34 33 32 29

GFSNGP_250_spd_012.txt.gz
Wind_Speed
26 29 31 33 35 37 40 40 39 43 41 41 44 48 49 51 53 57 61 66 72 78 82 87 92 97 102 108 115 123 130 135 131 126 120 117 119 115 114 114 113 110 105 98
31 33 36 39 40 42 44 45 44 44 46 47 48 49 48 53 57 61 66 72 76 81 87 91 96 101 110 117 122 130 134 135 133 127 118 109 107 109 107 104 100 96 91 84
40 42 42 44 44 46 49 47 47 49 48 50 48 50 52 56 64 67 71 76 81 86 90 95 103 110 116 121 130 135 133 130 129 124 117 110 107 103 97 93 88 84 79 76
44 47 50 50 50 49 48 50 52 50 49 49 52 55 56 61 66 70 76 82 86 92 96 104 111 116 122 127 133 133 128 123 120 112 107 104 102 96 91 85 81 77 74 72
49 50 53 52 50 54 50 54 53 53 51 52 54 58 63 65 71 76 82 88 93 99 106 111 116 124 127 130 129 128 122 118 114 109 101 98 94 89 84 79 77 75 70 66
54 54 55 56 55 55 54 56 55 56 57 59 61 64 71 75 80 86 92 96 101 107 112 119 125 128 129 130 124 123 115 110 107 106 99 92 85 81 78 74 70 68 65 61
55 56 56 57 58 62 62 61 60 59 61 64 66 71 75 82 87 92 95 101 108 115 121 124 128 130 130 124 121 115 110 103 101 98 94 85 80 76 72 69 66 63 61 58
61 61 60 61 60 64 69 66 62 62 65 67 71 77 83 88 93 96 102 109 114 120 123 129 129 130 127 119 113 108 103 99 93 88 83 79 76 72 68 65 62 59 57 55
64 66 68 68 64 65 66 64 65 67 70 73 80 86 90 93 97 102 109 114 118 122 126 128 130 130 120 113 107 102 98 91 85 79 76 73 71 67 65 61 58 57 55 54
63 66 67 69 69 67 67 66 67 72 76 82 86 90 92 99 104 110 113 117 122 126 126 129 131 123 115 109 104 97 90 83 78 75 72 69 66 64 60 58 55 54 53 52
67 66 67 69 67 68 69 70 74 78 83 87 91 95 100 105 109 114 117 121 126 126 127 129 123 117 111 104 98 91 84 78 75 71 69 66 63 62 59 56 54 52 49 48
68 66 69 69 69 71 74 78 81 86 90 94 98 102 106 108 115 118 124 125 125 126 129 125 119 111 104 98 92 85 79 75 72 69 66 64 62 58 56 54 52 49 47 45
73 70 69 71 74 77 82 84 89 92 95 100 103 109 111 114 117 125 126 125 125 127 127 122 113 104 97 91 86 80 75 72 69 66 64 62 59 56 53 51 51 50 47 44
76 74 76 79 81 84 88 93 96 98 103 108 110 112 116 120 125 128 126 125 127 127 122 115 106 97 89 86 80 77 72 69 66 63 61 59 56 53 51 49 48 45 46 45
76 79 80 84 87 91 95 98 102 106 110 112 113 117 123 127 127 128 126 126 126 123 116 107 98 91 85 80 76 72 69 66 64 60 57 55 52 52 50 46 45 44 43 40
81 84 87 91 96 100 102 106 107 108 112 114 119 125 129 129 127 127 127 127 123 116 106 97 91 85 80 76 72 68 66 64 61 57 53 52 51 50 48 45 45 44 41 39
87 91 95 98 102 107 109 110 110 113 118 123 126 129 126 125 124 127 128 123 116 107 97 90 85 80 76 72 68 66 63 60 56 54 52 51 48 47 47 45 44 44 41 38
95 99 101 105 108 110 112 114 117 121 124 125 126 124 123 123 125 126 120 112 104 96 90 84 79 76 72 68 65 63 60 56 54 53 51 48 46 46 46 46 44 42 41 38
103 106 108 109 112 114 117 121 122 125 124 122 122 120 121 124 123 117 110 102 92 87 84 79 76 73 68 65 63 60 56 55 53 50 48 47 46 45 45 45 44 41 40 38
106 109 112 116 116 119 122 122 121 121 120 117 117 119 120 117 113 105 99 92 86 82 77 75 72 69 64 62 60 57 55 54 51 49 48 48 46 45 43 42 42 42 40 38
114 115 117 118 121 118 118 117 115 112 113 116 117 115 109 104 99 94 89 84 82 78 74 72 68 64 61 59 56 55 53 51 50 49 49 48 46 44 42 40 41 42 41 39
119 119 119 118 117 116 114 111 109 111 114 112 108 104 99 96 91 86 85 79 77 74 72 69 64 61 59 57 56 54 52 50 50 50 49 48 45 42 41 41 41 42 41 39
110 110 111 111 109 108 108 110 110 107 104 101 98 95 91 86 85 80 77 77 73 70 68 64 62 59 57 54 53 52 51 52 51 49 47 45 43 42 42 42 41 40 40 38
106 104 105 106 108 109 107 104 101 99 96 96 93 89 84 80 79 77 72 70 69 67 64 62 58 56 55 53 52 51 52 51 49 47 45 44 43 43 42 41 41 39 38 38
106 107 108 109 105 104 101 100 96 96 92 88 84 81 78 75 70 69 69 67 65 62 61 58 56 54 53 51 50 51 51 50 47 45 44 44 43 43 42 42 41 40 38 38
108 107 105 105 103 100 95 92 88 86 82 79 78 75 73 70 67 65 64 63 61 59 57 56 54 53 51 50 51 52 50 47 45 43 43 42 42 42 43 43 42 41 38 37
105 105 103 102 97 93 87 85 83 81 77 72 71 71 69 67 64 63 62 60 58 56 54 53 53 51 50 51 51 49 46 43 42 42 42 42 42 42 42 43 42 41 38 36

GFSNGP_250_spd_015.txt.gz
Wind_Speed
21 23 27 29 33 35 37 39 41 45 45 47 51 47 47 51 54 55 54 58 62 66 71 75 80 85 92 99 104 111 118 124 128 129 132 126 122 120 117 114 106 97 90 85
27 30 34 38 39 42 45 47 49 47 51 51 51 52 53 55 56 57 59 61 65 69 74 80 86 92 99 105 112 119 124 127 130 131 129 125 118 110 110 106 98 89 84 78
34 38 42 45 48 49 51 51 52 50 52 55 55 55 56 56 58 60 63 65 71 76 82 88 93 99 105 110 117 121 126 131 132 128 123 117 114 105 99 94 89 84 80 77
41 43 44 43 48 51 53 54 57 55 55 56 58 58 58 59 60 63 65 69 77 84 89 94 99 106 109 115 123 127 131 129 128 124 117 112 107 99 92 87 84 82 78 74
40 44 49 48 54 58 57 58 62 62 62 61 63 62 59 60 61 65 70 77 84 88 95 101 107 110 115 122 128 132 131 126 124 117 111 104 97 90 85 81 79 77 72 68
47 51 53 55 60 62 59 60 63 65 67 65 66 63 62 63 68 73 79 85 90 95 102 108 111 116 122 128 130 131 129 125 116 109 102 95 90 82 78 77 74 71 67 63
54 56 59 61 59 58 60 60 61 63 64 64 64 64 65 68 73 79 85 90 96 102 108 113 117 122 127 132 133 126 123 120 109 102 95 90 83 79 77 74 70 68 65 62
61 63 64 63 59 61 65 63 62 60 62 63 65 68 72 76 81 87 92 96 102 107 112 117 122 128 129 131 128 123 119 110 104 97 91 82 78 75 71 69 66 64 63 60
67 68 70 65 64 62 62 65 65 63 63 66 69 74 80 83 89 95 98 103 108 112 118 123 127 131 131 130 127 119 112 104 97 92 84 78 74 71 68 66 63 60 59 57
71 71 75 72 64 62 63 65 66 66 69 72 76 81 85 92 97 101 106 109 113 119 123 127 130 131 130 128 123 115 106 98 93 85 79 75 71 69 66 63 59 56 54 53
74 78 77 71 67 67 67 67 69 71 75 79 84 89 94 99 104 107 112 117 122 125 128 129 130 129 129 126 118 109 100 93 86 79 76 72 69 66 63 60 56 54 53 51
78 81 79 71 71 72 73 74 76 79 81 86 91 96 102 106 110 114 118 121 125 127 129 129 130 129 126 119 110 101 94 87 79 75 72 69 66 63 59 57 54 52 50 46
82 80 73 72 75 77 78 82 85 88 90 94 99 103 108 112 115 118 121 124 128 128 128 127 127 125 117 110 101 94 88 80 75 72 68 66 63 60 58 56 53 50 47 45
82 78 75 77 80 83 85 88 91 94 97 100 105 110 113 115 119 121 126 127 128 127 125 125 124 116 108 100 93 87 81 75 72 67 65 62 59 57 56 54 50 48 48 45
76 78 79 81 85 87 91 93 96 100 104 107 110 114 118 120 123 127 127 126 127 124 123 121 114 107 99 91 85 80 75 72 67 64 62 59 57 54 52 50 49 47 45 45
81 82 83 87 89 92 96 100 102 105 107 110 115 119 123 126 126 125 125 125 122 121 117 110 104 98 91 85 80 74 72 68 64 62 59 57 54 51 50 49 48 47 43 41
83 85 88 91 94 97 101 104 107 109 112 116 118 126 124 123 122 123 121 120 119 112 108 101 95 90 85 80 74 71 67 64 62 59 57 54 51 50 50 49 48 46 43 39
89 92 95 97 100 104 107 109 112 114 119 121 124 123 122 121 117 115 114 111 108 103 99 93 88 85 80 75 71 67 64 60 58 57 55 52 51 50 50 48 46 44 42 39
97 100 103 105 107 110 115 116 116 119 123 122 118 118 114 114 112 109 106 103 99 93 91 88 84 80 75 72 67 64 60 58 56 55 53 51 51 51 49 46 43 40 40 39
104 107 110 112 112 117 120 120 122 121 113 114 111 109 109 105 104 102 100 95 91 87 85 83 80 76 72 68 63 60 58 56 55 53 51 51 51 50 47 43 41 39 37 38
110 113 115 118 120 123 122 118 111 110 108 109 108 104 102 100 99 95 91 89 89 84 81 78 75 71 67 64 60 56 55 54 53 51 51 51 50 47 44 42 39 38 38 37
118 119 119 118 116 112 110 107 105 103 104 104 102 100 97 94 92 90 87 83 80 77 75 73 70 66 62 61 58 55 53 53 51 50 50 50 47 44 42 40 40 40 39 39
119 114 108 104 105 103 102 103 102 101 99 97 96 94 90 88 87 84 82 80 77 74 71 68 65 62 60 56 56 54 53 52 51 50 48 46 44 42 41 41 41 41 41 39
106 106 103 103 103 101 99 101 100 98 94 91 90 89 87 85 86 81 78 75 71 68 65 63 62 60 57 55 53 51 51 50 50 48 45 43 42 42 41 41 41 41 41 40
104 105 104 104 104 103 98 98 96 95 91 85 83 83 82 78 73 72 70 67 65 63 62 60 59 57 55 53 51 51 50 49 48 46 44 43 42 42 41 41 41 41 41 41
107 105 105 102 100 98 97 95 91 88 83 82 82 81 77 73 71 69 65 63 61 59 58 57 55 55 53 52 51 50 50 48 46 44 43 43 42 41 40 40 40 40 40 41
105 102 99 95 95 94 92 90 87 82 80 78 76 74 71 70 68 64 63 62 60 57 56 55 54 52 51 50 50 49 49 47 44 42 42 42 41 39 39 40 40 39 39 39

GFSNGP_250_spd_018.txt.gz
Wind_Speed
18 20 22 25 30 32 35 38 41 44 47 48 50 51 53 54 55 57 59 60 62 61 63 65 69 74 79 87 92 97 105 112 116 122 127 126 124 121 120 117 111 105 97 91
22 23 27 31 35 37 39 43 46 50 54 53 52 54 56 58 59 60 61 61 60 60 63 69 74 79 86 93 99 105 112 117 125 127 127 126 122 118 115 111 102 96 89 83
26 27 30 34 37 40 43 48 50 56 58 56 54 57 60 61 61 61 60 60 61 65 70 75 81 88 95 100 106 112 118 124 129 130 126 121 119 112 107 101 94 86 82 78
28 29 31 36 41 44 49 54 54 58 58 57 57 59 60 61 61 62 62 63 67 72 79 83 90 96 101 107 113 120 123 128 130 126 123 119 113 105 97 90 85 80 77 74
31 35 38 43 46 49 53 59 59 63 62 59 59 60 59 60 62 64 65 70 74 80 85 91 97 103 109 114 121 123 127 129 125 124 119 115 107 98 87 82 79 75 71 68
39 41 44 50 53 55 58 63 64 69 66 63 62 60 60 62 64 68 72 75 81 87 93 98 104 110 115 120 127 128 129 127 125 119 116 109 99 91 84 79 76 72 69 67
46 49 52 54 57 60 63 63 65 70 68 64 64 64 65 67 71 75 78 84 89 94 99 105 111 115 120 127 131 130 126 126 123 119 111 101 93 86 80 77 73 69 65 63
53 57 57 61 64 65 66 69 69 74 69 66 66 68 72 74 77 80 86 90 95 100 105 111 116 120 127 127 128 128 127 125 122 115 106 97 89 81 77 72 68 66 61 59
56 59 63 67 69 69 71 72 73 75 70 69 69 72 75 78 82 87 92 96 101 105 110 116 120 127 129 128 131 130 126 124 117 109 99 91 83 78 73 68 66 62 59 58
64 67 70 70 71 73 73 75 77 75 71 71 73 76 79 84 88 94 98 103 107 111 115 122 127 131 131 131 130 127 124 119 110 102 92 84 78 74 69 66 63 60 58 56
69 73 70 71 74 75 77 79 79 73 72 75 79 82 86 90 94 99 103 107 113 117 120 126 131 131 131 130 127 124 119 109 101 93 85 79 75 69 66 63 60 58 55 52
73 74 74 76 76 77 80 81 78 76 79 82 84 87 91 95 100 106 109 114 119 122 126 131 131 128 128 126 123 116 109 100 92 86 79 75 70 65 62 60 58 55 52 49
73 77 81 80 80 81 83 79 79 82 85 87 89 93 98 102 107 113 116 121 124 127 132 129 127 127 123 120 113 105 98 92 84 79 75 71 66 62 58 57 55 51 50 48
81 84 82 82 83 85 83 84 85 88 90 92 96 102 106 109 114 118 123 127 130 133 128 126 125 123 118 110 100 95 90 84 79 74 71 67 63 59 58 55 52 50 49 48
83 83 84 84 84 84 85 88 89 92 94 98 104 108 111 116 119 124 128 130 128 124 125 122 122 116 108 98 92 88 83 79 74 71 67 63 59 56 55 53 52 51 50 47
80 82 82 84 87 89 90 93 95 99 101 106 111 114 118 123 125 129 125 123 123 121 118 117 112 104 96 90 86 82 78 75 71 67 63 59 56 54 52 51 50 49 47 44
82 84 87 89 91 93 96 99 102 105 109 111 116 120 125 126 129 119 120 121 120 118 112 105 99 93 89 85 81 78 75 71 68 64 60 56 54 53 51 50 49 46 43 41
89 90 92 95 98 100 103 106 108 111 116 120 124 125 128 123 115 115 115 114 111 104 100 94 89 87 84 80 77 74 70 67 63 60 57 54 53 51 50 50 46 43 40 39
94 97 100 102 105 107 110 112 115 118 122 127 127 123 115 115 111 108 105 101 97 91 89 87 84 83 79 77 72 68 66 62 59 56 54 52 51 51 50 47 44 41 39 38
101 105 108 110 114 117 120 121 124 128 128 118 111 111 108 104 99 97 95 91 87 86 84 82 79 77 74 70 66 64 62 58 55 53 51 50 49 50 48 44 42 40 39 37
109 112 116 119 123 126 127 126 122 117 109 107 107 98 93 93 93 90 85 81 84 82 79 77 74 71 68 66 63 61 58 55 53 51 50 48 49 48 45 42 41 40 39 38
119 121 123 121 117 115 113 110 105 104 105 103 97 91 88 89 87 83 83 80 79 77 76 73 70 67 66 64 60 56 53 52 50 50 48 48 48 45 42 40 40 40 39 39
115 114 111 107 108 107 108 105 105 103 100 97 95 90 87 84 82 76 77 80 77 76 73 69 66 65 63 59 55 52 50 49 48 47 47 48 47 43 41 40 41 40 40 40
105 102 103 103 104 103 102 100 97 97 94 93 89 83 79 78 79 78 76 75 73 72 68 65 64 61 59 54 51 49 48 48 48 47 47 47 45 42 41 41 41 40 40 40
104 103 101 101 102 100 98 95 92 93 90 88 82 80 78 76 74 75 75 72 70 67 64 63 60 56 54 52 49 47 46 46 47 47 47 45 43 41 41 40 40 40 40 39
105 105 102 98 97 94 91 90 86 86 84 81 83 80 78 75 73 72 70 68 65 62 61 59 56 54 52 49 48 48 47 47 46 46 45 43 41 40 41 40 39 40 40 39
98 95 93 92 91 87 84 82 82 81 80 78 77 76 73 73 72 70 68 66 63 60 59 57 53 51 50 49 48 47 46 46 46 45 44 42 40 40 41 41 40 39 39 39

GFSNGP_250_spd_021.txt.gz
Wind_Speed
19 21 20 20 21 26 29 28 32 36 43 45 47 51 54 56 56 55 57 57 58 60 61 62 64 67 72 77 82 90 97 102 107 113 118 123 128 127 123 116 111 106 104 98
22 22 23 24 26 29 28 32 37 40 45 49 52 53 58 58 57 56 56 57 58 60 63 65 69 73 79 85 90 98 103 109 114 119 124 129 126 125 119 116 110 106 98 91
24 23 24 30 30 28 34 40 43 45 50 54 54 57 60 62 60 58 58 59 60 62 65 69 74 79 86 92 98 104 109 114 119 123 130 129 127 122 121 111 106 99 91 85
27 27 26 31 35 34 38 45 48 51 56 58 60 60 63 66 64 61 59 61 64 68 73 77 81 87 93 99 105 110 114 119 123 130 131 127 124 121 115 111 101 91 84 79
28 28 28 37 41 42 45 51 54 58 61 62 65 63 66 68 66 62 63 67 71 75 80 83 90 95 100 108 112 117 123 127 131 132 126 126 122 118 113 103 93 85 79 75
31 34 35 42 47 50 52 55 61 63 63 65 70 69 72 74 70 69 69 73 76 81 85 90 96 102 108 114 119 124 129 131 130 124 125 123 120 114 103 95 87 80 75 70
36 38 40 49 52 56 56 60 65 67 66 69 73 74 76 76 73 71 73 79 82 87 91 96 104 109 114 120 125 130 131 128 125 128 126 122 115 106 97 89 81 75 70 66
43 48 49 56 57 56 62 65 69 68 70 74 76 78 79 77 76 77 81 86 89 93 97 104 110 115 120 126 129 132 130 127 128 128 124 118 107 99 90 82 76 71 66 62
54 58 59 60 60 63 66 70 71 71 73 79 80 81 81 83 82 84 88 91 94 98 104 110 115 120 125 129 132 130 128 129 128 126 120 107 99 91 82 76 70 66 62 58
59 64 66 64 65 69 73 74 73 74 79 83 83 83 85 85 85 88 92 96 99 105 111 115 122 127 129 131 130 129 130 128 126 120 110 101 92 83 76 71 66 62 59 56
61 65 65 70 74 76 78 75 75 79 83 84 82 81 84 86 89 93 97 101 107 112 116 122 127 131 131 129 128 129 129 126 119 111 103 94 84 77 72 66 62 59 56 54
66 71 72 74 77 78 77 78 80 84 84 81 81 83 87 91 95 98 102 108 113 117 122 126 132 129 127 128 127 126 122 118 111 101 93 85 78 72 67 63 60 56 54 52
74 76 75 77 76 80 82 83 84 83 81 83 86 90 94 98 101 105 108 113 118 123 127 130 127 125 126 124 122 119 115 109 101 91 84 78 73 67 63 59 57 55 53 52
76 78 78 80 81 82 83 83 84 84 87 90 93 96 100 103 105 110 115 121 125 127 126 122 121 123 121 118 114 112 108 100 91 83 78 72 68 64 60 56 52 51 51 51
79 80 81 82 82 83 84 86 88 90 92 96 100 103 107 109 114 120 124 125 124 117 117 120 120 117 114 110 107 103 98 89 83 77 73 68 65 61 57 54 51 48 48 49
80 81 82 84 85 86 88 90 94 96 100 103 106 109 112 117 122 124 124 118 114 113 117 119 114 109 106 101 97 95 87 81 77 72 69 66 62 58 55 51 49 48 48 46
80 81 83 85 89 92 93 97 101 105 109 111 114 118 121 123 121 116 114 113 115 116 115 111 106 101 97 93 90 85 79 76 72 69 67 63 59 55 51 48 47 48 46 42
85 87 90 92 95 98 102 105 108 112 116 120 122 123 122 116 111 112 115 117 115 111 105 102 98 94 90 87 82 78 74 71 70 66 64 60 55 51 48 46 45 46 42 40
91 94 97 100 103 107 111 115 118 121 123 124 120 113 110 110 115 114 113 110 106 99 98 96 92 88 84 81 77 74 70 69 67 64 61 56 51 49 46 45 45 43 39 39
99 102 105 109 112 114 116 119 123 122 116 113 112 113 117 116 111 105 102 101 97 92 90 87 84 81 78 75 73 68 67 67 65 61 57 52 49 47 45 44 43 41 38 38
107 110 113 115 118 121 122 119 115 114 114 111 110 110 106 104 99 96 95 91 93 89 85 82 78 75 73 71 68 65 65 63 61 57 53 49 47 46 45 43 43 40 38 38
114 115 118 119 118 113 111 112 114 112 114 112 107 101 95 93 91 90 91 89 84 83 78 76 73 71 69 67 65 64 62 59 57 55 52 49 47 46 45 43 41 39 38 38
111 108 107 109 107 107 107 107 107 108 100 97 95 91 88 86 87 87 84 85 81 78 75 73 71 70 67 64 64 62 59 56 54 52 51 49 47 45 44 43 41 39 38 38
109 107 105 103 103 105 106 100 97 95 91 89 88 87 84 83 84 82 77 76 74 72 72 70 69 68 65 63 63 60 57 55 53 51 50 49 47 46 43 41 40 38 38 38
109 107 104 104 103 101 96 92 89 89 89 88 86 85 82 79 75 75 73 71 70 69 69 68 68 65 63 62 60 59 57 55 53 51 50 48 47 45 43 41 40 39 39 38
101 99 97 96 97 95 92 89 87 87 85 82 82 82 79 75 71 69 69 68 68 68 67 66 65 63 62 60 58 57 56 54 52 51 49 47 46 45 43 41 40 39 38 37
93 94 94 92 90 87 85 84 82 82 81 77 73 75 72 71 68 66 66 66 66 66 65 63 61 60 59 57 56 55 55 53 51 49 47 46 45 43 42 41 40 40 39 38

GFSNGP_250_spd_024.txt.gz
Wind_Speed
14 17 18 20 22 24 26 27 29 29 32 35 40 45 51 53 53 53 55 60 61 60 58 58 59 62 66 70 75 81 86 92 99 105 111 118 123 124 127 125 123 123 117 111
19 19 21 23 27 26 29 30 29 32 38 42 44 49 54 57 58 58 61 63 66 65 63 61 63 68 74 79 84 89 93 100 107 111 117 124 125 127 126 126 123 119 110 100
22 22 22 29 30 29 31 30 35 39 42 46 51 56 59 61 63 65 67 70 71 71 67 67 70 76 81 86 91 95 100 107 111 117 123 127 128 127 127 124 120 111 104 96
26 28 25 34 36 33 29 35 40 45 47 52 54 59 63 66 66 68 71 75 74 75 74 74 77 82 87 92 97 102 107 112 117 122 127 129 125 127 124 121 113 107 100 93
30 33 29 34 40 39 35 40 49 52 55 56 58 63 68 70 71 71 74 78 78 77 76 79 83 88 93 98 103 109 112 117 123 126 126 125 126 127 124 115 108 101 95 88
33 28 27 37 42 41 42 44 55 57 60 61 64 68 73 76 74 74 78 81 79 77 80 84 89 93 98 103 108 114 119 124 126 125 122 124 126 123 117 110 102 97 89 83
36 33 33 40 41 46 50 53 59 63 63 65 68 72 76 78 78 79 82 82 80 81 86 90 94 98 103 108 115 119 124 125 124 121 121 124 123 118 112 103 98 91 84 78
40 42 40 44 49 54 57 60 62 64 67 70 72 77 77 80 82 83 84 83 83 87 92 95 99 104 109 115 118 123 124 120 119 121 121 121 118 113 104 99 93 85 77 72
50 50 49 51 56 58 62 65 68 71 74 75 78 79 80 83 84 85 84 84 88 93 97 102 106 110 115 119 121 121 121 120 120 119 119 116 113 105 99 94 86 77 71 67
50 54 57 59 60 63 67 70 73 76 78 80 82 82 84 85 85 87 88 91 95 99 104 108 112 116 119 119 118 118 119 120 117 117 115 112 107 100 94 87 78 72 68 64
55 60 61 65 68 71 73 76 80 82 82 83 83 85 88 87 87 88 92 96 100 105 110 115 117 120 119 117 117 119 119 118 115 113 111 107 102 95 88 79 73 68 65 61
59 64 65 69 74 77 80 83 84 84 84 87 88 88 88 88 91 93 97 102 108 113 116 119 120 118 115 115 117 118 116 115 113 110 106 101 96 90 80 74 71 66 62 58
67 71 72 76 80 83 84 85 86 87 90 89 88 89 90 93 96 100 106 111 115 117 121 120 114 114 114 113 115 115 114 111 109 105 100 95 89 82 75 70 67 63 59 56
76 78 80 83 83 84 86 88 90 90 90 89 89 92 94 99 104 108 112 116 119 122 117 112 114 115 114 113 112 112 111 107 103 99 94 89 83 75 72 67 63 60 58 54
81 82 83 83 84 86 88 89 89 88 90 92 94 98 102 107 111 115 118 121 123 119 115 115 117 120 114 112 111 108 105 102 96 93 87 82 76 71 69 63 60 56 53 51
81 83 84 85 86 86 87 88 92 94 96 99 102 107 110 114 117 119 122 122 116 116 116 119 122 118 112 109 107 103 100 95 91 86 80 76 71 69 65 61 57 54 51 48
85 85 86 85 87 89 92 95 97 100 104 107 112 114 119 120 122 124 120 114 114 116 118 119 117 109 106 105 102 99 94 90 85 80 75 71 69 66 62 58 55 52 49 48
84 86 88 90 93 96 99 102 105 107 111 115 118 120 124 125 123 120 114 114 115 118 117 107 106 104 101 99 97 93 88 83 80 75 71 67 66 63 59 56 53 51 49 47
92 94 97 99 102 103 105 108 112 116 117 120 121 123 120 118 117 118 116 115 118 113 108 105 101 98 97 95 92 88 82 77 74 70 66 65 62 59 57 54 53 50 47 45
98 101 104 106 109 111 112 113 117 121 122 118 114 115 118 120 121 121 117 115 115 102 98 98 94 93 91 89 86 80 76 72 70 67 64 62 59 56 55 53 52 50 47 45
105 107 110 114 114 115 117 119 118 115 114 115 117 122 124 124 119 109 101 96 96 95 94 93 90 87 84 82 78 74 72 68 66 64 62 60 57 54 53 52 51 49 47 44
111 113 117 118 119 113 111 110 110 113 118 121 119 112 103 99 96 96 94 91 89 89 89 86 84 81 78 75 72 70 68 65 63 62 59 56 54 53 52 51 51 49 47 43
112 111 108 108 107 106 105 105 109 112 104 98 94 94 93 90 90 90 86 88 87 86 83 79 77 75 72 69 68 67 65 63 61 59 57 53 52 52 52 51 50 48 46 43
109 109 106 109 108 105 105 101 97 95 93 92 90 90 90 87 87 88 85 82 80 76 75 72 72 70 68 66 65 64 63 61 58 57 56 54 51 50 50 49 48 47 44 41
110 106 104 100 94 93 95 95 94 93 93 91 92 92 90 85 80 77 77 75 73 70 69 68 67 67 65 64 62 61 60 59 57 56 55 53 51 50 48 46 46 45 43 40
103 102 101 99 97 96 94 93 92 91 90 87 86 84 83 81 78 73 71 70 67 66 66 65 65 64 63 62 60 58 57 56 55 54 52 50 48 47 47 46 44 42 41 39
100 98 95 93 89 88 89 87 83 81 79 76 73 73 72 72 71 69 67 66 64 64 63 63 63 62 61 60 58 56 55 53 51 51 50 48 47 47 46 43 41 41 40 39

GFSNGP_250_spd_027.txt.gz
Wind_Speed
11 12 12 13 15 19 21 24 26 26 31 23 31 36 40 44 49 52 55 59 64 66 66 68 69 72 72 71 70 73 78 84 89 94 98 104 109 112 116 116 116 117 120 119
16 15 15 18 22 25 26 29 29 31 33 30 36 41 46 51 53 57 60 63 68 69 69 72 73 76 77 75 75 79 84 91 95 100 106 109 114 117 117 117 120 120 118 115
18 19 19 25 30 30 32 32 32 34 34 36 42 47 52 55 58 60 63 67 71 73 74 76 78 80 79 79 82 86 91 97 102 107 111 114 118 117 117 117 119 117 113 107
24 25 24 32 36 37 35 34 34 36 37 41 47 52 58 61 63 66 70 72 75 76 77 81 82 82 81 82 86 92 98 102 108 111 115 118 116 117 117 117 116 112 107 100
28 30 30 35 39 42 40 37 38 37 42 48 52 57 61 64 68 71 74 77 79 79 81 84 85 84 84 87 92 98 104 108 112 115 116 116 117 115 115 114 111 107 101 95
33 32 34 41 44 44 42 40 42 45 50 54 57 60 65 67 72 76 79 80 82 83 86 88 88 87 89 93 98 104 109 112 115 115 113 111 111 112 113 110 106 103 96 90
36 36 39 44 45 46 47 47 48 52 58 61 64 67 70 74 78 81 82 83 84 89 90 90 87 90 94 98 104 110 114 116 115 114 111 111 113 112 109 106 103 97 92 86
42 44 44 44 46 48 51 53 56 59 63 66 69 73 77 80 84 85 87 87 91 92 89 88 91 95 100 106 111 114 117 117 114 113 111 111 113 110 106 104 100 93 88 83
47 49 49 48 47 51 54 58 61 64 67 70 74 77 81 84 87 90 90 93 93 89 90 93 97 102 107 111 115 118 117 114 110 111 112 111 108 105 104 101 95 89 84 78
50 53 53 54 56 57 59 63 65 69 72 76 79 82 86 89 89 91 94 89 88 91 94 97 103 108 112 116 118 115 112 110 110 111 111 108 106 106 102 96 91 85 80 75
47 53 55 59 61 63 65 68 71 75 79 83 87 90 90 89 90 90 88 90 93 96 100 105 110 114 117 117 115 114 112 109 110 113 111 111 107 103 98 92 86 81 75 71
57 60 60 62 66 69 72 75 79 83 87 90 91 91 90 89 89 90 93 96 100 105 109 112 116 119 117 114 113 114 114 113 111 112 112 108 103 99 93 87 81 76 71 67
60 60 63 67 71 74 77 82 86 90 90 89 90 89 89 88 92 97 100 103 109 112 114 119 119 115 110 110 114 115 116 113 112 110 108 103 99 93 87 80 76 71 67 63
66 67 71 74 77 81 85 89 89 87 87 88 88 88 92 95 99 103 107 111 113 117 119 119 115 115 115 112 114 118 115 111 107 105 102 99 93 87 81 76 71 65 64 60
73 75 77 80 85 88 90 87 86 85 86 90 93 96 99 103 106 108 111 115 118 118 119 118 120 118 119 121 117 112 108 105 103 100 97 93 87 80 75 71 67 63 59 57
80 83 86 89 91 87 87 87 89 91 94 97 99 102 106 109 111 114 117 120 122 121 120 118 121 122 119 115 110 108 107 103 100 96 92 87 80 75 71 67 63 59 57 54
86 87 90 90 88 88 90 92 96 97 102 106 108 111 112 115 118 122 122 120 117 116 117 116 121 121 115 110 108 104 98 98 95 90 85 80 74 71 67 63 60 56 54 52
92 91 88 88 91 94 97 100 102 105 109 112 114 118 119 121 122 118 117 118 120 120 117 116 119 111 107 105 101 100 94 91 87 82 78 74 70 67 63 60 56 54 51 49
88 89 92 95 99 102 104 107 109 112 115 119 118 119 119 117 117 119 119 123 122 118 116 112 111 108 101 100 97 91 87 84 80 75 72 69 67 64 59 56 54 51 49 47
92 95 99 101 103 106 108 112 113 116 116 118 116 117 117 120 119 123 124 122 115 110 107 104 100 97 94 92 89 83 80 77 73 70 68 66 63 60 56 53 52 50 47 46
98 101 102 106 108 111 113 116 118 117 118 116 116 117 121 121 114 108 108 108 105 100 99 97 94 89 86 84 79 76 73 70 68 66 64 61 59 57 54 52 52 50 48 45
103 106 107 107 112 112 114 116 115 114 115 116 120 116 110 110 108 101 99 96 94 93 91 87 84 81 79 77 73 70 68 65 64 62 59 56 54 53 53 53 51 49 47 45
109 109 109 110 115 115 114 114 118 117 110 105 105 105 100 96 93 92 91 92 88 84 82 79 77 75 73 71 68 66 65 62 60 58 56 54 52 51 51 50 49 46 44 43
107 108 111 112 111 111 114 110 106 104 103 100 100 97 93 91 88 87 83 80 77 75 73 71 69 68 68 68 66 63 60 58 56 54 53 51 50 50 49 48 46 45 43 41
112 112 112 111 109 105 103 102 100 97 95 93 94 92 89 86 82 79 76 73 71 69 68 67 66 65 64 63 61 58 56 55 54 52 51 50 49 48 48 46 45 43 42 40
113 109 105 102 100 98 96 93 92 91 88 86 85 82 80 79 76 74 72 69 66 64 62 61 61 60 59 58 57 56 55 53 52 51 49 48 46 46 46 45 43 41 40 38
101 98 96 92 91 91 90 89 87 83 79 75 73 73 72 72 70 69 67 65 64 62 61 59 58 58 57 57 56 55 54 52 50 48 47 45 44 44 43 43 42 40 39 38

GFSNGP_250_spd_030.txt.gz
Wind_Speed
19 17 15 15 17 19 21 22 25 27 29 27 30 35 36 38 41 45 48 51 55 58 61 64 68 73 76 77 78 80 81 81 80 83 87 93 99 104 107 111 108 107 109 110
20 20 19 19 22 23 24 25 29 30 35 35 34 37 39 42 46 50 53 56 60 63 66 69 74 78 80 82 83 86 86 85 85 88 93 100 105 110 112 111 108 107 109 110
24 22 20 24 27 26 28 31 33 35 39 40 41 42 42 46 52 56 58 61 65 69 73 76 80 83 85 87 87 88 86 87 89 94 101 107 111 114 112 107 108 109 110 108
27 25 24 31 31 32 33 35 37 39 42 44 44 43 44 51 57 60 63 68 72 76 80 81 85 88 88 88 89 87 88 92 96 101 107 112 116 112 107 108 110 110 110 106
29 30 30 33 36 39 37 39 40 43 46 47 47 48 51 58 62 66 70 73 77 80 83 86 89 88 89 89 87 90 94 98 102 106 112 116 114 107 110 115 114 109 107 102
33 33 34 39 40 40 41 42 46 48 49 51 53 56 60 63 67 71 75 77 80 84 87 90 88 88 89 87 91 95 98 103 108 111 116 114 110 112 115 116 112 108 103 99
36 37 39 41 42 43 45 47 49 50 51 54 57 61 65 67 70 74 77 81 85 88 89 87 89 89 89 93 98 101 104 108 111 116 111 111 112 112 116 112 107 102 99 96
38 41 41 43 44 46 49 52 54 56 58 61 62 63 66 72 75 79 84 87 89 88 89 89 89 91 94 98 102 105 110 114 116 114 111 111 111 115 110 104 101 101 98 93
44 46 46 47 49 52 53 54 57 60 63 64 66 67 72 75 78 83 88 89 87 88 89 91 94 97 100 104 107 110 114 116 109 108 109 112 112 110 102 103 105 99 95 91
46 49 48 49 50 49 51 57 61 64 67 67 70 73 76 80 84 88 85 84 87 88 91 95 98 102 105 109 112 115 113 109 107 108 112 113 111 108 108 107 100 96 92 86
48 51 50 53 53 58 62 64 65 67 69 72 76 78 82 87 87 84 85 87 89 93 97 101 104 107 110 113 114 111 112 112 113 114 114 112 108 110 108 102 98 93 87 80
53 55 56 59 62 65 67 69 70 73 77 79 81 84 90 89 85 86 89 93 97 100 104 108 110 113 112 114 113 113 113 114 115 116 112 107 106 105 100 97 92 87 81 75
56 58 61 65 67 70 72 75 78 81 81 84 87 92 91 87 89 93 96 98 101 104 108 112 114 114 112 111 112 114 115 117 116 110 109 105 100 98 97 91 86 80 75 71
64 68 69 71 72 76 79 80 81 84 87 91 95 92 89 92 96 100 103 107 109 111 115 117 115 116 116 115 117 118 116 110 107 107 105 101 99 95 90 83 77 74 70 67
72 73 73 75 78 80 81 84 87 91 95 94 92 92 95 99 102 105 107 108 113 113 113 118 117 118 118 119 116 115 110 110 108 102 100 97 93 88 82 76 72 68 66 64
74 76 77 80 81 84 88 92 95 96 94 95 95 98 103 106 107 111 111 114 115 118 116 117 120 120 120 115 112 109 107 103 101 99 96 89 83 79 75 70 66 64 62 60
78 80 83 86 90 92 94 94 93 94 94 98 101 106 108 110 111 116 119 117 115 116 121 119 118 115 111 107 106 106 103 98 95 91 85 80 76 73 70 67 63 61 59 57
85 87 89 91 90 92 93 94 96 99 102 106 108 110 114 116 116 114 116 118 117 117 120 116 111 110 112 108 102 96 91 87 86 82 78 74 71 68 67 65 61 59 56 53
87 87 88 91 91 92 96 100 103 105 108 111 113 114 116 113 115 117 119 119 119 121 121 117 113 105 98 94 90 87 84 81 78 74 71 70 67 65 64 62 60 55 52 49
88 89 91 94 97 100 103 106 108 111 113 116 116 116 115 115 118 118 115 115 114 108 104 99 96 92 88 86 83 80 76 75 72 69 66 65 64 62 61 59 56 52 49 48
90 94 97 99 103 106 109 111 112 111 114 112 114 114 115 119 119 117 113 109 105 100 97 93 89 84 81 78 76 74 72 70 67 66 64 62 60 58 56 54 52 49 47 46
97 99 102 104 106 108 110 112 113 111 112 111 111 114 112 111 108 104 102 96 92 90 86 83 79 77 75 73 71 69 67 66 65 63 60 58 56 54 52 50 49 48 46 45
102 103 104 106 107 109 109 109 110 109 109 112 111 109 106 102 100 95 90 88 83 79 76 74 73 71 69 68 67 66 64 62 60 57 55 53 52 51 50 48 47 47 46 44
101 102 104 106 107 106 106 108 109 109 107 105 102 100 99 94 91 87 82 78 76 73 71 69 67 66 65 64 63 61 60 57 55 54 53 52 50 49 48 47 46 45 45 43
102 103 105 106 108 111 113 110 106 103 101 98 97 94 90 85 80 78 77 74 72 69 67 65 63 61 60 58 57 57 57 56 54 53 51 50 48 46 45 44 44 43 43 42
105 107 109 109 110 105 100 97 94 93 93 90 88 83 81 79 77 74 72 69 67 64 62 60 59 58 57 56 56 56 56 54 50 49 48 47 46 45 44 42 42 41 41 40
108 108 105 100 97 94 92 91 89 86 83 79 77 77 75 73 71 69 67 66 64 62 59 58 56 56 55 55 53 51 50 50 48 46 45 45 45 44 43 42 40 39 39 38

GFSNGP_250_spd_033.txt.gz
Wind_Speed
25 26 25 24 24 23 23 24 27 26 28 30 30 33 36 39 42 45 47 48 50 56 60 63 66 70 75 78 81 84 87 87 85 85 87 88 91 97 100 104 108 111 112 108
27 27 26 22 25 26 26 28 28 29 33 32 36 37 40 43 46 49 50 51 54 60 66 68 71 77 79 81 84 87 87 86 86 89 90 92 97 101 106 108 113 112 109 108
29 27 25 27 29 26 28 32 31 32 34 37 41 44 46 48 51 52 53 54 59 65 70 73 76 79 80 84 88 88 87 86 89 91 94 98 103 106 110 112 112 109 108 109
30 28 28 33 31 32 33 34 34 36 40 43 44 47 48 49 50 54 57 61 66 70 74 77 78 81 85 89 88 87 87 89 90 95 100 103 106 110 113 111 109 108 109 111
32 32 34 35 36 36 37 40 37 42 45 48 48 50 52 50 55 58 61 65 69 73 74 78 81 85 89 88 87 88 91 93 97 101 104 106 110 111 110 109 108 111 114 110
36 37 37 38 39 41 42 43 43 49 49 50 52 54 60 59 62 66 68 71 73 74 77 82 86 90 89 88 89 93 96 99 102 105 109 112 109 108 106 110 112 112 112 108
38 39 40 41 41 42 45 48 49 51 53 56 58 58 61 65 68 71 72 73 76 79 83 85 92 90 90 91 94 98 101 103 105 108 110 109 108 108 112 113 111 111 110 110
39 40 41 43 43 47 48 49 51 55 57 59 60 61 64 69 70 71 73 76 81 83 88 92 93 91 90 93 100 104 106 108 111 113 113 111 110 112 114 113 110 109 108 109
43 43 42 43 45 47 50 53 55 57 59 58 61 65 69 72 74 77 79 82 84 87 92 94 93 92 97 103 106 107 110 112 112 110 111 115 115 112 113 111 109 108 106 102
44 45 44 47 49 51 54 56 59 61 61 65 68 73 75 76 80 83 85 87 89 94 94 93 94 98 103 106 108 111 114 112 111 110 113 112 110 111 113 110 107 105 99 95
47 48 49 49 48 54 57 59 62 65 67 71 74 77 80 83 86 87 89 92 96 95 95 96 99 105 108 110 112 111 112 113 111 111 112 118 117 113 110 108 103 97 91 86
48 48 53 56 56 60 62 66 69 71 72 75 81 83 85 87 88 92 96 97 96 97 98 102 106 109 112 114 111 113 115 113 113 117 118 121 116 113 107 100 93 87 83 79
54 57 58 61 63 64 68 72 73 75 79 83 85 87 88 91 95 96 96 97 98 102 106 109 111 112 113 113 112 111 114 117 116 114 110 108 105 100 94 91 88 85 79 73
60 62 62 67 66 72 75 77 79 81 83 86 87 90 94 97 96 97 99 101 106 108 111 112 113 113 112 114 117 118 116 116 115 110 104 99 95 94 90 86 81 77 73 70
65 68 69 71 76 79 80 80 83 85 86 89 93 96 95 96 98 100 106 110 112 113 113 113 117 116 116 115 114 111 109 111 107 104 102 97 92 88 85 79 75 72 68 66
69 71 75 80 82 82 83 84 86 90 94 95 93 94 97 100 105 109 112 115 116 118 119 116 117 112 111 112 111 110 104 103 100 96 93 89 84 79 76 73 71 68 64 62
74 77 80 81 83 84 86 91 95 95 93 94 95 98 103 107 111 114 117 118 121 120 117 115 112 112 111 107 106 107 102 97 92 86 83 80 77 75 71 68 66 65 63 61
78 80 81 83 86 91 94 94 93 95 96 99 102 106 109 112 115 118 120 122 119 114 113 111 111 110 108 103 99 94 90 87 83 80 77 74 72 71 67 66 65 63 61 58
80 81 85 90 93 91 93 95 96 98 102 106 109 112 114 116 116 117 115 113 114 111 110 109 106 103 101 95 88 85 82 80 79 76 73 70 68 68 65 64 62 59 57 54
85 89 92 91 93 94 96 99 102 105 108 111 112 114 115 113 114 115 113 112 111 108 107 105 101 95 91 87 82 80 78 74 72 71 69 67 66 64 61 59 58 55 53 52
90 91 91 93 95 98 102 105 108 110 113 114 111 112 112 113 114 113 111 109 109 106 104 97 91 86 83 81 79 76 73 72 70 68 66 63 61 59 57 56 55 54 52 51
89 91 95 98 101 104 107 109 111 113 111 111 112 110 112 114 113 110 109 104 100 96 92 88 84 82 78 75 73 71 70 67 66 64 61 59 57 56 56 55 54 53 51 49
94 97 101 103 106 108 109 108 108 109 110 110 113 113 113 109 106 104 101 96 91 87 83 80 78 74 72 71 69 67 66 64 62 61 59 58 56 55 54 52 50 48 47 46
100 104 105 106 106 107 107 107 109 111 112 112 111 110 108 104 102 96 90 86 83 81 77 72 71 69 67 66 64 63 62 61 61 60 59 57 54 52 51 50 49 48 45 44
102 103 104 103 106 106 106 109 111 112 112 110 109 105 102 97 90 87 85 82 79 76 73 71 68 66 63 62 60 59 58 59 58 57 56 55 53 52 51 50 48 46 44 43
101 101 103 105 106 107 110 110 112 110 107 105 103 100 93 88 86 83 81 77 74 72 69 67 66 64 62 60 59 58 56 55 54 53 53 51 48 47 47 46 46 45 44 42
101 102 105 105 107 109 111 109 106 103 102 100 94 89 85 83 81 77 75 73 70 69 67 65 64 62 60 59 57 55 55 54 52 49 48 47 45 44 44 44 43 42 42 40

GFSNGP_250_spd_036.txt.gz
Wind_Speed
31 29 31 28 28 29 29 28 25 26 25 30 27 28 34 38 40 44 47 45 51 55 57 56 58 61 66 69 74 79 81 82 86 90 96 94 91 92 96 100 104 106 108 110
30 30 31 29 30 30 29 26 25 27 27 31 31 35 40 41 43 45 48 51 52 56 57 59 61 64 69 73 77 78 80 86 89 94 96 94 93 95 101 106 108 108 110 111
30 31 29 31 31 29 27 26 29 29 32 34 38 38 43 48 48 49 54 56 58 59 64 68 69 69 73 75 75 80 85 89 94 98 97 95 97 102 107 109 110 111 109 107
31 29 29 33 30 29 29 32 30 32 36 41 42 45 48 50 51 54 53 58 62 65 69 72 74 75 75 80 82 86 89 94 99 98 97 99 104 109 111 113 112 112 111 112
31 30 34 34 31 34 34 35 35 39 43 46 47 51 52 52 55 58 62 65 67 70 72 74 75 79 82 85 90 90 94 99 99 99 100 104 108 113 114 114 111 110 110 111
34 34 34 34 37 38 40 39 41 47 47 49 53 53 55 57 60 62 65 65 69 74 76 79 80 85 89 91 92 97 101 100 100 101 108 113 114 116 115 112 111 111 112 113
37 37 37 36 41 41 42 46 46 49 51 53 56 57 58 61 65 67 68 70 74 78 82 85 88 92 93 95 100 102 101 102 104 109 112 113 113 114 113 114 114 112 111 111
38 39 39 41 41 44 46 48 50 52 54 54 56 61 64 65 67 75 74 74 77 81 86 89 91 93 95 100 100 101 103 107 112 115 116 119 119 116 113 111 114 111 106 109
40 40 41 42 44 44 49 53 52 53 54 56 61 64 67 70 72 77 78 80 83 86 90 93 94 98 101 100 101 103 109 114 116 117 117 117 116 114 115 115 111 110 107 103
42 42 41 45 45 46 52 51 53 54 56 60 65 67 73 76 78 80 81 84 87 91 93 96 100 101 100 102 106 111 115 118 118 117 116 115 114 115 113 111 111 111 106 100
46 45 48 45 44 52 52 52 54 58 61 65 68 73 78 80 81 84 85 88 91 94 99 100 99 100 103 110 114 117 119 119 117 115 113 115 115 113 112 110 105 99 95 88
48 48 53 48 50 52 54 57 62 65 66 70 74 79 83 85 86 88 91 93 97 101 99 98 101 106 111 115 118 119 117 116 111 112 114 113 111 107 106 102 97 93 88 82
50 53 52 53 53 58 61 64 67 70 72 77 81 85 87 89 90 91 95 101 102 98 99 103 109 113 116 117 117 115 117 114 116 114 110 107 103 102 95 95 91 87 83 78
56 56 54 56 60 65 68 70 73 75 78 83 86 88 89 91 93 99 103 100 100 103 107 111 115 120 119 119 119 116 114 114 111 110 106 105 99 95 90 85 82 82 77 74
59 60 61 64 67 69 72 74 76 80 84 88 89 90 91 95 101 101 102 102 106 111 114 117 120 120 120 120 115 112 111 110 109 108 104 97 94 91 86 82 77 74 72 68
63 66 68 70 72 73 74 78 83 87 88 89 90 93 98 102 102 102 104 109 114 117 120 121 120 119 117 114 110 109 107 104 101 94 89 85 84 83 81 78 75 70 68 66
68 70 73 74 75 77 81 85 86 87 88 91 95 99 103 102 103 107 112 116 119 121 120 118 116 113 110 111 109 104 101 97 93 90 85 82 79 75 73 71 70 69 67 63
71 73 75 76 80 83 85 86 88 90 94 98 101 102 102 105 109 114 117 120 120 119 117 115 112 108 109 107 104 98 95 91 89 87 82 78 76 73 70 68 66 64 62 60
74 76 79 82 84 85 87 89 92 96 99 102 101 104 107 112 116 118 118 118 117 115 114 111 111 109 108 105 99 94 89 87 82 80 78 75 73 70 67 64 62 60 58 58
78 81 83 84 85 87 90 94 98 100 100 102 106 110 114 117 118 118 117 116 115 113 109 108 106 106 102 96 93 91 86 82 79 76 74 72 68 65 63 62 59 58 58 57
82 84 85 86 90 93 96 99 99 100 103 107 111 115 117 119 117 117 116 117 114 113 113 107 105 99 94 91 88 84 80 78 76 74 70 68 67 65 61 60 59 57 56 54
84 86 90 93 96 100 99 100 102 105 109 112 115 116 117 115 115 114 114 113 112 111 107 104 98 94 89 86 82 78 76 74 72 69 67 66 65 65 63 60 57 55 54 53
91 95 97 97 96 98 101 105 108 110 113 113 114 114 112 112 115 112 112 113 112 108 102 96 93 88 83 80 77 74 71 69 66 65 64 64 64 63 61 59 57 55 53 51
90 91 94 96 100 104 106 109 109 112 114 112 111 110 112 112 113 112 111 108 104 99 94 90 86 82 79 76 73 70 67 66 64 63 62 61 60 59 58 56 53 51 50 48
93 97 101 102 103 105 107 109 109 110 111 110 110 108 110 110 111 108 105 102 95 92 89 84 81 78 75 72 69 67 65 64 62 59 58 57 56 53 52 49 48 47 46 44
99 99 101 102 104 105 107 108 108 108 110 108 107 107 107 109 106 103 97 93 89 87 83 79 77 74 72 69 68 66 64 61 59 57 55 53 52 50 48 46 44 42 44 43
100 101 102 103 105 105 106 105 107 106 104 105 105 105 105 103 99 94 90 88 85 82 79 76 72 70 68 67 65 64 61 60 57 55 52 51 49 47 46 44 42 40 39 39

GFSNGP_250_spd_039.txt.gz
Wind_Speed
31 28 27 30 28 30 32 35 34 34 33 27 25 24 28 33 38 42 42 44 44 46 50 53 53 55 58 63 67 71 70 73 76 79 83 88 91 94 100 103 101 101 104 110
29 28 29 30 32 33 34 36 35 32 28 28 24 28 33 37 40 40 44 47 52 53 55 57 60 63 64 68 72 73 75 80 84 88 91 94 96 101 105 101 103 107 112 116
31 31 30 32 33 33 37 36 33 27 25 27 34 36 35 39 43 48 50 55 58 61 60 62 64 69 72 72 75 77 80 84 90 93 95 98 103 104 102 104 109 114 117 117
32 30 31 36 35 35 35 30 26 28 31 34 37 39 42 43 46 50 53 56 60 61 65 68 71 74 77 79 80 83 85 91 94 97 100 103 103 103 107 112 117 118 115 113
30 31 33 32 33 32 30 29 30 34 37 38 40 43 46 49 51 54 57 59 60 64 69 71 72 75 80 82 84 87 91 94 97 103 104 103 105 109 115 118 118 117 114 111
30 30 30 30 32 33 31 31 36 39 41 44 46 48 51 53 54 56 59 63 66 70 72 74 78 81 84 86 89 92 95 100 105 104 103 105 111 116 120 120 118 117 112 111
29 30 31 32 34 35 36 38 42 43 46 48 52 53 54 56 58 59 63 67 69 72 75 78 80 84 88 90 92 96 100 105 103 103 107 113 117 120 120 117 116 113 113 112
30 31 33 35 36 38 41 44 45 47 48 51 55 58 58 59 59 62 66 69 74 78 81 83 85 88 91 93 96 101 103 101 103 110 115 118 121 121 119 117 113 113 112 107
33 34 34 36 37 42 47 48 46 49 51 54 57 58 60 61 64 67 69 73 79 82 86 90 92 92 94 98 104 103 102 105 111 116 120 121 119 114 111 113 113 109 105 100
38 36 35 36 39 43 51 49 51 53 55 56 59 61 62 65 69 72 75 79 84 87 90 94 95 95 98 105 104 103 108 113 118 120 119 114 112 112 112 111 108 105 100 94
43 38 39 39 41 45 50 50 53 55 59 60 61 63 67 71 74 78 81 84 87 90 94 95 95 99 106 104 105 109 115 120 120 118 114 111 112 112 110 109 102 97 93 87
44 43 43 45 47 49 51 52 56 59 61 63 66 69 73 76 79 83 86 88 91 94 94 97 101 106 104 105 111 117 121 119 117 114 112 111 112 112 110 105 98 92 86 82
47 46 47 49 52 53 54 57 60 62 65 68 72 75 77 81 84 87 90 93 93 95 98 103 107 105 108 112 118 120 119 116 114 111 113 112 109 105 97 94 94 91 85 79
50 49 51 55 58 59 61 62 63 67 70 74 77 79 82 85 88 91 93 94 96 100 106 106 106 110 115 120 120 120 116 114 110 109 108 106 102 97 92 88 86 86 82 75
57 55 56 59 61 62 64 67 70 74 76 78 81 83 86 89 91 94 95 98 101 107 104 106 111 116 121 122 122 117 115 111 107 103 101 98 93 89 86 81 79 76 77 74
61 62 62 62 64 68 71 74 76 78 81 83 85 88 89 93 94 95 98 102 108 105 107 112 117 122 123 122 118 117 114 108 104 101 97 93 89 84 80 75 72 71 71 69
65 65 67 68 71 74 76 77 79 82 84 87 88 91 93 94 96 101 105 107 105 109 113 117 120 122 122 116 114 108 104 100 99 95 93 89 85 80 78 73 69 66 65 64
68 71 72 73 75 77 79 81 83 86 87 90 91 94 95 98 102 107 105 106 111 115 118 120 121 120 117 114 111 105 102 100 97 92 88 84 81 77 76 73 68 64 62 60
70 71 73 75 78 80 82 83 85 87 90 92 95 97 99 104 106 104 108 112 115 118 120 121 119 117 113 111 107 101 97 95 91 88 84 81 78 75 71 69 67 64 60 59
69 70 73 76 79 81 83 85 88 91 93 95 98 102 105 102 104 109 113 114 118 119 118 116 115 112 109 105 100 97 93 90 86 81 79 77 74 71 69 68 66 64 61 59
72 75 77 79 81 84 86 89 91 94 97 100 104 101 102 106 111 113 115 117 118 117 116 114 111 108 104 99 95 93 91 87 81 78 75 72 70 69 67 66 65 63 61 59
77 79 81 83 85 88 91 94 96 99 100 99 101 104 108 111 112 115 115 117 116 115 111 108 106 103 98 94 92 88 84 81 77 75 70 67 66 65 64 63 62 60 58 56
80 82 85 88 91 94 96 96 95 96 99 102 107 110 110 112 113 114 115 114 114 111 108 105 101 97 94 90 87 82 80 78 74 71 68 65 64 62 60 60 58 55 53 52
86 87 87 87 88 92 94 97 101 103 105 109 109 108 110 112 114 113 113 111 107 105 102 97 93 91 89 85 82 80 77 74 72 69 67 64 61 60 58 55 53 51 49 46
84 87 90 92 95 98 101 102 105 108 108 107 107 108 109 111 110 110 108 105 103 99 94 90 89 87 84 81 79 75 73 71 69 67 64 62 59 57 54 51 50 47 44 43
91 94 96 98 101 103 105 106 105 103 104 106 106 107 106 105 105 103 101 99 95 90 89 88 86 83 80 77 74 72 70 68 65 62 61 59 55 52 50 48 45 43 43 42
97 99 101 102 102 101 101 101 102 103 105 105 102 102 100 99 99 98 94 91 90 88 86 83 80 78 76 73 71 69 67 64 62 60 58 55 51 49 46 43 42 42 41 39

GFSNGP_250_spd_042.txt.gz
Wind_Speed
35 29 27 31 33 35 35 33 33 29 30 28 25 26 28 30 33 32 31 32 35 38 42 45 48 52 55 56 58 62 65 66 70 74 76 80 84 87 90 94 100 103 100 101
30 27 25 24 28 30 28 29 32 34 30 31 24 25 30 34 30 32 35 37 41 45 47 49 52 56 57 60 63 64 65 71 74 79 83 85 87 90 96 101 100 99 103 110
28 24 22 26 33 27 30 31 32 34 32 31 30 30 31 30 33 37 40 44 48 51 52 54 57 60 64 68 67 68 73 77 81 84 88 90 91 97 102 100 101 106 112 113
30 25 24 32 28 30 30 33 35 35 34 32 30 31 31 33 38 41 45 49 52 54 57 60 62 64 69 70 73 77 80 84 88 91 91 93 98 103 102 104 110 113 116 114
30 28 28 31 30 31 32 31 31 31 30 32 32 34 35 38 43 48 51 54 56 59 62 64 65 68 71 74 79 83 87 90 93 92 94 99 105 101 105 112 117 119 117 115
34 30 28 32 33 30 31 26 30 31 31 33 35 38 39 44 49 53 55 56 59 62 64 67 69 72 76 80 85 89 91 95 95 95 99 105 103 106 112 118 120 119 115 112
35 32 32 34 31 30 29 31 33 35 36 37 40 43 46 50 53 56 58 60 63 65 67 70 74 77 81 84 88 90 94 93 95 101 106 104 107 112 118 119 118 115 112 113
36 33 34 34 32 31 34 36 36 38 40 42 44 48 51 53 56 59 62 64 66 69 71 75 78 82 86 89 91 94 94 96 101 105 103 107 112 118 119 118 114 113 111 111
38 34 35 36 37 38 38 38 40 41 44 46 49 52 55 57 59 62 64 67 70 72 76 79 83 86 89 91 94 94 97 100 106 104 107 112 117 120 119 115 113 112 111 108
40 37 39 41 41 42 42 41 42 45 47 50 52 54 57 59 62 65 67 70 73 77 81 85 88 90 92 95 96 97 101 105 104 107 113 118 120 121 116 115 114 111 107 104
42 41 41 44 45 46 45 45 45 47 50 52 55 58 60 64 67 69 71 74 78 82 86 89 90 93 96 97 98 101 106 104 107 112 118 120 120 117 115 115 113 108 104 97
43 43 43 45 50 50 50 50 50 52 54 56 58 62 66 69 71 73 75 79 83 86 90 91 93 96 96 98 102 105 105 109 114 118 120 120 117 113 114 114 110 107 101 93
48 49 49 48 49 52 52 52 54 55 57 60 64 68 70 72 74 77 81 84 87 90 92 95 96 96 99 102 105 104 108 113 116 119 119 117 116 114 108 103 103 99 94 90
50 52 53 52 52 55 57 59 60 63 65 66 69 71 74 77 80 83 86 89 91 93 96 96 98 100 104 104 104 109 113 116 117 117 115 111 110 107 103 95 89 89 89 85
53 54 56 57 57 59 61 63 66 67 68 71 73 75 78 81 84 86 90 92 94 95 96 98 101 104 103 104 110 113 116 118 118 117 115 112 108 104 97 90 85 82 81 79
55 57 59 60 62 63 64 66 67 69 73 75 77 80 83 85 88 91 92 93 95 97 98 100 105 103 105 111 113 115 117 118 117 113 108 106 103 97 91 85 81 78 77 74
59 60 62 64 66 67 69 70 72 74 76 78 80 82 85 88 89 91 94 96 98 99 103 103 104 107 111 113 114 115 116 114 112 110 109 102 97 90 86 81 77 74 72 71
64 65 65 66 68 69 71 73 74 76 79 80 82 85 87 89 91 93 96 99 102 103 100 105 108 112 113 113 114 114 113 111 109 106 101 94 89 84 81 78 72 69 68 67
67 67 67 67 69 73 74 75 77 78 80 84 86 88 89 92 94 97 101 102 101 103 108 110 114 115 114 115 114 113 109 107 104 99 94 88 83 79 77 73 70 68 66 64
69 68 69 70 71 71 73 76 79 82 85 87 89 90 93 96 99 99 99 103 107 108 110 114 114 113 113 112 110 107 105 102 96 92 87 83 79 75 72 70 69 66 66 63
72 72 70 70 71 75 78 81 83 85 87 88 91 95 98 96 98 103 105 107 110 112 113 112 113 112 110 108 106 104 101 96 90 85 81 79 75 73 69 66 65 63 62 61
71 72 74 76 78 80 82 84 86 87 90 95 96 94 97 102 104 108 109 111 113 112 111 112 110 107 106 105 102 99 94 89 82 79 76 73 71 70 67 64 62 61 59 57
74 75 76 78 82 84 84 87 90 94 95 95 97 101 104 108 110 110 111 110 110 110 108 107 105 106 104 101 98 92 87 82 77 75 72 70 68 66 65 63 60 57 54 53
81 82 84 87 88 90 92 94 94 94 98 101 104 107 109 110 111 109 109 109 108 106 104 104 102 101 98 95 89 85 80 77 75 72 70 67 65 63 62 60 56 53 50 48
88 89 91 93 94 92 92 94 97 101 105 108 107 107 110 110 109 109 107 103 102 101 100 99 97 95 92 86 83 80 77 74 72 70 67 66 63 61 59 56 52 48 46 43
83 85 87 90 93 95 98 102 105 107 108 107 107 107 107 107 105 101 98 98 98 97 96 93 91 87 84 81 78 76 74 72 69 67 65 63 61 58 55 51 47 45 43 41
88 91 93 97 100 102 104 104 105 106 106 105 105 105 101 97 95 94 94 94 93 91 89 86 83 81 80 77 75 73 71 68 66 64 62 60 57 55 51 47 45 43 40 38

GFSNGP_250_spd_045.txt.gz
Wind_Speed
34 27 28 30 33 36 33 33 32 32 28 25 23 24 28 30 32 37 36 29 31 33 34 37 37 39 42 50 56 60 63 64 66 68 69 73 77 82 85 89 89 91 95 101
36 29 27 27 26 27 28 24 21 24 26 27 26 26 30 32 35 37 32 33 34 35 37 40 43 47 53 56 60 63 64 66 68 69 74 78 83 87 90 90 92 95 102 103
36 29 22 21 31 23 20 23 24 25 28 28 27 28 29 34 33 33 34 35 36 39 41 44 49 53 57 59 62 65 66 68 70 74 79 84 87 89 91 93 96 103 104 105
36 27 20 31 30 27 27 26 25 27 29 31 30 30 31 31 32 33 34 37 40 43 46 51 54 57 59 62 65 67 69 72 76 79 85 88 90 93 92 94 101 104 106 110
35 29 25 30 32 31 30 27 29 31 32 31 31 29 28 30 32 35 38 41 44 48 52 55 57 61 64 66 69 71 75 79 82 86 89 92 95 96 97 103 106 106 109 114
36 30 28 36 32 34 30 27 34 35 32 29 28 28 29 33 36 39 42 46 49 53 55 58 61 64 66 70 72 75 79 83 87 91 93 93 96 96 101 104 104 108 114 117
34 30 32 37 33 32 33 38 34 34 32 30 30 32 35 38 41 44 47 50 54 57 59 62 65 67 71 74 76 80 84 88 90 93 95 96 98 101 105 104 107 113 115 118
36 30 32 39 34 34 38 40 37 35 33 33 36 38 39 42 45 49 52 55 57 59 63 65 69 72 75 77 81 85 88 90 93 96 96 98 101 105 104 108 111 116 116 118
37 32 36 40 39 39 38 39 41 40 38 38 40 42 44 47 50 53 55 58 60 63 66 70 73 76 79 81 85 89 92 94 96 98 99 101 105 103 107 112 115 115 117 118
38 37 41 42 43 42 39 40 43 45 44 44 45 47 48 51 53 56 59 61 63 67 71 75 78 80 82 86 90 93 94 96 97 99 101 105 103 107 112 114 116 116 118 117
40 40 41 42 43 44 44 43 45 48 49 50 51 52 54 56 58 60 63 65 69 73 76 79 81 84 87 90 92 94 96 97 99 101 105 103 107 113 114 115 118 118 117 114
42 40 41 44 46 47 47 47 47 49 52 54 56 58 59 61 63 65 68 72 75 79 81 83 85 88 91 93 94 96 98 100 103 106 104 108 112 111 115 119 120 121 118 113
48 48 45 45 48 50 52 52 53 54 56 57 59 60 63 66 68 71 74 78 80 82 84 87 89 91 93 94 96 98 100 104 106 105 109 112 115 114 112 111 117 114 113 107
55 55 52 50 50 51 53 56 58 59 60 61 65 67 69 71 72 74 76 78 81 84 85 88 91 93 95 96 99 102 105 104 107 109 112 114 113 115 114 111 106 105 105 101
57 54 55 56 59 58 57 59 61 63 64 66 67 69 71 74 75 77 79 82 83 85 89 91 93 95 97 100 103 104 105 109 111 113 115 114 116 113 111 109 107 101 95 92
59 58 57 61 62 66 68 64 64 65 67 68 70 72 74 76 78 80 82 84 86 90 92 93 96 98 101 104 103 107 110 112 114 115 114 115 112 111 109 106 102 96 91 86
69 70 69 68 71 73 72 68 67 69 70 71 73 75 77 80 81 83 85 87 90 91 94 96 98 103 102 104 108 110 113 114 115 114 114 111 110 108 104 99 94 90 85 80
71 75 76 77 78 76 74 74 75 75 73 75 76 78 81 82 83 85 88 90 92 95 96 100 103 103 106 110 111 113 114 115 114 112 110 109 107 102 97 92 88 83 79 75
73 76 77 77 77 78 80 81 81 80 80 78 80 83 84 85 87 90 91 93 95 97 102 104 104 107 111 112 113 114 115 114 111 109 108 105 101 96 91 87 82 76 73 71
71 74 77 80 80 82 84 86 86 85 84 84 86 86 88 90 91 93 96 96 100 104 104 106 109 112 114 114 115 114 113 110 108 107 103 99 94 90 85 80 76 73 69 66
70 74 76 76 76 79 83 86 86 87 86 86 89 91 92 95 96 97 100 104 105 104 107 111 114 115 114 114 113 110 107 106 104 101 97 92 88 84 78 75 72 70 67 64
76 72 72 72 74 77 81 82 82 84 88 90 91 95 99 100 102 104 104 103 106 110 113 115 114 113 113 110 106 105 104 103 100 95 90 85 80 77 74 71 69 66 64 62
67 69 70 72 74 76 78 81 85 87 90 94 98 100 101 101 102 103 107 110 113 115 114 112 112 111 108 105 104 102 101 97 93 88 82 78 75 73 70 67 65 63 61 59
68 70 72 75 77 80 83 86 91 94 95 95 95 97 101 103 107 110 111 113 113 112 111 110 108 105 103 102 101 99 95 90 86 81 77 75 72 69 66 64 62 59 57 54
73 75 76 78 80 83 85 86 88 90 92 96 99 103 107 109 111 111 110 109 110 110 108 105 103 102 100 99 96 91 87 84 79 76 74 71 68 65 63 61 59 56 53 51
77 78 80 82 84 86 88 92 95 97 100 103 106 108 108 108 108 108 109 109 107 105 102 100 98 97 95 92 88 84 81 78 75 73 70 66 65 63 61 59 55 52 49 48
80 83 86 89 92 94 97 99 101 102 103 103 104 104 106 108 109 107 104 100 98 97 96 94 92 90 88 86 83 79 76 75 72 68 66 63 62 60 59 56 52 49 46 44

GFSNGP_250_spd_048.txt.gz
Wind_Speed
49 50 41 34 27 26 26 30 31 37 35 35 34 35 34 35 36 37 36 33 31 30 31 30 30 33 35 39 44 48 51 56 60 65 68 71 72 74 77 79 83 87 90 93
48 50 45 36 28 25 28 32 34 36 38 40 38 34 31 33 35 36 37 35 33 35 33 31 34 37 42 45 48 53 57 62 66 69 71 73 75 76 78 82 86 90 93 96
46 53 44 37 34 25 22 21 25 27 30 28 31 33 31 31 34 36 38 38 38 35 34 35 39 42 45 48 53 58 62 66 68 71 74 76 77 79 82 86 90 93 97 100
46 52 44 41 34 29 22 22 23 27 31 33 33 33 32 33 35 37 38 38 36 36 37 41 43 46 49 54 59 63 66 68 72 75 77 77 79 83 87 90 94 97 99 102
44 50 42 42 41 31 26 25 28 30 32 35 32 30 32 32 33 35 36 35 35 38 41 44 47 51 56 60 63 66 69 72 75 75 78 81 84 88 91 95 99 101 103 105
42 44 42 44 41 34 31 30 34 30 30 32 32 31 32 33 33 33 33 36 40 42 45 49 53 57 60 63 66 69 72 73 76 78 81 85 89 92 96 99 100 102 104 109
47 46 40 40 42 34 32 40 33 32 33 36 34 34 34 35 36 36 39 41 43 46 49 53 57 60 63 66 69 72 74 76 79 83 86 90 94 96 98 100 102 104 107 107
47 47 41 43 40 38 35 38 36 33 35 37 39 39 38 37 39 41 42 44 48 51 54 57 60 63 66 69 72 75 77 81 85 88 91 94 96 97 100 101 104 107 105 110
47 44 44 44 43 41 39 36 38 39 39 39 41 42 44 44 44 45 47 51 54 56 58 61 63 66 70 73 76 78 82 85 88 91 94 96 97 100 102 106 107 106 112 114
44 42 44 46 45 41 38 37 36 41 43 42 43 44 46 48 51 53 54 56 59 61 63 66 69 72 74 76 79 83 85 88 91 94 96 97 100 102 105 106 108 113 115 114
43 46 51 47 43 42 40 38 35 38 43 47 49 49 49 51 54 56 59 61 63 66 69 71 73 75 78 80 83 85 88 91 94 95 97 100 102 106 105 111 115 116 118 116
46 50 47 46 45 43 42 42 43 43 45 47 50 53 55 57 59 61 64 66 68 71 72 75 78 80 83 85 86 88 92 94 95 97 100 101 106 104 111 114 117 122 121 120
48 51 53 52 53 52 46 50 50 50 49 49 51 55 58 61 65 67 69 71 73 76 78 80 81 82 84 86 89 91 93 95 98 101 102 107 107 108 111 114 119 120 121 118
51 55 58 61 56 54 51 55 56 57 57 57 60 60 60 64 67 70 72 74 76 79 81 83 84 85 87 89 91 92 95 98 101 104 109 109 110 114 115 113 111 110 114 116
55 57 64 60 55 60 62 62 59 58 61 63 65 64 68 72 73 72 73 75 77 79 82 84 86 88 90 92 94 97 100 102 106 111 110 111 116 117 117 114 111 108 107 110
61 66 65 64 60 59 59 65 67 67 69 71 73 74 76 77 80 79 80 82 83 85 86 88 89 91 93 95 98 102 104 108 111 110 113 117 119 117 114 111 109 109 108 101
58 63 67 70 67 67 69 71 73 75 78 82 83 83 83 85 84 85 87 88 90 91 93 91 90 95 97 100 104 107 110 111 111 115 118 119 115 113 110 108 108 106 100 94
59 63 69 73 78 76 73 73 75 79 83 84 84 84 83 84 86 88 91 91 93 96 95 94 97 98 101 106 108 109 110 112 115 118 117 114 112 109 108 107 105 98 93 89
68 67 67 69 71 72 73 79 83 83 80 82 83 84 84 85 87 86 87 91 92 94 96 98 99 103 107 107 108 110 113 117 117 115 114 111 109 108 106 102 97 91 86 82
67 66 68 67 69 74 80 81 81 83 86 83 82 81 81 81 84 85 86 89 93 96 98 102 106 105 105 109 112 115 116 114 114 114 112 109 108 106 101 95 90 85 80 77
77 72 71 70 77 79 82 85 85 82 81 81 80 79 79 81 83 86 89 92 96 101 102 102 104 107 111 114 115 114 113 114 114 112 109 107 105 100 94 89 84 80 77 72
81 77 78 77 81 83 81 80 77 75 75 76 78 80 82 85 87 89 93 97 99 100 104 107 110 113 114 114 113 114 115 113 110 107 106 102 97 91 87 83 79 76 72 69
83 82 82 79 82 77 75 72 72 74 78 80 83 85 86 88 91 94 97 99 103 106 110 112 113 112 113 114 113 113 111 109 107 103 99 93 88 84 81 79 76 71 68 65
84 86 82 84 81 76 76 79 81 82 84 87 89 90 90 93 97 99 103 105 109 111 112 111 111 111 112 112 111 110 107 103 100 96 91 87 82 80 78 74 71 68 64 60
82 86 86 86 81 81 82 83 84 87 90 92 93 94 97 99 102 104 107 110 109 108 109 109 109 110 110 108 105 102 98 96 91 88 85 82 79 76 72 70 67 63 59 56
82 83 84 85 85 85 86 89 91 92 94 95 97 99 101 104 106 107 106 105 105 106 107 108 107 105 102 100 98 95 91 89 86 83 80 77 74 71 69 65 62 59 56 52
81 83 85 86 87 89 90 91 93 95 98 101 103 103 102 100 101 101 102 104 105 105 105 102 100 98 97 94 92 88 86 84 81 78 75 72 69 67 64 61 58 56 53 50

GFSNGP_250_spd_051.txt.gz
Wind_Speed
38 38 37 40 42 40 31 27 29 36 33 39 37 40 41 41 42 43 43 42 36 32 34 34 33 36 37 38 41 41 43 48 52 55 58 62 65 68 72 77 80 84 87 88
38 39 39 38 43 39 34 28 27 32 33 38 37 38 38 39 40 42 42 39 38 37 35 35 37 39 41 43 45 47 49 52 55 59 61 64 68 73 77 79 83 86 87 89
39 40 38 38 40 37 32 31 25 24 32 32 31 31 31 31 32 37 39 40 41 41 42 42 42 43 43 44 47 49 52 55 58 61 64 68 73 77 78 82 85 86 89 93
42 38 34 43 44 37 35 33 25 28 31 28 26 28 29 30 30 32 35 39 43 44 45 46 46 45 44 45 47 51 54 58 62 65 69 73 76 78 83 83 85 88 92 96
39 35 34 37 46 38 38 32 33 28 28 28 27 27 29 29 31 35 38 39 41 42 44 45 45 45 46 49 52 56 60 64 66 69 73 76 79 82 82 84 87 91 95 98
39 37 33 41 41 44 40 36 35 26 30 31 31 30 31 34 37 37 37 38 39 41 42 44 46 48 50 54 58 62 65 67 70 72 76 79 81 82 84 87 91 95 98 101
40 35 34 35 46 44 44 38 36 31 31 34 36 36 36 36 39 40 39 39 40 42 44 46 48 52 55 59 62 65 67 69 73 78 80 81 83 85 88 91 95 98 100 102
42 40 33 45 42 47 45 42 34 32 33 37 39 40 39 39 40 42 44 45 46 47 48 50 53 56 59 61 64 68 72 75 77 78 81 83 87 90 92 96 98 100 101 103
49 43 40 45 47 48 46 40 35 36 36 38 40 40 41 42 43 44 45 47 50 52 53 55 57 60 63 66 69 72 74 76 79 81 84 88 90 93 96 98 98 101 103 104
54 48 48 45 47 51 45 42 41 40 37 38 40 41 40 39 41 44 47 50 52 54 56 58 61 64 67 69 71 73 76 78 81 84 87 90 92 95 96 98 101 104 107 110
55 52 51 50 55 48 47 45 44 45 40 39 42 43 41 42 43 45 47 50 53 54 55 57 61 64 67 69 71 73 76 79 82 85 89 91 94 95 98 101 105 109 113 113
53 54 52 51 52 47 48 50 50 49 48 46 46 47 46 47 48 50 51 54 57 58 61 66 66 67 69 72 76 79 81 84 87 91 93 93 95 99 102 106 112 115 114 116
54 54 54 51 50 48 53 54 54 54 52 53 54 54 56 57 54 55 58 62 65 66 69 73 74 77 79 81 84 87 89 92 93 95 95 96 99 101 105 112 113 114 117 116
55 56 54 53 50 49 52 57 59 58 53 50 53 55 59 64 64 66 68 71 74 78 81 83 86 87 87 87 89 91 95 96 95 97 98 99 101 105 108 106 111 115 117 115
58 58 57 57 53 52 54 57 61 64 61 62 64 65 64 63 68 73 76 79 81 84 85 85 85 88 89 89 92 95 93 94 97 97 100 102 105 104 108 111 112 111 110 110
60 61 60 57 57 56 57 59 61 62 64 67 68 73 75 74 77 76 77 84 87 87 85 87 88 88 89 90 90 91 94 96 97 99 102 103 107 110 112 113 111 109 104 98
59 61 60 60 60 62 62 65 67 64 65 70 72 74 78 82 81 82 85 89 87 87 88 88 89 89 89 89 90 93 95 97 100 102 104 109 111 113 114 111 108 104 100 96
61 59 57 58 60 61 65 70 69 69 72 72 74 75 76 78 83 89 91 92 91 89 87 88 87 88 89 91 93 95 98 101 103 107 110 112 114 113 111 108 106 101 97 94
58 54 55 61 62 62 67 68 71 71 71 69 69 74 78 80 87 90 89 87 85 82 83 86 89 91 93 95 96 99 103 107 109 112 114 115 113 111 110 106 102 98 95 91
49 53 53 56 65 70 70 71 73 75 76 77 82 82 83 88 89 90 87 85 85 86 88 89 92 95 98 99 101 105 108 110 113 115 115 113 112 111 107 103 100 96 90 85
58 51 54 63 67 73 75 77 80 80 81 89 92 91 92 95 95 92 90 90 91 92 92 95 98 100 100 102 106 109 112 114 115 113 112 112 110 106 102 100 96 89 84 78
63 65 70 73 75 79 81 84 84 87 92 97 100 98 97 100 101 98 95 94 95 96 99 101 101 103 106 109 112 114 114 111 110 111 109 108 105 102 99 93 88 83 78 75
69 69 73 77 79 83 88 92 94 96 94 92 93 95 100 105 105 99 99 100 100 102 103 105 107 110 112 112 111 110 109 109 109 108 105 102 99 96 91 86 82 78 75 72
70 76 82 86 88 91 95 95 98 98 101 104 106 106 105 103 102 101 102 103 104 105 107 109 109 108 108 109 109 108 108 107 105 102 99 96 92 88 84 81 78 75 71 68
85 86 87 90 93 94 97 100 104 109 105 104 106 105 103 102 102 102 104 106 107 108 108 107 107 108 108 108 107 106 104 101 99 97 94 91 87 83 80 77 74 71 68 64
88 90 94 97 98 99 102 99 98 100 104 104 102 101 101 101 103 104 105 106 107 106 107 106 107 107 105 104 103 101 99 96 94 91 89 86 83 80 77 73 69 66 63 59
92 95 98 99 100 100 100 99 100 99 98 98 99 100 102 103 104 105 105 105 105 106 106 105 103 101 100 97 96 94 92 90 88 86 84 81 78 75 71 67 64 61 59 56

GFSNGP_250_spd_054.txt.gz
Wind_Speed
35 31 27 26 33 32 28 25 24 28 26 35 36 35 34 37 42 43 44 45 47 44 41 41 44 45 44 44 42 43 45 46 48 49 52 55 58 63 67 71 74 76 81 82
35 33 30 31 35 33 27 26 27 27 28 27 30 37 40 42 43 44 45 46 46 45 41 41 42 44 44 44 44 46 49 51 53 56 58 61 64 68 71 74 76 79 83 87
37 36 31 33 35 36 29 27 31 27 30 26 27 29 33 35 34 35 37 37 37 38 41 41 41 44 46 47 47 48 51 53 55 58 61 63 67 70 72 76 79 83 87 90
38 38 30 37 33 37 28 29 30 29 25 24 28 29 27 28 28 31 33 33 36 39 41 43 45 46 48 49 49 49 50 51 52 55 60 64 68 71 75 79 83 87 89 92
40 38 34 36 36 36 31 32 29 27 31 29 27 29 31 31 32 33 35 38 38 37 37 41 43 44 45 46 47 49 51 53 56 60 64 67 71 75 79 82 85 88 91 93
43 38 32 44 40 37 33 35 31 30 30 31 29 29 33 36 36 36 37 37 38 38 40 40 41 43 45 48 50 52 55 58 61 64 67 71 73 77 79 82 85 86 87 90
45 39 36 44 38 44 36 40 36 35 34 35 33 29 33 35 38 40 41 40 40 40 41 43 45 46 48 50 52 55 57 60 63 66 69 72 75 77 79 79 81 84 87 92
47 41 36 47 42 41 40 36 40 38 39 39 37 35 34 38 39 40 42 42 42 42 43 43 45 48 50 52 55 57 60 62 65 68 71 73 74 76 79 82 86 90 94 98
47 42 43 43 44 41 40 44 41 40 45 44 38 38 37 37 39 42 43 43 43 43 44 44 46 48 50 53 56 60 60 63 67 70 73 75 78 81 85 89 93 96 100 103
49 45 48 47 47 45 46 42 42 45 46 46 46 44 38 37 39 43 46 47 46 45 46 47 48 49 53 57 60 63 67 71 76 79 83 86 88 89 92 95 98 101 104 103
49 49 52 52 50 49 45 43 44 45 48 50 50 52 44 41 41 42 44 46 47 49 51 52 53 57 61 66 70 73 76 78 81 83 86 88 90 92 95 98 101 101 101 103
52 55 57 53 52 48 46 47 47 48 51 53 54 54 51 48 47 46 45 47 48 52 57 58 60 62 63 65 72 75 78 81 83 84 86 88 91 94 99 100 100 100 101 103
55 58 58 54 53 53 52 49 49 52 54 55 57 57 55 53 55 52 55 60 62 63 66 69 68 69 71 77 80 85 88 89 88 90 91 95 97 97 97 97 101 104 104 107
59 60 59 58 59 58 53 51 53 55 56 59 59 60 60 58 58 57 63 65 66 67 70 71 75 78 78 83 88 91 94 94 92 93 95 95 94 96 98 101 103 105 108 112
63 64 60 59 59 60 60 58 56 58 59 61 62 63 61 61 60 64 70 71 71 70 72 74 74 75 80 86 91 91 90 89 88 89 90 93 96 98 101 103 104 108 111 113
65 64 61 62 63 64 64 62 59 60 63 64 65 63 63 66 70 73 76 76 76 73 72 74 79 82 88 91 92 92 90 89 90 92 94 95 98 101 102 104 107 110 110 110
66 64 63 65 65 66 64 63 63 65 68 70 70 72 74 71 73 77 79 80 79 72 78 81 86 91 95 96 97 100 103 99 99 98 97 100 103 103 106 108 110 109 110 110
69 66 63 64 66 66 64 63 65 69 73 75 74 74 75 74 76 79 77 82 86 84 86 90 94 98 98 100 104 107 105 100 100 100 102 105 107 108 110 109 110 111 109 108
68 67 65 65 65 66 67 68 72 73 73 73 75 79 80 82 81 79 79 84 87 90 93 97 100 100 102 107 112 109 107 105 104 106 107 108 111 110 110 110 110 109 106 101
71 70 70 70 69 69 72 75 74 74 74 76 77 80 81 81 82 81 85 93 96 100 104 107 108 112 114 112 114 113 108 107 108 109 111 111 111 111 111 110 107 103 98 94
73 71 70 70 70 73 73 75 74 73 75 74 81 78 80 84 88 89 95 100 103 105 110 116 116 117 118 121 117 112 111 110 111 111 112 111 111 111 108 105 101 96 92 88
77 73 72 71 72 70 71 69 72 72 74 79 82 84 88 88 91 96 101 105 108 110 113 119 118 115 117 116 114 113 113 112 112 112 112 112 110 106 102 97 94 91 87 83
65 69 70 70 72 68 70 69 76 81 83 84 90 91 94 95 100 105 108 111 113 118 121 121 119 117 115 115 114 114 113 112 112 112 109 106 102 99 96 93 89 86 82 79
65 64 66 69 76 75 75 79 82 88 90 90 92 95 98 103 104 107 112 115 115 121 121 121 120 116 115 114 114 112 112 112 109 105 102 99 97 94 91 88 85 82 79 75
72 74 73 74 77 80 81 83 86 89 94 97 99 100 103 107 112 114 118 119 121 118 117 116 115 113 112 111 112 111 109 105 102 99 97 93 91 89 87 83 81 77 73 69
77 81 81 84 87 88 90 91 92 94 97 101 103 105 109 113 116 115 115 114 116 113 112 111 109 109 110 108 106 102 98 96 94 91 90 88 86 83 81 77 74 71 68 66
85 87 87 89 92 92 94 95 96 99 101 104 106 109 114 116 114 112 112 110 108 107 106 106 105 103 101 97 95 93 91 89 87 85 83 82 79 76 74 72 69 66 63 61

GFSNGP_250_spd_057.txt.gz
Wind_Speed
53 46 45 42 37 32 29 32 29 31 26 24 20 24 23 26 34 37 38 40 43 43 45 46 49 50 49 47 46 46 45 46 48 50 51 51 53 56 59 61 66 69 72 76
55 50 46 44 40 33 29 31 30 29 27 24 26 22 25 27 32 38 41 44 46 48 50 49 48 48 46 46 45 45 43 45 49 51 54 56 57 59 61 64 67 72 75 77
55 53 47 41 44 35 33 32 30 31 27 25 25 26 28 30 29 30 35 41 44 46 47 47 41 39 39 39 44 46 47 49 50 49 50 51 53 55 59 61 65 69 73 77
57 52 45 44 43 39 35 33 34 34 27 25 24 27 28 26 29 31 32 34 36 37 38 39 39 38 38 40 41 43 45 46 46 47 50 52 54 57 61 65 69 72 77 81
54 51 45 44 45 43 37 35 37 36 26 29 27 30 32 28 29 31 35 37 38 39 39 40 40 41 42 42 42 43 44 46 48 50 53 55 58 61 65 69 72 75 78 81
53 50 41 47 50 47 41 36 44 31 31 32 30 32 34 34 28 31 32 37 40 42 43 43 42 43 44 44 45 46 47 48 51 53 55 57 61 65 67 70 72 76 80 85
50 46 44 51 53 49 42 49 42 33 34 33 32 33 36 36 32 35 35 37 39 42 44 46 47 47 47 47 47 48 49 50 51 52 54 57 61 65 70 75 79 84 89 93
52 50 45 53 57 46 48 47 43 38 35 38 34 38 35 38 37 37 37 38 38 40 42 44 47 50 51 52 52 51 49 49 52 56 60 64 68 73 77 81 85 88 90 92
54 49 50 54 56 51 50 47 43 43 40 41 39 40 40 45 45 44 41 41 38 38 39 41 43 44 47 48 48 51 54 55 59 62 63 65 74 79 83 86 89 92 95 97
55 51 51 53 57 54 54 50 45 44 43 45 43 41 43 48 52 53 50 50 48 46 46 46 46 46 47 49 51 53 56 60 61 66 71 73 78 83 89 91 90 91 91 91
54 53 56 55 61 63 55 51 50 50 48 49 48 46 46 49 55 57 58 57 55 52 52 50 51 53 55 58 59 62 65 66 69 71 72 76 82 85 87 90 92 95 95 95
60 61 62 60 63 62 60 56 54 55 52 51 50 49 51 54 58 61 62 63 62 59 61 58 60 62 62 64 66 66 67 68 68 72 77 83 88 91 91 93 99 100 97 97
64 63 60 62 64 65 61 60 56 58 54 54 55 54 55 57 61 63 65 67 71 69 69 69 66 68 70 72 74 72 75 75 77 81 85 88 91 90 95 103 105 101 99 99
65 62 65 67 68 67 62 64 59 60 59 59 58 58 59 61 62 64 67 73 73 73 73 74 70 74 77 74 77 78 77 77 81 87 88 90 95 100 105 103 106 102 98 102
69 67 68 69 69 67 65 68 68 63 63 64 63 62 63 64 64 65 71 75 77 80 80 78 78 80 81 83 82 81 82 83 84 91 95 96 100 109 106 104 107 107 105 105
72 69 69 70 69 71 71 71 70 71 72 71 66 65 67 68 67 70 75 75 78 77 79 81 84 86 88 89 86 82 83 84 89 95 98 102 108 113 113 114 111 109 110 110
72 74 74 74 72 71 73 72 71 74 76 76 73 72 72 72 73 75 77 79 82 82 84 87 92 92 91 94 90 83 86 92 100 106 112 114 115 118 119 117 116 115 113 112
74 76 76 76 74 73 73 74 76 76 76 77 78 77 75 75 78 79 80 84 86 89 92 95 94 94 92 90 90 96 102 108 112 115 118 119 125 126 124 117 116 116 114 115
76 79 80 80 78 76 74 74 76 77 78 79 78 79 78 81 82 85 87 90 92 94 94 94 92 93 94 97 97 102 108 113 116 120 124 125 127 124 120 120 117 117 116 113
74 76 76 76 76 76 74 74 75 76 77 79 81 82 84 84 86 89 93 94 95 91 94 97 97 97 100 100 108 112 114 117 121 125 125 127 124 123 121 120 119 117 114 111
76 76 77 77 77 77 78 78 80 79 82 81 83 83 85 89 90 90 87 91 91 94 98 97 97 101 106 111 111 113 117 121 126 128 128 130 128 122 121 120 117 114 110 105
79 80 81 81 82 82 83 84 83 84 85 85 86 86 88 89 89 92 95 97 98 101 98 104 108 110 114 115 116 120 124 128 130 130 130 126 124 122 119 116 112 107 104 99
84 85 84 86 87 87 86 86 86 87 87 85 83 83 83 84 87 88 90 95 100 103 108 114 116 116 116 121 125 128 130 129 127 127 127 122 121 118 114 109 105 101 97 94
90 89 89 89 88 88 84 84 86 84 83 83 85 83 87 89 93 95 97 101 105 110 112 111 115 120 124 125 127 129 128 125 124 122 120 118 114 109 104 101 98 95 91 87
89 86 83 80 83 80 81 82 84 85 83 85 87 90 92 94 96 99 102 105 108 112 117 120 122 123 125 125 121 120 118 117 117 117 114 107 103 100 97 94 92 88 84 81
78 79 81 82 83 84 85 86 87 88 90 92 94 94 96 99 101 105 110 112 116 116 116 117 117 118 119 118 114 112 113 112 109 104 101 98 95 94 91 87 83 80 77 73
80 81 82 83 82 84 87 89 90 93 94 96 100 103 106 108 110 112 113 115 113 112 111 112 111 110 111 112 110 108 103 99 96 95 93 91 89 86 83 79 76 72 70 67

GFSNGP_250_spd_060.txt.gz
Wind_Speed
58 46 46 45 45 41 42 43 39 35 30 31 31 26 23 25 25 32 34 37 37 35 34 35 38 41 43 43 43 43 41 44 44 49 52 51 51 52 55 56 57 58 58 58
60 47 44 53 50 44 45 46 41 36 33 32 32 27 21 21 27 27 30 34 38 38 38 43 41 46 43 42 43 45 46 42 46 47 50 51 53 52 51 50 50 51 53 57
55 49 47 50 48 50 46 48 43 37 37 35 31 30 26 27 23 26 26 30 32 34 27 31 33 37 38 39 39 40 42 45 45 47 47 48 48 48 50 51 53 56 59 62
63 57 43 44 48 52 48 49 44 39 38 36 31 35 28 28 26 27 27 27 26 28 29 29 38 39 44 43 42 42 44 47 48 49 50 51 52 53 56 57 58 61 62 64
70 62 49 47 53 54 52 52 47 43 40 38 34 36 33 32 30 28 28 25 28 29 30 32 36 38 41 44 45 46 47 48 49 50 52 54 55 56 56 58 59 61 65 67
70 61 53 49 58 53 55 46 52 48 42 38 38 39 37 34 34 30 30 31 33 33 34 35 35 36 37 40 42 44 47 49 52 54 55 57 58 59 58 59 63 68 71 75
64 61 53 51 57 58 51 55 54 50 45 41 42 41 39 37 38 36 34 36 36 38 42 41 40 43 42 42 44 45 46 46 48 49 49 52 56 59 60 64 67 71 72 73
64 64 52 52 59 57 56 62 54 51 46 42 42 44 42 40 39 40 39 45 51 51 51 49 48 49 49 47 46 47 48 51 51 53 56 57 60 63 65 67 67 68 71 78
67 62 61 57 61 61 61 56 57 55 51 48 45 48 48 45 43 43 42 43 50 54 56 58 57 54 56 55 54 53 55 55 58 59 61 61 65 65 68 71 71 75 79 85
65 63 59 60 61 66 62 59 59 55 51 51 50 52 50 48 47 46 47 47 49 55 56 58 61 63 61 59 64 65 66 67 66 64 65 65 66 71 75 77 77 79 83 88
62 62 63 62 64 67 65 59 57 57 52 56 55 56 53 54 54 52 50 52 54 57 59 62 64 65 67 69 71 70 69 73 70 70 72 75 75 77 79 79 81 85 87 90
61 63 66 65 66 64 63 62 61 59 57 59 60 59 61 60 58 55 54 57 59 59 64 67 66 68 69 73 69 75 79 75 76 78 80 77 79 82 88 87 85 85 88 93
66 71 69 65 69 69 64 66 65 61 61 60 64 65 64 62 61 59 58 59 61 63 67 70 69 72 75 74 76 75 77 78 80 83 84 85 85 91 91 91 86 88 94 99
67 70 70 72 70 70 70 69 69 66 65 66 69 67 66 66 67 65 63 63 66 69 70 72 72 74 77 78 79 81 83 84 86 90 91 95 94 92 92 89 90 95 100 103
69 67 68 72 73 73 73 73 74 73 70 70 69 68 68 69 70 71 68 70 72 75 76 77 79 79 80 81 83 85 86 89 92 96 96 96 98 95 91 92 92 99 108 111
69 68 67 69 70 71 73 74 72 70 71 71 73 75 72 73 74 75 76 77 78 81 83 82 83 85 85 87 88 90 91 95 97 100 99 98 98 97 98 105 109 115 120 126
73 73 71 71 71 70 69 70 72 74 77 77 78 79 79 79 80 83 83 84 86 87 86 89 88 89 90 93 92 92 97 98 98 100 99 104 104 101 110 116 120 124 128 130
72 74 73 75 75 74 74 75 76 79 80 80 82 82 83 83 85 87 87 89 91 91 91 92 93 91 95 95 97 98 99 101 104 106 107 108 106 107 117 122 126 130 132 132
73 75 76 77 78 79 81 82 82 82 81 80 83 85 85 87 88 91 91 88 89 90 92 96 97 99 99 100 101 100 103 103 105 106 106 110 113 118 123 128 131 131 134 135
74 75 76 78 78 79 81 82 82 82 83 85 86 87 90 92 93 91 91 90 92 93 96 96 99 99 99 100 100 102 101 103 104 106 112 117 118 122 129 130 134 137 138 131
76 75 75 77 78 79 79 80 83 85 87 88 89 90 90 91 91 93 94 95 98 98 99 98 99 98 97 99 101 102 103 106 110 114 117 120 125 128 132 135 137 133 129 128
77 77 77 78 80 81 82 83 84 85 87 87 89 91 91 95 96 98 99 101 100 99 97 96 94 98 99 101 104 107 110 111 115 118 124 127 130 132 135 134 129 126 124 122
78 79 79 80 82 84 85 87 87 89 89 91 92 94 95 96 99 102 104 100 96 94 92 94 96 100 102 105 108 111 113 119 124 127 129 130 132 132 128 125 124 121 115 111
84 85 86 87 88 89 90 91 92 95 96 98 99 99 101 103 104 99 97 96 92 92 95 99 102 105 108 111 114 119 124 127 126 126 127 129 126 123 122 117 112 109 106 102
86 87 89 91 94 96 96 97 97 98 100 101 100 101 101 97 97 97 96 97 99 101 103 103 106 110 114 116 119 120 121 123 125 124 122 121 117 113 109 105 103 100 97 93
85 90 93 94 95 96 97 97 99 99 100 99 97 97 95 94 96 97 97 98 101 102 104 108 111 113 114 114 115 116 116 116 116 115 113 109 105 102 100 97 94 91 87 84
83 87 87 88 90 92 95 97 98 98 95 93 93 94 95 96 97 98 101 104 105 107 107 107 109 110 110 111 112 112 110 107 105 103 101 97 96 94 91 88 84 81 79 76

GFSNGP_250_spd_063.txt.gz
Wind_Speed
66 65 65 60 55 51 43 36 33 34 38 39 36 31 26 25 29 26 25 27 26 29 27 22 24 29 32 35 36 42 52 55 57 56 57 61 65 66 65 68 70 73 71 69
71 67 64 62 57 53 44 42 37 39 38 44 40 35 29 26 29 28 27 21 22 22 27 29 21 20 27 37 44 48 53 58 60 61 63 60 66 68 64 63 65 64 64 64
76 68 66 62 55 54 42 44 40 45 45 45 41 38 32 30 28 29 28 28 21 19 16 25 27 25 26 27 30 33 38 42 44 47 50 53 54 55 56 58 60 61 61 62
82 70 72 54 54 56 52 41 42 47 46 45 42 42 35 34 32 30 33 28 27 19 16 21 28 31 32 35 39 44 46 46 46 47 48 50 52 53 55 56 59 60 62 63
81 75 65 57 53 58 55 42 40 46 47 46 44 44 39 37 38 35 36 36 30 26 24 17 19 27 28 30 33 33 34 36 40 44 48 50 52 53 54 56 58 60 61 63
83 79 71 60 57 61 59 40 41 49 53 50 47 45 46 42 43 38 38 39 37 35 32 30 33 32 30 32 35 38 38 38 39 41 43 45 47 48 50 56 59 60 62 63
85 78 71 63 61 64 61 47 54 51 52 53 49 47 48 46 46 42 41 41 40 39 37 36 39 44 48 49 48 48 47 45 45 48 50 52 52 52 54 58 58 59 58 62
75 76 71 67 66 65 57 61 64 57 52 54 52 48 51 51 49 47 46 43 43 42 41 41 42 45 49 52 54 54 56 55 53 54 55 57 59 61 64 61 64 65 66 69
65 68 73 67 64 64 65 63 63 61 52 55 56 53 50 56 57 54 51 47 46 48 47 47 48 51 51 54 57 58 60 59 62 63 63 64 64 64 69 70 72 72 73 77
66 66 66 65 65 65 64 64 61 60 55 57 58 57 52 55 57 54 55 52 48 51 54 52 52 54 56 58 58 60 64 66 66 66 69 69 70 71 74 75 76 79 79 81
62 62 66 63 62 64 65 70 66 60 56 57 57 58 56 59 56 53 54 57 57 58 59 58 59 60 59 59 62 62 66 70 72 71 72 74 75 77 80 80 82 84 86 89
63 70 68 66 66 63 66 72 76 68 64 60 60 62 61 59 59 57 59 59 63 65 65 62 63 65 65 66 67 71 73 74 77 77 77 80 83 84 85 85 85 86 91 92
70 73 72 69 66 66 67 68 70 69 64 65 65 61 60 63 61 61 62 63 65 69 70 70 69 70 69 71 73 75 76 77 82 82 84 86 87 87 90 89 90 92 95 96
70 67 65 64 60 61 67 68 66 64 67 66 68 64 64 64 64 66 68 68 70 73 75 73 72 74 75 76 78 79 82 88 88 89 89 90 91 93 95 95 94 96 97 98
67 63 59 58 62 64 66 69 69 69 70 70 71 70 68 68 69 72 73 74 75 74 74 76 79 80 79 81 83 87 88 91 91 92 92 95 96 97 98 97 97 96 100 100
68 64 62 62 63 66 70 68 69 70 71 72 72 72 72 74 76 77 77 76 75 77 79 77 77 79 89 90 91 91 94 94 96 97 99 99 100 102 101 99 99 99 102 103
68 64 65 65 65 67 69 72 74 74 76 77 77 78 80 80 80 78 77 78 77 71 73 84 92 89 93 93 95 96 98 98 99 102 105 104 104 103 99 100 101 105 106 105
70 70 71 68 66 66 68 70 71 71 73 74 75 76 75 75 75 75 74 79 84 88 90 91 92 93 95 97 98 101 102 105 107 109 110 109 106 102 102 103 106 108 111 116
73 74 72 71 70 69 71 72 73 74 74 74 75 75 77 80 83 85 87 89 92 95 95 94 96 98 101 104 105 103 105 106 108 112 107 100 97 100 103 106 109 112 118 122
72 72 72 72 73 73 74 76 77 78 79 82 83 84 86 88 90 92 94 95 97 97 97 99 101 102 102 101 103 107 106 109 110 103 99 98 101 103 106 111 114 119 122 126
72 73 72 73 74 75 77 78 80 82 83 85 87 89 90 92 93 94 95 96 96 97 98 98 99 99 102 104 105 106 108 104 100 100 101 103 106 110 115 117 120 123 126 129
73 73 74 75 76 78 80 81 82 84 85 88 89 90 91 92 92 94 95 97 98 99 100 102 103 105 108 108 107 106 101 99 101 104 106 110 113 116 118 121 123 125 125 128
73 74 77 78 80 82 83 84 86 87 88 89 90 91 92 94 95 96 98 100 101 103 105 106 108 109 107 105 100 99 102 104 107 109 111 113 116 119 121 122 123 125 126 124
75 77 79 81 82 83 85 86 88 90 92 93 94 95 96 98 99 100 102 104 106 107 107 107 105 103 101 101 102 103 104 106 109 112 114 117 119 119 121 121 119 118 116 113
75 78 81 83 86 88 89 90 92 93 94 96 97 100 101 102 104 103 104 106 108 107 104 102 103 103 102 104 106 108 108 109 111 114 116 117 118 117 114 112 110 107 103 100
76 78 81 83 85 88 89 91 93 95 96 97 98 99 100 101 102 102 101 102 104 104 104 103 102 102 104 104 105 107 109 111 112 113 113 112 111 109 105 102 99 95 92 90
75 78 79 82 86 87 87 88 91 92 92 94 96 96 97 97 97 97 97 97 97 97 98 100 101 103 105 106 108 109 109 108 107 106 104 101 98 96 93 90 89 86 83 81

GFSNGP_250_spd_066.txt.gz
Wind_Speed
72 72 75 71 61 62 60 53 53 45 44 43 41 30 27 25 24 24 21 25 24 22 22 16 14 19 25 31 36 40 42 44 46 50 47 44 52 59 63 64 67 71 76 81
77 72 75 75 69 65 63 55 50 46 43 47 41 40 25 27 27 27 24 23 25 30 24 20 16 14 20 32 38 40 46 43 45 54 56 60 63 64 65 70 73 75 80 79
78 77 78 83 68 65 63 56 54 50 46 55 50 37 31 29 30 32 29 26 22 27 30 24 20 19 18 21 29 32 39 45 49 54 60 64 69 73 76 74 73 72 70 72
84 83 88 67 72 67 66 62 61 53 52 53 53 48 35 34 31 34 34 29 28 27 29 28 25 20 20 22 23 27 31 36 41 50 57 60 65 65 63 58 61 64 65 65
82 88 83 77 72 69 68 65 62 59 55 57 55 55 37 35 37 33 38 34 33 33 30 30 30 29 24 21 20 21 24 28 32 37 42 46 48 50 49 51 54 55 54 56
89 82 83 78 80 79 76 66 64 61 61 61 58 48 36 38 40 43 40 40 37 36 39 33 32 33 33 31 29 29 32 34 37 38 41 42 43 44 47 48 50 51 55 59
78 89 81 81 78 75 77 61 66 66 59 58 56 52 36 37 44 47 44 46 41 40 42 41 38 38 37 37 36 37 39 40 42 44 45 47 50 52 53 54 55 58 61 63
79 84 81 83 84 87 79 73 70 67 64 61 55 55 43 41 41 44 47 48 47 44 46 45 49 46 44 44 44 44 45 46 46 47 49 53 57 59 58 60 64 65 67 70
77 80 80 77 69 61 68 74 74 72 68 62 58 57 52 51 50 48 50 53 53 48 51 50 49 51 51 53 52 51 52 53 54 56 55 56 60 62 63 64 68 71 73 75
79 79 82 75 71 69 68 72 76 76 70 64 62 63 62 60 57 57 55 59 61 56 52 51 52 53 55 58 60 61 59 59 61 62 62 63 65 66 69 71 74 77 77 79
79 83 83 77 65 65 62 69 75 73 70 65 64 60 60 60 62 59 55 60 62 58 59 57 56 58 63 61 62 64 66 67 68 67 69 71 72 73 75 78 79 82 82 83
85 87 76 60 56 54 57 67 71 71 70 66 65 64 61 59 63 63 60 60 61 61 62 62 61 63 65 65 68 70 71 72 71 70 73 75 79 78 79 83 87 89 90 92
73 67 60 59 65 61 58 60 65 66 68 71 70 64 64 61 56 60 64 64 65 66 65 67 66 68 68 69 73 75 78 76 75 77 76 80 80 85 87 90 92 95 96 98
63 61 66 66 65 59 59 58 59 64 68 69 67 64 67 69 70 68 69 70 71 69 71 72 72 72 72 74 77 80 80 81 83 80 82 85 88 89 94 96 97 99 100 103
62 69 66 66 59 57 62 63 65 69 67 64 61 61 64 68 71 74 75 75 73 72 73 74 75 77 77 79 81 83 84 85 82 86 89 93 95 98 100 101 102 103 106 107
60 65 66 65 61 60 63 66 67 69 68 65 63 60 61 65 65 68 70 71 73 75 76 78 78 80 82 86 87 87 81 84 93 94 98 100 100 103 103 104 105 106 109 110
63 65 65 60 58 59 62 66 68 69 69 67 68 69 70 71 73 72 71 73 76 78 81 82 85 87 87 84 77 83 92 95 97 101 103 103 104 105 107 106 109 112 112 109
60 62 63 61 61 61 64 67 70 69 68 68 69 68 69 70 73 76 77 79 82 84 83 81 79 78 81 86 92 96 98 101 103 104 104 104 106 107 108 111 113 113 109 103
61 62 62 65 66 68 67 67 68 68 68 69 71 72 74 76 77 79 80 80 79 80 83 85 87 90 93 96 100 102 104 104 105 105 105 106 108 111 112 112 111 107 105 104
60 61 65 66 67 69 68 68 69 71 71 72 75 75 75 77 78 79 82 85 88 89 91 93 95 98 101 103 104 105 105 105 105 105 107 109 112 113 114 112 107 103 104 105
57 59 62 66 69 70 73 74 73 73 72 76 79 79 80 82 84 86 89 90 92 95 97 99 101 102 104 105 105 104 104 104 107 109 111 114 115 115 109 107 105 104 106 108
57 60 65 69 72 74 75 77 77 78 80 82 84 85 86 88 89 91 93 95 97 99 101 102 102 104 105 104 105 106 107 109 110 112 112 111 108 106 105 105 106 108 110 112
59 63 68 71 73 75 76 80 82 84 85 87 88 89 90 92 94 96 97 98 100 102 103 105 105 104 105 107 108 108 109 109 108 109 108 106 105 105 107 108 109 111 112 111
60 64 69 72 76 79 81 82 83 84 86 89 90 91 93 94 96 97 99 102 103 104 104 104 107 107 108 109 108 109 108 107 105 105 105 106 108 107 107 109 109 108 107 107
62 65 69 72 75 78 81 82 84 86 88 90 91 92 94 96 98 99 99 100 102 104 105 106 106 106 105 105 104 104 103 103 104 106 107 107 108 108 106 104 102 100 98 96
62 65 67 68 71 74 76 79 82 84 87 89 90 91 92 94 96 97 98 100 101 102 102 102 102 101 102 102 101 102 103 106 105 105 104 103 101 100 98 96 94 92 89 87
62 65 68 70 73 75 77 79 80 82 84 85 87 89 90 92 92 93 95 95 94 96 98 100 100 100 100 101 102 101 101 101 99 99 97 95 94 92 90 87 85 84 83 81

GFSNGP_250_spd_069.txt.gz
Wind_Speed
72 77 78 71 69 68 65 62 56 51 48 49 44 41 38 31 37 35 29 24 21 24 24 27 27 23 18 16 29 34 37 42 44 43 37 40 43 46 53 52 58 56 55 59
76 74 75 74 68 67 67 63 55 50 50 52 49 48 41 35 39 38 31 29 25 26 25 24 25 27 23 20 21 23 36 38 43 46 49 50 54 55 55 59 60 63 63 70
80 81 83 80 61 67 62 59 58 54 53 58 54 51 41 39 42 37 35 32 31 31 29 26 26 23 25 23 23 26 29 34 38 43 48 54 56 60 57 63 65 68 71 72
78 85 87 72 78 73 70 66 63 60 57 59 56 51 47 42 46 46 46 37 34 36 37 33 29 28 26 25 23 26 28 30 34 38 43 50 50 52 56 58 60 62 61 60
79 81 82 77 78 82 80 70 68 64 62 61 57 54 52 49 43 52 51 42 39 35 39 40 35 33 33 34 29 27 27 29 32 35 37 38 42 43 44 45 48 51 51 52
74 80 79 68 74 81 84 76 73 72 69 61 61 56 49 50 44 50 54 54 47 44 39 37 40 40 38 38 38 36 37 36 38 38 39 40 40 42 44 46 49 50 51 52
74 77 63 72 76 77 80 68 81 80 72 67 62 56 57 57 54 51 57 58 48 46 47 47 45 43 44 43 42 44 44 45 45 44 45 46 46 47 49 51 53 55 57 58
73 70 69 68 70 74 78 76 76 79 77 73 66 67 64 59 55 54 56 59 59 46 48 50 49 47 46 47 45 49 49 50 52 53 55 56 55 55 56 58 60 61 63 65
72 71 75 73 67 62 75 77 80 78 72 70 68 67 63 58 57 59 57 60 61 56 52 53 51 51 51 54 53 54 55 56 57 58 60 61 59 59 61 63 64 65 67 69
72 68 74 72 70 70 76 74 75 79 78 74 71 68 63 62 62 62 58 60 60 57 58 55 53 55 59 59 60 61 59 60 62 61 64 65 64 66 67 69 70 70 72 77
66 68 69 75 74 77 77 71 69 67 70 72 74 73 73 68 65 66 64 60 64 61 60 60 60 62 62 63 61 62 63 66 66 67 68 69 70 72 74 76 76 77 76 84
61 66 66 72 73 77 74 73 69 64 63 62 62 70 72 74 73 68 65 64 64 68 66 64 64 65 68 67 66 67 70 70 70 69 70 72 75 77 80 82 81 80 83 87
59 64 67 70 80 78 74 72 64 65 63 61 57 59 66 71 73 72 69 67 65 67 66 68 68 69 71 73 72 72 73 76 75 73 75 77 81 83 84 85 84 84 89 88
59 65 70 72 76 78 75 71 68 61 62 60 60 62 66 68 71 71 69 69 67 66 69 68 66 67 68 69 73 77 80 79 78 78 79 82 85 87 87 87 89 90 92 97
58 64 66 72 78 78 78 73 68 65 62 57 60 64 66 72 74 73 72 71 70 71 73 73 74 76 78 79 83 83 81 79 82 83 85 86 88 90 93 89 92 97 102 106
53 58 65 70 80 81 79 75 67 62 59 52 54 58 64 69 71 70 70 71 69 70 73 74 75 75 76 78 80 80 82 84 84 86 88 92 94 89 89 96 99 106 108 108
55 56 60 63 72 73 76 77 71 65 62 60 62 64 67 71 72 71 72 72 74 76 76 79 81 79 79 82 86 88 86 86 88 93 94 86 88 95 99 103 107 109 110 112
54 52 51 58 65 75 77 74 79 71 70 70 70 67 67 72 73 72 73 72 73 75 74 76 78 79 77 79 85 88 91 93 89 85 91 97 99 103 105 109 110 112 113 114
47 51 52 53 57 65 69 71 72 68 65 68 72 69 71 75 79 80 82 81 83 83 82 83 82 83 86 90 88 84 86 91 95 99 101 104 106 108 110 111 113 115 116 116
50 51 54 54 55 60 65 66 64 65 65 70 69 69 73 76 80 82 82 85 85 87 88 90 91 91 91 90 92 94 97 100 103 104 107 109 110 111 113 115 115 115 115 115
48 49 49 49 51 55 60 64 67 70 71 70 68 72 74 77 80 82 85 87 89 92 94 94 95 95 96 97 99 101 103 105 107 109 110 111 113 115 114 115 116 115 114 116
47 49 49 46 49 52 58 62 66 70 73 72 74 78 79 81 83 85 87 89 91 94 95 95 97 99 99 101 102 104 107 109 110 111 112 113 113 114 116 116 115 115 115 113
43 46 47 47 50 53 57 62 67 72 75 76 80 83 84 85 86 88 90 91 93 95 96 97 98 100 103 105 106 108 109 110 111 111 112 113 114 114 115 116 115 112 111 111
44 46 48 50 52 56 60 64 68 74 77 81 84 85 86 87 89 89 91 93 95 96 96 98 100 102 105 105 106 108 109 109 110 111 112 112 112 112 113 111 110 110 109 106
44 48 51 53 55 59 62 65 69 71 74 78 82 84 87 88 89 91 91 92 94 96 98 99 101 102 104 105 106 106 108 109 109 108 109 110 109 107 107 107 107 104 100 97
44 47 51 55 58 60 62 65 67 70 73 76 78 80 82 84 86 88 90 92 94 96 98 99 100 101 102 103 104 104 103 104 106 105 104 104 104 104 102 100 97 93 89 87
44 49 53 56 59 61 64 67 69 72 74 76 78 80 82 83 85 87 89 90 92 93 95 96 97 97 97 99 100 101 100 100 100 100 99 99 97 94 92 88 85 84 82 81

GFSNGP_250_spd_072.txt.gz
Wind_Speed
88 85 83 80 75 75 68 64 64 57 56 54 58 52 44 44 38 39 35 38 37 34 30 29 28 27 26 24 19 18 28 41 44 41 37 36 39 39 40 44 44 48 52 56
88 88 86 85 78 82 76 69 61 58 53 52 59 57 49 46 44 40 40 40 41 41 35 32 30 30 31 27 26 23 19 19 36 44 43 42 42 46 45 48 49 53 51 53
82 85 85 77 82 80 72 65 59 55 58 57 57 60 54 51 47 44 42 42 45 44 43 40 33 31 32 31 29 28 28 26 21 22 32 41 44 46 50 51 52 53 57 59
88 89 89 79 83 82 78 68 63 57 56 58 59 62 59 57 53 48 44 48 48 50 46 42 39 38 36 35 32 31 30 30 30 28 28 31 34 38 42 43 43 44 45 45
79 82 77 75 80 83 83 72 70 67 64 58 60 62 61 60 56 53 48 51 51 47 52 53 49 45 40 42 38 35 35 35 33 34 33 33 34 36 38 41 43 46 48 49
73 74 73 73 81 82 79 66 77 71 68 66 63 59 63 68 61 60 55 54 55 54 49 52 56 54 45 40 42 43 41 40 40 41 41 42 43 43 45 47 49 51 53 55
70 73 66 68 76 79 74 68 76 75 70 69 68 66 69 71 66 64 57 58 54 52 49 50 55 59 60 55 52 49 45 45 46 46 48 48 50 51 52 54 55 54 57 56
70 69 65 70 70 73 72 72 75 75 71 69 71 73 73 71 70 68 63 62 58 55 56 55 56 61 63 63 60 60 55 54 52 50 50 52 53 55 56 58 60 62 63 62
68 69 69 68 70 71 72 69 71 72 73 73 71 73 73 72 72 71 68 63 64 62 62 58 59 62 67 68 67 59 61 60 58 56 57 59 62 63 62 62 64 66 69 69
63 65 66 66 70 74 75 70 67 65 70 76 73 70 71 71 73 72 70 72 70 67 60 59 62 64 69 70 70 70 67 62 63 65 66 66 65 66 66 66 66 69 71 73
59 64 61 65 68 72 73 70 62 67 72 74 74 74 74 71 70 70 70 71 71 67 64 65 65 62 67 71 72 70 69 69 67 68 70 71 71 71 72 72 74 75 76 75
54 57 60 66 66 66 72 72 70 67 73 76 76 77 73 71 74 74 73 71 72 70 69 69 68 69 68 71 74 73 71 72 74 76 77 78 78 77 78 77 77 80 80 82
53 54 59 62 62 62 70 72 72 70 71 77 79 73 67 71 72 72 71 74 74 73 73 70 70 74 73 72 73 76 79 82 81 82 83 83 81 76 76 81 85 84 85 87
46 50 53 60 62 63 68 72 78 78 77 77 79 76 68 64 64 65 67 71 77 80 81 80 79 76 75 76 74 75 78 81 84 86 84 84 82 81 84 89 90 89 89 91
48 51 52 57 63 64 65 70 78 78 78 77 77 75 69 65 61 60 59 64 68 72 74 75 78 79 81 81 79 77 79 81 83 86 88 89 92 91 91 89 89 90 93 93
47 50 53 56 57 60 61 65 70 75 74 70 73 71 67 60 60 57 56 61 64 68 73 76 79 80 83 80 82 83 83 85 88 90 91 92 91 91 91 92 96 98 97 100
49 50 52 48 49 52 56 60 66 72 73 76 69 68 68 63 60 63 61 63 67 70 74 79 82 84 85 83 84 85 85 86 88 90 89 91 94 94 97 99 99 100 101 98
49 51 50 50 51 52 54 57 59 63 68 69 70 72 68 68 64 64 69 72 73 76 77 79 79 81 82 85 87 87 87 89 92 93 92 94 97 99 99 100 103 101 101 107
47 47 47 48 49 50 51 55 59 63 65 68 69 70 70 71 70 70 69 70 73 76 80 82 84 86 86 87 88 89 89 90 92 94 97 99 103 103 106 105 103 106 110 113
43 43 43 45 48 51 52 54 58 62 63 64 66 69 66 68 73 73 74 76 79 80 83 84 87 90 90 90 89 90 91 96 100 102 103 105 107 110 108 110 112 114 115 116
41 43 46 50 53 54 54 56 57 59 61 63 65 66 68 72 75 76 77 79 84 87 88 90 97 96 94 95 96 98 99 104 106 106 108 110 113 113 114 115 115 114 116 119
44 45 47 49 51 51 49 49 51 54 58 60 63 67 70 72 75 81 84 85 87 90 94 96 96 98 98 98 98 99 101 105 107 109 110 111 112 114 114 113 114 116 118 120
38 40 44 47 49 48 48 50 51 53 57 60 63 65 65 68 73 77 79 83 86 90 93 94 95 96 97 99 101 102 103 105 105 106 108 108 108 109 111 113 116 116 118 119
37 41 44 46 48 49 47 47 49 51 54 57 60 63 66 68 71 74 77 81 86 87 89 92 94 95 94 96 98 99 99 101 102 103 104 107 109 110 110 113 116 116 113 113
34 36 37 39 42 43 46 47 48 49 52 56 60 63 66 68 72 74 77 80 83 85 88 90 91 90 90 92 94 96 97 98 99 102 103 104 107 111 111 109 109 110 108 106
35 37 39 41 43 45 46 49 51 53 55 56 59 61 64 68 72 75 78 80 83 85 86 88 89 90 91 92 93 95 97 97 99 102 104 104 103 104 105 104 103 102 99 94
39 41 43 45 48 50 52 53 56 57 59 60 62 64 66 68 71 74 76 79 81 83 86 87 89 90 91 92 93 95 96 96 96 97 99 100 99 99 98 95 92 89 87 86

GFSNGP_250_spd_075.txt.gz
Wind_Speed
73 72 71 73 73 69 67 62 56 56 56 55 55 58 58 52 47 47 46 46 46 43 38 35 38 36 32 25 25 22 22 21 22 20 26 32 36 35 37 41 44 43 46 47
75 74 77 78 78 80 79 75 70 69 63 60 60 59 59 55 51 45 50 48 52 47 42 41 43 41 41 35 32 30 27 27 23 21 19 23 32 34 33 35 42 44 46 44
83 84 83 81 85 85 85 81 76 75 69 65 63 60 58 58 60 54 51 54 52 52 49 46 45 43 44 44 39 35 35 32 31 29 25 22 19 19 23 29 29 31 34 36
91 94 91 84 89 86 86 83 83 80 74 66 63 61 57 56 58 58 52 53 56 54 55 53 48 45 45 46 43 44 41 42 37 34 34 32 29 27 26 27 28 30 32 34
94 95 90 89 92 94 90 89 86 79 75 72 68 62 56 60 66 63 64 56 58 57 57 57 54 50 48 45 48 49 47 46 44 41 39 39 39 37 37 38 38 38 40 42
89 92 90 89 92 93 94 83 87 86 83 80 74 69 64 65 64 65 68 62 59 60 57 59 58 56 53 51 49 49 51 51 51 47 45 47 47 46 46 46 48 49 49 50
80 77 77 78 82 87 90 86 84 87 85 81 76 70 70 70 70 67 66 66 64 61 61 59 61 59 59 57 54 53 51 51 53 51 49 50 50 50 52 53 54 56 56 58
71 72 71 70 72 79 79 77 76 78 79 76 73 71 71 74 74 72 70 67 66 67 66 65 65 65 62 61 56 56 52 52 57 59 61 63 64 60 61 59 59 58 60 62
67 70 70 71 69 73 74 74 72 73 76 77 75 74 73 74 75 75 74 73 69 67 70 71 70 65 63 65 63 60 59 58 59 63 63 65 66 68 66 68 68 67 69 69
66 69 71 69 68 68 72 72 73 70 72 73 76 76 75 77 76 75 75 76 74 72 73 72 70 70 70 66 66 64 64 65 63 64 69 71 72 73 75 75 75 76 75 76
61 65 66 67 65 65 69 70 72 73 70 70 72 74 76 78 79 78 76 76 77 77 76 73 73 75 72 70 68 68 68 69 71 69 70 72 74 77 78 78 78 79 81 83
59 62 65 66 62 61 63 67 70 74 73 70 71 73 73 77 79 80 79 78 76 77 79 78 77 75 76 73 72 72 74 74 75 73 73 74 74 77 79 81 83 85 89 90
54 57 58 60 60 57 59 64 67 69 72 70 70 73 75 76 76 76 78 80 80 78 76 75 76 72 72 76 75 74 75 79 80 80 80 80 81 81 83 85 85 87 90 90
51 54 55 57 58 59 56 56 62 66 69 70 67 71 71 74 75 78 76 77 79 80 85 81 81 74 71 76 81 78 82 85 87 88 84 84 86 87 87 88 90 93 95 96
52 54 57 57 53 56 57 56 58 59 63 66 67 69 70 72 76 77 76 74 77 72 73 76 80 81 79 83 88 86 88 92 92 88 89 90 93 90 91 92 94 94 96 100
57 54 55 55 52 49 49 51 57 57 56 56 60 63 68 70 66 71 75 72 72 65 68 72 74 78 80 85 88 89 91 94 96 96 97 98 94 94 96 95 95 99 100 101
52 47 43 46 52 46 47 52 56 53 50 51 56 58 60 64 64 66 69 75 75 74 73 71 70 71 74 77 83 88 88 93 94 95 95 94 94 95 96 100 101 100 101 101
50 47 49 53 49 49 49 50 51 50 50 51 54 56 58 60 64 65 69 73 75 78 76 72 71 73 76 77 76 78 83 87 90 93 96 99 102 102 104 102 101 102 105 107
47 47 49 50 49 49 50 49 49 48 49 51 52 54 56 58 62 68 69 71 77 81 78 73 75 76 77 79 82 84 87 91 95 98 101 104 106 107 104 104 106 109 110 109
40 44 44 45 44 46 48 47 47 46 48 50 51 54 57 59 62 65 67 66 70 75 73 77 77 78 80 84 88 91 92 97 100 103 107 107 105 105 106 107 108 109 111 112
32 32 33 34 36 39 41 43 45 46 48 51 54 56 57 58 60 62 65 67 69 73 71 75 80 81 83 85 90 92 95 98 98 100 101 104 106 106 108 111 112 114 112 114
26 27 30 33 35 37 40 44 46 48 50 51 51 51 53 56 59 60 63 64 66 70 73 77 76 79 83 87 91 94 97 102 104 105 106 107 107 109 111 112 114 113 113 112
30 31 32 34 38 41 44 46 47 48 48 49 49 52 54 55 58 60 63 65 67 70 72 72 75 82 87 89 90 94 97 99 101 103 104 104 104 105 107 108 108 108 108 106
32 34 36 38 39 41 42 44 46 47 48 49 51 53 54 56 56 60 62 64 66 68 69 70 73 77 79 81 82 85 87 88 92 95 96 96 96 98 99 100 100 100 103 105
34 36 39 41 43 45 46 47 49 50 49 49 49 50 50 50 51 53 55 57 59 61 63 66 69 72 74 77 79 80 81 83 85 88 89 90 92 93 94 96 98 99 99 100
35 37 39 41 43 44 46 47 48 48 49 49 49 50 51 51 52 53 56 58 60 62 64 66 68 70 72 74 76 78 80 82 85 86 87 89 91 91 92 93 94 94 94 94
39 42 43 44 46 47 48 49 50 51 51 53 54 54 54 55 56 57 59 60 62 63 65 67 69 71 73 75 77 79 81 83 84 85 85 86 88 88 88 88 88 87 87 85

GFSNGP_250_spd_081.txt.gz
Wind_Speed
71 67 61 56 60 59 61 64 62 60 57 58 57 58 58 54 55 52 47 44 47 50 51 50 50 47 43 44 36 36 36 37 34 27 28 29 28 25 23 22 22 23 36 46
68 65 66 66 64 60 65 64 63 64 62 63 60 53 57 58 55 52 52 53 55 55 54 50 46 48 49 44 42 40 39 42 38 37 35 32 33 32 29 30 29 28 30 30
75 73 73 71 74 71 68 65 65 63 61 58 60 56 56 56 54 51 53 58 59 59 58 56 55 56 54 53 52 41 44 45 41 42 43 39 38 39 34 35 35 32 34 33
77 75 73 70 72 67 60 61 62 62 60 56 55 54 55 53 57 61 63 66 64 61 55 55 55 57 61 59 57 51 47 49 49 45 46 45 42 43 41 39 41 40 40 40
74 79 78 76 75 76 77 81 74 72 71 69 67 70 69 66 66 66 69 71 71 70 68 66 67 66 66 61 61 54 58 52 53 52 50 48 48 51 48 46 43 41 42 44
82 80 79 85 80 79 84 88 82 80 80 79 80 82 83 80 79 81 81 82 81 80 78 77 76 75 71 68 61 54 53 54 55 53 53 55 52 49 52 52 52 52 51 51
90 89 86 88 89 90 89 93 87 86 87 86 87 87 87 87 88 87 86 85 85 85 83 84 84 80 78 71 62 59 58 58 57 57 58 58 56 54 56 55 56 55 57 55
91 89 90 93 95 96 98 98 97 94 92 88 88 90 91 93 93 93 92 90 88 88 89 89 90 84 75 69 65 62 64 64 65 65 63 63 61 57 58 58 60 63 63 60
97 95 95 97 96 96 96 96 97 98 97 98 99 96 97 96 95 96 97 96 96 96 93 93 88 86 84 80 73 73 69 71 72 72 72 70 67 64 61 62 65 67 68 69
96 100 102 104 104 103 104 103 104 104 101 98 98 98 98 99 101 102 101 101 100 99 96 94 93 92 90 86 84 80 76 76 78 76 76 75 75 72 70 71 72 71 71 71
89 94 90 91 90 91 91 90 91 90 88 88 89 91 92 92 91 90 90 90 89 88 86 86 86 85 85 83 82 83 82 79 78 78 76 74 74 76 77 78 77 78 78 78
76 76 80 80 79 82 82 83 83 82 82 82 82 83 84 84 84 84 83 83 83 82 81 81 78 77 78 79 79 80 79 80 79 79 80 79 80 80 77 76 78 80 83 82
72 74 74 74 73 77 76 74 76 77 78 78 79 81 81 80 80 80 80 79 77 76 76 77 77 75 73 72 75 81 80 80 81 83 85 85 87 88 90 89 89 89 87 87
65 67 68 70 70 73 74 74 74 75 76 76 77 75 76 77 78 76 75 75 74 72 73 72 71 73 74 73 76 80 76 78 78 80 80 80 84 90 93 94 95 96 96 96
64 64 66 68 70 70 70 71 72 73 74 75 74 75 75 74 73 72 70 69 70 68 68 70 72 73 73 75 76 76 76 76 76 81 76 73 84 89 94 91 93 96 97 93
62 62 63 64 65 67 68 69 69 71 73 73 73 74 74 73 72 69 65 62 65 65 63 65 67 69 72 75 75 77 77 78 77 77 79 86 87 92 93 92 92 96 99 97
58 58 59 60 61 63 64 67 67 66 65 64 63 60 59 58 54 53 56 60 62 64 60 61 64 68 69 71 72 76 80 81 80 82 81 85 91 92 97 98 98 99 100 101
51 52 53 56 59 62 65 63 61 59 55 51 48 48 45 50 53 56 58 59 59 59 57 58 61 63 65 67 72 75 79 82 84 87 89 90 95 97 98 99 101 102 103 105
48 51 55 58 59 59 56 51 50 49 48 49 52 52 52 57 55 55 57 57 57 56 55 55 57 59 62 64 68 72 75 78 83 87 91 95 98 100 102 103 104 106 108 110
58 58 59 58 55 54 55 56 56 55 54 54 54 54 56 56 55 56 56 56 55 54 55 57 59 60 59 61 64 69 73 77 80 82 84 87 91 93 96 98 99 102 104 106
55 57 59 59 57 53 50 49 48 49 50 50 50 51 52 53 54 55 56 56 54 54 55 57 58 60 61 62 63 66 70 75 78 80 82 85 89 93 96 99 102 104 106 107
41 43 44 44 45 46 46 45 46 46 46 46 47 49 50 51 52 53 53 54 55 57 58 59 60 62 63 64 65 67 69 72 76 80 83 85 87 90 94 97 99 103 104 105
34 35 36 38 39 40 39 41 41 42 43 44 45 45 46 48 49 50 52 54 55 56 57 58 59 61 62 64 66 69 72 75 78 80 82 84 85 88 90 92 94 96 98 99
33 34 35 37 38 39 39 40 41 41 42 43 44 46 47 48 49 50 52 53 56 58 59 60 62 63 65 66 68 71 73 74 76 78 80 82 83 84 86 87 88 90 91 92
36 36 37 37 38 39 40 41 42 42 43 43 44 45 46 48 49 51 53 54 55 56 58 59 60 62 63 65 66 68 68 69 71 72 73 75 77 79 80 82 83 85 86 88
38 40 41 42 43 43 44 45 45 45 46 46 46 47 48 49 50 51 52 53 54 55 57 58 59 60 62 63 65 66 68 69 71 72 73 75 76 78 79 80 81 82 83 83
45 47 48 49 50 51 52 52 52 52 52 52 53 53 53 53 53 53 54 55 56 57 58 58 59 60 62 63 64 66 67 68 69 70 71 72 73 73 74 74 74 75 75 75

GFSNGP_250_spd_087.txt.gz
Wind_Speed
59 56 51 57 59 50 50 53 52 52 52 53 57 59 59 59 52 48 45 46 44 42 43 44 43 43 45 43 45 44 42 41 37 36 39 40 40 37 26 31 35 37 36 34
65 62 56 62 56 53 57 56 57 57 59 61 61 61 59 59 51 49 50 50 47 49 48 49 48 47 45 46 46 44 43 42 44 46 46 46 45 44 40 42 42 43 43 46
70 69 60 58 59 61 59 63 62 68 69 64 67 69 60 54 52 52 51 48 47 48 53 54 52 49 50 52 51 50 49 47 46 49 49 50 52 49 45 49 51 49 46 50
73 75 64 63 60 59 62 64 62 60 55 59 63 66 61 57 57 59 58 54 49 51 56 59 56 55 54 57 56 54 51 53 51 52 51 57 55 53 55 62 60 60 59 54
71 78 71 64 61 63 62 65 67 59 57 61 60 61 58 57 58 60 57 53 52 56 60 63 63 58 58 54 55 53 53 55 55 59 59 49 54 59 66 64 65 65 65 63
76 70 78 77 69 67 67 71 61 61 64 65 61 60 63 66 63 63 62 58 54 55 64 61 60 60 60 63 63 63 56 48 47 48 58 64 61 67 69 70 71 74 72 63
76 75 67 78 79 74 75 70 64 65 67 67 68 65 69 67 65 62 63 67 66 65 65 67 67 68 64 63 58 58 60 64 69 72 73 72 72 66 65 67 70 70 69 64
78 78 72 73 76 81 80 71 63 64 68 70 71 72 68 67 68 68 68 70 69 71 69 70 70 72 71 72 73 75 76 76 79 81 81 83 87 85 75 73 75 76 73 71
78 82 83 82 80 79 78 74 66 65 67 69 72 75 72 78 77 75 74 76 78 76 74 78 78 80 80 81 83 84 86 88 89 91 93 93 96 95 93 87 82 78 74 74
82 80 81 88 85 85 85 86 82 77 73 71 73 76 78 80 80 81 82 81 80 80 81 83 84 85 87 91 91 95 98 100 100 101 104 104 103 98 95 95 96 91 87 87
87 83 84 84 88 91 93 95 91 89 86 85 83 84 84 86 85 85 87 88 90 91 91 94 94 97 101 104 104 103 103 105 108 108 107 106 103 104 105 102 99 97 94 89
85 89 89 86 89 92 98 95 93 93 91 93 93 90 90 93 96 97 98 98 99 99 100 99 102 103 103 105 107 110 111 112 110 108 105 101 97 93 91 90 89 87 85 83
81 89 92 92 92 93 90 90 94 95 95 97 98 98 99 99 100 102 103 103 104 105 107 107 108 110 111 111 108 105 104 103 97 96 94 92 88 82 83 87 79 78 77 77
76 81 86 93 93 94 92 91 92 93 96 97 98 99 98 99 101 103 105 106 107 107 109 108 107 107 106 101 98 96 95 93 90 88 88 86 84 79 79 86 77 75 67 62
64 72 79 85 91 95 97 97 98 97 98 99 100 102 103 105 106 107 107 108 108 107 105 103 100 97 95 92 88 88 87 86 85 83 82 82 81 78 77 82 80 79 74 77
61 64 69 76 81 85 91 96 98 101 102 102 102 102 102 101 101 99 98 97 96 95 94 93 90 89 88 86 84 82 81 81 81 81 82 81 80 77 75 77 82 83 83 85
59 62 65 66 69 74 80 83 85 88 91 93 94 94 93 92 92 91 90 88 87 87 87 86 85 84 82 80 78 75 73 74 74 77 75 78 78 78 78 77 79 83 85 86
53 57 61 65 68 70 72 74 75 76 77 79 81 82 82 82 83 83 84 83 83 83 83 81 81 78 76 74 74 73 73 74 73 75 71 72 74 74 75 76 78 81 85 88
47 50 53 57 61 64 67 70 73 74 75 77 78 78 78 80 81 80 80 79 76 71 70 68 71 74 73 71 71 70 72 70 69 69 69 69 70 69 67 70 74 77 83 87
49 51 55 58 62 64 66 68 70 72 73 75 75 75 75 73 71 68 65 64 63 65 68 69 73 75 74 71 69 69 69 69 67 68 67 65 66 69 68 67 70 72 76 80
49 51 53 55 58 60 63 64 64 65 65 66 65 65 64 63 62 61 61 61 60 59 60 59 61 64 66 65 65 64 65 65 65 65 66 66 67 67 68 67 68 72 74 76
43 45 47 49 51 53 54 55 57 58 59 59 60 59 59 57 57 56 55 55 55 55 55 54 54 55 57 58 59 59 59 60 61 62 63 64 65 66 68 69 71 72 74 76
44 47 49 50 50 52 52 53 54 55 55 55 55 55 55 55 55 56 56 56 56 57 58 58 57 57 56 55 56 57 58 58 59 60 62 63 65 67 68 70 71 74 76 77
40 43 45 47 49 51 52 53 54 54 54 54 56 57 57 58 59 59 60 60 60 60 61 60 60 60 59 59 59 59 59 60 61 62 63 64 65 67 68 71 72 74 76 77
42 44 46 48 50 51 51 53 53 54 54 55 55 55 55 55 55 56 56 56 56 57 57 58 59 59 59 59 60 60 61 61 62 63 65 66 67 68 69 70 71 71 72 73
46 47 49 50 51 51 52 52 52 52 52 52 52 52 52 52 51 51 51 51 51 51 51 52 52 52 52 54 55 56 58 59 60 61 61 63 64 65 66 68 69 71 72 73
51 51 51 51 51 50 49 50 48 47 49 47 46 47 48 47 47 48 49 50 50 51 51 52 52 53 54 55 56 57 58 59 61 62 63 65 66 68 69 70 71 71 71 71

GFSNGP_250_spd_090.txt.gz
Wind_Speed
48 51 57 57 50 49 49 45 51 60 58 54 43 40 39 49 52 44 39 41 41 39 40 41 40 39 36 38 37 38 38 38 39 40 39 40 39 39 40 38 36 35 39 36
52 55 64 62 55 50 52 49 54 60 59 59 54 49 48 46 47 47 48 43 44 44 42 42 42 41 42 41 41 42 42 42 41 41 42 42 41 43 44 44 43 42 47 47
57 58 65 66 57 49 51 53 60 64 63 61 64 60 60 55 53 58 51 46 45 48 45 46 43 43 45 45 45 46 47 47 44 45 42 42 46 47 47 47 48 51 50 51
60 59 64 69 62 55 51 61 62 59 64 64 64 63 63 60 63 60 56 52 54 53 51 52 50 49 48 47 48 52 53 53 52 50 49 49 46 46 48 50 50 50 48 51
65 61 69 67 66 59 54 61 63 62 62 64 64 67 65 61 62 60 57 54 55 56 55 54 53 53 54 51 52 53 56 59 57 59 58 57 54 55 55 52 52 49 55 55
67 64 67 72 74 65 60 63 64 62 61 62 64 65 63 62 65 68 68 67 64 64 62 58 56 53 52 53 53 56 59 61 60 60 62 59 58 59 61 54 50 55 59 58
70 66 64 75 72 70 67 63 68 66 65 66 68 68 68 69 70 70 65 62 61 61 62 61 57 57 57 55 56 56 57 58 60 59 60 66 66 54 48 55 64 68 71 69
69 69 65 69 75 76 68 66 71 74 71 71 71 70 71 69 68 66 65 61 60 61 63 67 68 68 66 65 65 66 65 65 64 65 66 60 60 65 67 72 74 78 81 82
66 72 68 70 68 75 75 73 75 76 74 72 70 71 74 74 73 71 67 67 67 66 69 68 68 67 69 67 69 73 74 74 65 68 74 73 74 77 80 82 85 86 90 94
61 75 73 72 70 72 78 80 78 78 74 72 72 72 74 77 75 73 75 75 75 74 74 74 70 71 73 73 75 77 76 75 76 78 80 81 82 86 90 91 94 103 101 99
63 66 78 76 72 73 75 80 86 86 82 79 79 78 78 79 77 79 78 77 80 81 81 81 79 79 79 80 83 84 84 85 84 84 87 89 92 95 97 100 102 104 104 106
64 66 76 83 80 78 78 80 82 85 85 88 88 86 84 85 81 79 78 79 82 82 83 85 85 84 84 86 87 89 91 91 92 95 96 100 104 102 106 110 112 114 116 114
61 69 73 83 90 86 84 87 86 86 84 80 79 81 85 85 88 85 83 83 84 84 85 87 89 91 92 93 95 98 100 102 105 106 108 110 111 113 115 115 112 107 100 98
63 68 73 76 80 91 91 88 87 88 88 88 87 87 89 92 92 93 95 96 96 97 98 99 100 102 101 103 105 108 109 108 108 110 112 112 110 109 109 103 101 97 94 91
57 60 64 69 73 76 83 88 87 87 86 88 89 91 96 99 100 100 101 104 105 106 108 107 105 106 109 110 109 108 107 108 109 108 107 104 101 99 98 96 96 96 92 90
53 57 60 64 65 71 78 85 93 96 93 92 93 95 96 96 97 99 101 103 103 103 106 109 110 108 105 104 106 107 105 104 101 98 96 95 94 93 93 92 92 92 91 89
53 55 59 63 66 68 70 76 82 85 88 93 97 97 96 95 96 97 98 99 100 101 101 102 101 100 102 104 101 98 96 94 94 93 92 91 89 88 88 88 89 88 89 88
49 50 53 58 62 66 69 70 72 75 80 83 87 88 89 89 89 90 92 94 94 94 93 93 91 90 90 89 90 90 90 89 88 87 86 85 84 83 83 82 81 80 81 79
44 48 51 53 57 61 64 68 70 73 74 75 77 79 80 82 83 83 84 83 82 82 82 83 83 84 84 85 85 83 82 82 80 79 75 75 75 73 74 73 73 72 70 71
43 47 50 52 55 58 61 63 66 67 69 71 72 74 75 77 77 78 79 79 79 79 79 79 78 78 77 77 77 77 78 79 78 78 76 74 73 73 73 73 72 72 73 73
43 46 49 51 53 55 57 60 62 63 64 66 68 70 72 73 75 75 77 77 75 74 73 73 73 74 74 75 74 72 71 70 71 70 67 66 66 66 68 70 71 71 72 73
42 44 47 49 51 54 56 58 61 62 63 65 66 68 69 70 70 70 70 69 68 68 68 66 64 63 62 62 61 61 61 61 61 61 62 63 62 62 63 65 66 68 69 70
43 45 47 49 51 52 54 54 55 57 57 58 60 60 62 62 62 62 61 60 59 59 59 58 58 58 59 59 60 60 60 60 60 61 60 60 59 59 60 61 62 64 67 68
41 44 46 48 50 52 53 54 54 54 55 56 56 57 58 59 59 59 59 59 59 58 58 57 57 57 57 57 57 58 58 58 58 58 58 58 58 59 60 61 62 62 64 66
43 45 47 48 49 50 51 51 52 52 53 54 54 54 54 54 54 54 55 55 55 55 56 56 57 57 57 57 57 58 58 58 59 59 59 59 60 60 61 61 62 63 64 65
49 50 50 50 50 50 51 50 50 50 51 51 52 52 53 53 53 54 55 55 56 56 57 57 57 58 58 59 60 61 62 62 63 63 63 63 64 63 63 64 65 65 66 67
48 48 48 47 45 44 45 45 43 44 43 42 45 47 48 49 50 51 52 53 53 54 55 55 56 57 58 59 60 60 61 62 62 63 63 63 63 64 65 65 66 66 65 65

GFSNGP_250_spd_093.txt.gz
Wind_Speed
68 62 53 47 45 40 40 37 42 52 57 59 58 61 52 50 45 44 47 49 44 38 40 41 39 41 40 39 40 42 41 41 40 38 35 33 33 34 35 36 34 34 36 35
61 57 48 44 45 41 44 41 48 54 59 58 54 56 56 51 47 43 46 46 47 50 49 45 41 42 43 39 42 45 45 41 39 38 39 39 39 37 39 41 42 41 40 41
58 53 48 46 44 47 52 46 47 56 56 60 57 49 53 53 52 46 41 41 45 50 54 51 51 47 44 44 46 45 45 43 44 44 45 46 46 45 46 45 43 41 41 40
54 50 45 48 51 52 54 47 49 53 57 57 60 53 51 55 49 46 49 52 56 52 52 53 48 46 45 45 47 48 47 45 47 47 49 48 51 52 53 52 50 53 52 55
48 48 48 54 56 59 61 54 51 54 57 61 67 63 59 56 55 55 51 58 65 60 54 53 51 51 52 48 50 51 51 51 51 52 50 50 53 57 59 59 60 61 61 60
48 49 52 56 57 64 66 57 54 55 57 61 70 71 65 61 64 66 60 61 58 64 62 55 53 53 54 52 53 54 56 59 59 57 53 52 54 58 62 64 63 61 63 62
48 49 55 61 57 66 69 63 58 55 61 67 76 76 72 76 72 72 73 74 71 69 62 60 59 58 62 61 58 59 59 60 61 58 57 56 56 58 60 63 62 65 64 66
48 49 60 66 61 61 69 70 65 61 63 75 77 76 76 77 78 79 77 70 69 66 65 64 64 62 62 65 68 68 69 65 67 64 63 60 59 59 62 65 65 68 70 70
48 52 60 69 62 57 68 73 73 67 65 75 76 77 76 77 79 79 76 73 74 73 72 73 74 75 76 71 68 67 67 67 68 70 70 72 68 67 69 69 70 70 70 75
53 52 55 65 66 59 63 71 77 75 73 72 74 79 77 74 74 76 77 77 76 76 76 78 81 78 76 74 72 72 72 71 70 70 72 71 73 76 78 76 75 74 74 79
51 51 56 59 67 66 62 66 77 83 80 80 76 80 83 78 77 78 79 80 80 80 79 79 77 78 80 80 80 79 79 78 77 78 78 77 78 80 77 77 79 81 83 87
52 53 56 61 65 71 73 67 67 83 87 83 84 83 87 85 83 83 83 83 84 81 81 83 84 83 81 81 83 86 86 86 86 87 86 89 90 86 84 84 86 91 94 95
52 58 57 60 65 70 77 78 74 74 81 88 88 87 87 89 90 91 89 87 87 88 86 86 87 89 88 86 86 88 91 91 89 90 91 90 87 88 90 95 100 100 103 106
50 57 60 64 64 67 70 75 75 75 73 75 88 93 90 90 90 92 94 93 93 91 89 90 91 92 92 93 94 94 94 93 92 92 93 95 99 103 104 107 109 110 113 117
50 53 53 55 62 65 67 70 77 79 79 78 77 78 83 91 94 95 95 96 97 98 99 101 102 103 101 98 96 97 99 100 101 103 106 108 109 112 113 115 118 120 120 117
46 45 49 54 57 60 63 70 72 78 83 82 79 80 81 81 84 87 89 90 92 94 95 94 95 95 97 98 100 102 105 108 110 112 114 114 115 114 114 114 114 112 110 107
45 45 49 53 55 59 63 66 69 75 79 82 89 94 94 91 90 90 91 92 94 96 96 98 99 101 102 104 104 105 105 106 108 110 110 109 110 110 107 104 100 99 98 98
44 45 47 52 55 57 61 65 67 69 72 76 79 82 85 89 92 96 98 97 97 97 97 97 99 101 102 102 102 102 101 101 102 102 101 99 99 98 98 96 94 93 93 89
39 43 45 47 52 55 57 59 62 65 68 70 72 73 74 76 78 82 87 91 94 97 100 101 100 98 97 95 95 94 93 93 93 93 93 95 96 95 94 91 86 83 82 82
37 40 43 46 49 53 56 58 60 62 63 65 67 70 72 73 74 75 77 79 81 82 83 84 84 85 86 87 89 89 90 89 90 90 90 90 88 87 86 85 83 79 76 74
36 39 42 45 48 51 53 56 58 61 62 64 65 67 68 69 70 72 73 74 75 76 78 79 80 81 81 82 83 84 84 83 82 81 82 83 83 81 78 76 74 72 71 69
38 41 44 46 49 52 54 56 59 61 63 64 66 67 68 68 69 70 70 71 72 72 73 74 74 74 75 75 76 76 76 75 75 73 72 72 71 70 71 71 72 71 70 69
39 42 45 48 50 53 55 57 59 60 62 64 65 66 66 66 67 68 69 69 70 70 70 70 70 70 70 69 68 68 67 68 68 68 68 68 68 67 67 67 67 67 67 66
41 44 47 49 51 53 54 55 56 57 58 58 59 60 60 61 61 62 62 62 63 64 64 65 66 66 66 66 66 65 65 65 65 65 65 65 66 67 67 67 68 68 68 68
47 49 51 52 52 52 52 51 52 53 53 53 54 54 55 55 56 57 58 58 59 60 61 61 62 63 63 64 64 64 65 66 67 67 68 68 69 69 69 70 70 70 70 70
52 53 52 51 50 50 50 49 48 48 48 49 50 51 52 53 54 56 57 58 59 60 61 62 62 63 63 64 64 65 66 66 66 66 67 68 68 68 69 69 69 69 69 69
50 51 50 49 47 46 44 42 41 40 41 43 44 46 47 48 49 51 52 53 54 55 56 57 57 58 58 58 59 61 60 61 62 62 63 63 63 63 63 63 62 63 63 63

GFSNGP_250_spd_096.txt.gz
Wind_Speed
77 72 68 66 66 56 50 44 37 33 37 41 48 55 51 55 52 57 59 54 48 44 42 42 40 45 48 46 42 42 41 45 45 43 40 38 39 39 36 33 32 33 34 33
67 66 67 68 59 52 44 37 35 34 38 46 53 54 56 57 58 52 58 58 43 44 42 40 38 44 46 46 47 47 47 46 46 44 44 42 40 40 39 37 36 36 38 39
61 60 58 56 52 48 42 36 32 36 43 54 53 49 53 56 62 52 53 61 54 47 40 41 45 46 50 52 53 52 48 48 46 43 45 46 44 45 44 42 42 40 42 43
58 56 56 53 47 44 40 34 33 41 52 55 49 45 50 61 54 56 51 54 60 62 59 51 47 46 49 51 51 52 50 48 48 49 51 51 51 49 48 48 46 46 47 47
57 55 54 50 46 44 39 36 38 45 57 55 55 56 48 51 57 53 60 59 58 62 60 53 59 57 54 52 52 50 50 50 52 53 52 53 54 53 51 52 53 52 52 51
52 52 51 52 48 45 42 40 41 49 52 59 58 57 57 55 59 61 60 65 64 61 62 56 52 57 60 56 54 52 53 53 54 52 52 55 57 57 56 58 57 55 53 54
47 48 50 52 48 43 41 44 46 53 51 59 63 65 62 66 68 65 66 66 70 68 71 66 65 64 66 67 62 59 59 59 57 58 57 60 62 62 62 61 63 59 56 57
44 47 51 47 44 41 43 47 53 57 56 60 69 73 71 74 77 75 68 67 68 71 74 73 73 70 68 66 65 67 64 64 65 64 64 64 66 67 69 69 69 70 66 63
46 48 50 47 45 41 46 52 60 64 64 66 69 73 78 84 84 82 77 73 69 63 67 73 69 73 77 71 70 70 68 69 71 69 70 73 74 75 77 78 78 71 71 72
46 49 50 46 45 44 49 54 65 73 71 70 73 77 78 79 82 85 82 80 75 70 72 72 70 76 73 76 73 76 76 74 73 74 75 76 77 82 83 79 76 78 78 75
52 50 50 45 42 47 51 56 65 76 80 79 78 78 79 85 80 79 84 85 82 81 77 78 79 81 83 84 80 79 78 79 80 81 83 84 84 83 83 82 83 85 83 82
55 49 50 49 46 48 49 59 62 75 85 86 83 82 81 77 80 80 80 84 87 86 83 85 84 84 85 87 89 89 90 90 90 91 92 90 89 87 85 87 88 88 90 89
53 49 50 52 50 50 51 55 61 64 73 84 87 85 85 82 77 77 83 87 88 91 91 90 90 90 92 93 93 93 94 95 95 95 93 90 92 92 92 91 90 91 92 93
48 47 50 50 54 55 56 59 61 61 63 74 85 90 90 89 86 84 82 89 94 94 95 96 94 94 95 95 95 97 97 97 98 97 96 96 96 97 97 98 98 99 103 105
46 45 48 48 51 55 56 58 58 61 62 64 72 81 89 92 95 93 91 89 91 94 95 97 98 97 96 97 99 100 101 102 103 104 104 104 104 103 104 105 108 108 105 104
46 45 45 45 47 51 56 59 60 61 62 65 66 69 74 82 87 94 98 96 95 97 97 98 102 104 105 105 105 106 108 109 110 111 112 110 109 113 109 107 105 104 105 106
43 42 42 42 43 43 50 56 59 61 63 67 69 71 72 73 72 76 81 86 92 98 102 104 106 106 106 107 108 109 111 111 113 115 114 111 108 106 105 104 104 106 108 108
42 42 41 41 43 45 49 54 59 62 63 65 67 71 75 77 79 80 81 83 85 85 87 89 91 95 98 100 101 102 102 103 103 104 103 102 102 102 104 105 105 106 108 108
36 38 39 40 43 46 49 52 55 58 61 64 66 67 69 71 73 74 76 77 79 80 81 83 85 86 88 90 92 94 96 96 96 97 97 99 100 101 103 104 103 100 99 100
33 36 38 40 43 45 48 51 54 57 60 62 65 66 67 69 71 73 75 77 79 81 82 83 85 86 88 89 90 91 93 94 95 95 96 97 98 98 97 98 98 97 96 95
27 31 33 37 40 43 45 48 51 55 58 60 63 65 67 69 71 72 73 74 75 77 78 80 82 83 84 86 87 88 89 90 91 92 92 93 93 92 93 93 92 90 88 87
31 35 38 41 44 47 50 52 54 56 57 58 59 62 64 66 68 70 71 73 74 75 76 77 78 79 80 81 82 83 84 85 85 86 86 86 86 85 85 84 83 83 82 81
36 40 44 47 50 52 54 56 58 59 61 62 63 64 64 65 66 67 68 69 70 71 72 73 74 75 76 77 77 78 79 79 79 80 80 80 81 81 80 80 80 81 81 82
44 47 49 51 53 54 54 55 56 56 57 58 58 59 60 62 63 64 65 66 67 68 69 70 70 71 71 71 71 73 73 74 75 76 77 78 78 79 79 79 80 80 81 81
49 50 52 52 52 52 52 51 50 50 51 51 53 54 56 57 58 60 61 62 63 63 65 66 66 67 68 69 70 70 71 72 73 74 75 75 76 76 76 76 76 76 76 76
46 47 49 51 52 52 51 49 46 45 45 46 47 49 50 51 53 55 56 57 59 60 61 62 63 64 65 66 67 67 67 68 69 69 70 70 70 70 70 70 70 70 69 69
40 43 44 45 45 45 45 45 43 42 41 42 43 44 45 46 48 49 51 52 54 54 55 56 57 58 58 59 60 60 60 60 61 62 62 62 62 62 62 62 62 62 61 61

GFSNGP_250_spd_099.txt.gz
Wind_Speed
71 68 65 64 60 58 55 51 47 40 43 40 39 40 38 34 30 32 29 35 44 37 43 46 46 48 46 45 49 46 47 45 44 44 42 41 40 40 41 38 36 37 35 35
72 69 67 67 65 64 63 54 54 50 44 42 40 42 39 38 38 42 38 45 43 45 39 43 45 46 48 48 52 48 46 44 44 47 49 51 50 47 46 46 44 41 41 40
70 69 68 69 66 64 64 60 54 50 45 41 39 41 40 43 47 44 41 46 47 46 47 42 44 44 47 50 52 51 50 51 50 54 55 57 52 46 45 44 43 45 45 45
63 64 62 61 59 56 56 49 48 43 36 37 36 37 41 49 50 48 47 49 52 51 50 47 43 48 49 53 54 57 57 58 60 60 61 58 52 50 49 49 49 49 50 51
58 57 57 56 53 50 50 44 39 33 33 34 37 40 46 46 50 49 49 51 53 55 56 52 51 50 49 42 37 57 54 57 61 60 59 56 53 51 50 52 52 53 54 53
55 56 57 55 52 48 47 40 37 32 34 38 45 45 52 44 54 53 57 61 62 63 62 58 56 55 55 57 63 60 57 62 60 56 56 57 56 57 57 56 57 56 55 54
51 56 58 55 50 48 49 42 38 35 37 49 52 53 56 54 57 62 62 64 63 63 62 62 62 65 62 58 57 57 63 63 59 59 61 62 61 62 62 62 60 59 59 60
47 51 53 49 47 47 47 45 39 38 42 58 58 61 63 62 62 63 69 66 68 66 65 66 66 67 64 70 67 69 65 68 69 69 69 70 68 67 68 66 65 66 63 65
46 47 47 44 45 45 45 45 40 41 49 66 67 71 70 72 69 72 72 74 70 71 68 67 65 63 68 66 67 68 63 73 73 74 73 72 72 73 71 73 72 70 73 72
45 45 45 44 43 44 43 43 41 43 52 70 72 77 80 81 82 82 79 78 75 81 75 73 73 74 72 75 74 76 70 80 77 79 80 78 78 80 80 78 76 77 78 78
44 45 45 44 44 44 44 42 43 46 54 73 76 80 87 89 85 86 87 85 81 78 77 79 78 82 81 82 83 81 81 85 88 87 85 84 84 84 82 84 85 84 87 88
46 46 45 45 46 46 45 45 47 48 54 70 81 81 82 92 94 90 87 87 85 80 78 79 77 77 80 84 86 89 88 88 87 87 90 90 85 86 89 92 92 92 90 89
49 49 48 48 47 46 47 47 48 49 53 65 77 84 83 84 92 97 94 90 87 86 86 84 85 89 86 85 85 84 84 85 88 86 89 91 93 95 96 94 95 94 95 97
51 50 47 47 48 47 44 46 50 48 52 59 69 80 86 88 88 90 91 91 94 91 89 90 92 93 95 97 97 96 93 93 96 97 97 98 98 100 100 102 102 102 104 105
48 46 45 43 45 46 45 48 50 49 48 51 58 71 82 90 93 92 90 89 90 92 92 91 91 92 92 94 100 106 105 104 104 104 104 105 106 107 107 108 109 110 110 110
41 41 41 41 40 44 45 48 51 51 52 53 54 57 67 80 92 96 95 95 96 95 96 95 94 92 94 97 97 99 102 105 109 111 110 109 111 112 113 111 110 110 110 112
38 39 41 41 39 39 43 46 49 53 54 56 58 61 63 65 72 81 89 94 99 102 102 100 100 99 98 98 98 98 99 103 108 110 110 113 116 117 118 118 117 117 118 120
38 39 40 38 38 40 43 46 49 52 56 59 61 63 65 69 72 75 79 83 87 92 96 100 102 105 106 106 105 105 107 108 108 110 113 115 116 115 115 116 117 118 120 123
30 32 34 36 37 39 40 42 46 50 55 60 63 64 66 68 71 74 78 81 83 86 89 91 93 96 98 101 103 105 105 107 110 113 114 115 117 116 115 113 113 113 113 114
23 27 29 32 35 37 39 42 46 50 54 57 60 64 67 69 69 71 72 74 76 78 80 81 82 84 86 89 92 95 97 100 102 103 104 104 106 106 107 107 106 106 105 105
24 27 30 34 37 39 42 44 47 50 54 57 60 62 64 66 69 71 72 74 75 76 77 79 80 81 83 84 86 87 88 90 91 93 94 96 97 98 98 98 98 98 98 98
27 31 34 37 41 44 46 48 50 51 53 55 57 59 62 64 65 66 68 70 71 72 74 75 76 78 79 80 81 83 84 85 86 87 88 89 90 91 92 93 94 94 94 95
32 36 40 43 46 47 48 49 50 51 52 54 55 56 57 59 61 63 65 66 68 69 71 72 73 74 75 77 78 80 81 83 84 85 86 87 88 89 89 90 90 90 90 90
37 41 45 49 51 52 54 55 55 53 51 50 50 51 52 54 56 57 58 60 62 64 66 67 69 70 72 74 75 76 78 79 80 81 82 82 83 83 83 83 83 83 83 83
42 46 49 49 48 50 51 54 54 54 52 50 48 48 49 50 51 53 55 56 58 59 61 61 63 64 65 66 67 69 70 71 71 72 72 73 74 74 74 75 74 74 74 75
41 42 44 44 44 46 48 48 48 47 46 46 45 44 44 44 45 47 49 51 52 54 55 56 57 58 59 60 61 61 62 63 64 64 64 64 65 65 66 66 65 65 66 66
44 44 40 39 40 41 42 43 44 43 42 41 40 40 40 40 41 42 44 45 47 49 51 52 53 54 55 55 56 56 56 57 57 57 57 58 58 58 59 59 60 60 61 61

GFSNGP_250_spd_102.txt.gz
Wind_Speed
56 52 49 47 46 47 50 51 52 47 45 40 36 36 35 34 33 35 34 32 31 25 28 34 37 38 41 44 46 52 46 50 51 48 46 45 45 45 41 39 39 40 37 37
63 59 57 54 52 51 51 53 52 50 47 44 39 36 34 34 31 28 25 13 16 24 33 31 39 42 43 41 42 47 48 46 52 51 49 48 48 49 48 47 46 44 43 44
69 65 63 59 56 56 55 52 51 48 48 46 47 45 41 36 33 27 26 19 41 27 35 33 38 45 48 46 46 45 48 49 52 50 52 50 52 53 52 52 52 52 49 48
66 65 62 62 61 60 58 57 56 54 54 53 50 50 45 37 35 30 47 38 33 24 32 41 37 39 40 44 48 47 50 50 52 50 49 47 49 53 60 61 57 56 53 51
65 65 65 64 63 63 62 62 61 58 57 52 51 48 40 35 39 41 63 49 41 37 26 45 44 41 41 41 44 49 52 54 52 57 57 57 61 64 65 64 61 57 56 54
62 64 67 67 65 66 64 63 60 56 51 45 43 40 38 37 42 49 70 66 59 53 50 44 47 48 48 47 49 54 54 54 58 61 60 62 65 66 66 64 64 63 59 58
59 59 61 62 61 61 60 57 54 49 45 41 38 39 38 39 51 61 66 77 71 52 60 57 57 52 53 54 54 57 56 50 53 52 60 63 66 64 64 65 66 65 63 63
56 56 56 56 57 59 56 52 50 47 43 39 38 41 41 46 60 59 71 68 65 64 58 60 62 62 60 59 60 59 58 59 56 59 61 63 61 63 68 66 66 68 66 67
52 54 52 52 53 53 52 51 48 46 45 43 42 47 50 56 67 67 64 74 67 69 64 66 65 66 67 69 70 67 67 71 75 65 70 68 69 71 74 73 72 74 75 75
49 49 49 49 49 48 49 49 48 48 47 46 48 52 56 66 70 72 73 68 75 76 75 73 74 72 72 72 72 74 74 76 76 71 73 71 73 78 79 81 82 83 82 82
45 47 47 46 46 46 47 47 48 49 48 48 50 56 62 72 73 78 81 77 77 83 80 79 78 78 78 78 78 78 77 79 84 85 83 81 84 86 89 89 87 92 92 90
46 46 46 44 45 47 47 48 47 48 49 50 53 59 66 79 80 82 85 89 84 82 85 89 81 82 83 82 80 81 82 83 85 86 86 87 88 93 90 90 92 99 96 95
47 46 46 46 46 48 48 48 46 47 49 51 55 62 68 84 85 89 90 93 94 91 86 87 86 93 87 92 91 87 87 87 86 87 92 91 93 95 97 99 98 101 105 103
47 46 46 46 46 46 47 47 48 48 50 52 53 60 67 78 89 91 95 95 97 98 98 95 91 89 92 97 94 93 97 98 97 95 96 96 96 95 101 102 105 106 107 109
46 46 47 46 46 46 46 47 48 50 51 51 53 57 62 65 78 92 94 98 100 101 104 103 101 99 99 97 95 97 100 102 104 104 105 108 109 111 109 109 110 110 111 112
42 43 43 43 43 46 48 49 49 50 52 54 56 57 63 66 69 80 93 96 101 104 107 107 107 106 105 106 107 107 107 106 105 105 105 106 107 110 112 112 113 114 115 115
37 38 40 43 42 44 47 48 50 51 52 55 58 58 59 64 67 70 76 90 100 99 102 108 110 112 113 112 110 108 106 105 107 107 108 110 112 114 115 114 114 114 117 120
33 34 37 39 41 42 44 45 46 48 52 55 58 60 61 64 68 73 75 77 83 93 99 103 102 102 105 107 110 114 117 116 115 114 115 116 116 115 115 114 113 113 114 115
30 32 34 36 37 39 41 44 46 48 51 55 58 61 64 65 67 69 72 76 79 81 84 88 92 94 96 96 98 100 103 106 109 111 113 116 118 119 119 118 119 119 119 119
28 30 33 36 39 41 43 45 47 50 53 55 59 61 64 67 69 70 70 72 75 79 82 84 87 88 89 91 94 95 97 98 99 100 102 102 104 105 106 108 109 109 110 110
26 28 31 34 36 39 41 44 46 48 50 52 55 58 62 65 68 70 73 73 73 74 75 78 80 83 85 88 90 91 92 94 96 97 98 100 101 102 103 104 106 106 107 107
23 25 29 32 36 39 41 44 46 48 49 50 52 55 58 60 62 65 67 69 71 72 74 75 76 77 79 81 83 85 86 88 89 90 92 93 94 96 97 98 99 100 101 102
26 29 32 36 40 43 46 48 48 47 48 51 53 56 58 59 60 62 64 66 68 69 71 71 72 73 75 76 77 79 80 81 83 84 85 87 88 89 91 92 93 94 95 96
31 35 39 42 45 48 50 49 49 51 52 54 53 51 49 49 51 54 56 59 61 63 65 67 69 71 72 74 75 76 77 78 79 80 81 82 83 84 85 86 87 88 88 89
34 38 41 44 45 47 48 47 48 49 49 49 49 48 46 44 44 46 48 50 53 55 58 61 63 64 65 66 68 69 70 71 72 73 74 75 76 77 78 78 79 79 79 79
40 43 45 46 45 43 42 43 45 47 48 48 47 46 44 42 41 41 42 44 45 47 49 51 53 55 56 57 58 59 60 61 61 62 62 63 64 65 66 67 67 68 68 68
43 45 45 44 42 39 39 41 42 42 42 42 42 42 41 40 40 39 39 40 41 42 43 44 46 47 49 50 51 52 53 54 54 54 55 56 57 57 58 58 59 59 60 60

GFSNGP_250_spd_105.txt.gz
Wind_Speed
50 48 46 44 43 41 41 43 43 42 44 46 45 41 41 43 47 52 52 52 51 50 42 38 35 37 38 34 37 37 38 42 46 43 48 55 55 51 49 48 45 43 41 37
54 51 48 47 46 46 45 49 49 46 45 48 48 48 47 45 40 43 44 39 39 34 25 26 28 32 29 28 35 39 43 48 47 44 47 53 53 51 50 49 47 43 43 41
60 59 56 55 52 52 50 46 52 51 51 52 52 50 46 41 34 35 37 33 24 18 14 27 20 27 25 31 38 42 47 49 49 45 50 53 54 51 50 49 47 49 50 49
64 62 59 56 55 52 46 50 51 52 54 55 54 51 47 45 41 34 31 27 26 30 33 42 26 26 29 33 39 42 45 49 48 44 47 51 55 54 53 51 47 43 53 50
65 64 63 60 57 54 53 53 53 54 55 54 53 50 47 45 43 37 28 38 35 30 39 39 28 31 35 37 39 41 41 41 43 48 49 49 52 54 53 53 57 61 61 60
69 66 65 63 61 59 58 57 56 57 57 55 52 53 53 51 47 40 31 51 51 50 44 39 40 28 36 38 45 45 43 43 47 46 50 53 55 52 50 52 54 58 59 64
67 69 69 67 66 65 63 61 62 62 61 60 59 58 56 54 49 38 38 61 63 57 50 53 41 42 30 38 41 46 48 58 49 58 53 56 59 61 62 63 68 68 70 71
54 60 65 66 67 67 65 65 65 64 63 62 62 60 56 54 48 39 43 73 72 70 69 62 59 53 43 49 44 43 40 46 58 58 60 63 60 61 64 67 68 70 68 71
50 54 57 61 64 65 66 66 66 66 65 63 59 55 53 49 48 44 50 77 79 75 73 68 64 67 55 55 54 48 55 58 59 53 56 67 62 62 63 59 67 70 67 67
49 51 52 55 57 58 59 59 59 59 58 56 54 52 49 49 51 49 53 60 83 80 78 77 70 73 65 66 69 65 58 67 72 71 66 63 75 71 69 70 71 75 79 76
52 50 50 51 53 54 55 56 55 55 55 55 55 54 53 53 55 54 56 61 74 88 85 85 78 79 74 75 72 74 75 75 76 75 71 77 79 78 79 75 77 75 76 87
49 48 48 48 49 51 52 54 54 54 54 55 56 57 57 58 60 59 61 65 74 80 98 94 90 83 80 80 87 92 87 84 85 83 85 86 87 86 89 89 81 86 88 91
45 46 48 48 49 51 51 51 52 54 55 55 56 58 59 61 64 65 67 68 75 83 91 104 105 101 102 88 84 87 92 95 96 93 92 90 94 93 94 95 98 96 94 95
44 44 45 47 48 49 49 50 51 51 52 54 55 57 58 60 64 69 71 74 76 84 88 94 97 106 106 106 100 98 96 97 96 96 99 99 100 98 99 102 104 105 105 107
42 44 44 45 46 46 47 48 49 50 52 53 54 56 57 58 61 66 72 76 80 83 89 92 98 98 103 107 106 106 107 105 103 104 105 103 106 106 106 105 106 108 109 108
39 40 40 42 43 45 46 46 48 50 52 53 54 55 58 60 62 65 69 75 78 84 85 92 95 99 104 105 105 110 114 113 113 112 112 112 112 112 111 110 110 111 113 115
35 37 38 41 42 43 44 46 48 50 52 53 54 55 56 59 62 66 68 72 76 78 83 86 90 95 96 99 103 109 108 114 119 119 120 120 120 119 119 118 118 117 118 119
31 33 36 39 41 43 46 47 49 52 54 55 58 59 59 62 64 66 68 71 75 78 81 83 86 89 94 97 98 101 104 106 109 114 118 120 123 123 125 128 127 126 127 127
29 31 33 35 39 41 44 46 48 50 53 55 57 60 62 65 66 68 70 73 74 77 80 84 86 88 88 90 93 96 100 105 106 104 106 109 114 116 119 123 125 126 127 128
26 28 31 33 36 39 42 44 47 50 52 55 57 59 61 63 66 69 71 72 73 74 76 80 84 86 88 89 89 90 91 93 96 98 104 107 108 110 113 116 119 120 121 122
22 25 28 31 34 38 41 44 47 50 52 54 57 58 60 61 63 65 68 70 72 74 75 76 77 80 83 86 88 90 91 92 92 93 93 96 98 99 100 100 102 104 106 108
21 24 27 30 34 38 41 44 47 49 52 53 54 56 58 60 62 64 67 69 71 72 73 74 74 75 76 77 80 83 86 88 89 90 90 91 92 93 94 95 96 97 98 100
23 26 30 33 37 40 43 46 49 51 52 52 55 57 57 59 62 64 65 66 66 68 69 71 72 73 73 74 75 75 76 78 81 84 86 88 89 90 91 91 92 93 94 95
29 32 35 38 41 44 46 48 50 50 51 53 55 56 55 54 53 52 53 53 56 57 59 62 64 67 69 70 71 71 71 73 74 76 78 79 81 83 84 86 87 88 89 90
34 35 37 40 43 45 47 47 46 46 48 51 52 53 52 51 50 50 48 48 49 50 52 54 56 59 62 64 66 67 67 67 67 67 68 69 71 73 74 75 76 77 79 80
35 38 40 42 44 46 46 44 43 44 46 48 48 48 48 47 46 46 46 46 47 48 49 49 50 52 54 55 57 58 60 61 61 61 62 63 63 64 65 66 68 69 70 70
40 44 45 46 47 48 47 46 46 46 46 46 46 44 43 42 41 41 41 41 42 43 44 45 46 47 48 49 50 52 53 54 55 56 56 57 58 59 60 61 61 62 63 64

GFSNGP_250_spd_108.txt.gz
Wind_Speed
45 39 37 40 45 48 51 54 53 52 52 55 58 57 53 53 57 60 62 63 66 67 65 61 63 65 63 59 55 54 48 40 39 40 41 41 39 40 45 53 52 50 47 46
40 45 46 48 48 48 47 49 53 56 57 61 61 56 47 39 41 45 43 40 43 47 49 52 53 46 45 40 38 36 36 38 38 38 40 38 43 43 48 52 53 51 49 46
49 43 45 43 45 45 46 53 53 50 49 50 49 44 38 40 42 39 41 44 45 48 42 37 31 30 32 31 33 31 33 35 36 36 39 45 41 43 49 51 51 52 52 50
54 54 54 51 50 51 53 53 51 49 49 46 41 39 41 45 44 46 46 47 39 34 31 30 26 21 20 17 18 24 27 33 34 38 45 43 44 46 49 51 50 52 53 52
58 55 53 52 50 51 52 51 51 50 49 47 46 47 46 48 48 48 50 45 39 33 31 32 25 25 33 25 15 25 23 30 32 41 39 44 48 48 52 54 52 49 49 46
61 58 57 56 54 53 52 52 51 50 49 50 51 52 50 52 53 53 53 48 43 36 40 43 36 43 47 36 26 24 32 33 37 39 42 42 46 49 52 53 54 54 53 53
64 63 60 58 56 57 53 53 54 52 50 49 50 52 55 57 57 57 53 48 43 40 48 54 46 51 50 38 26 30 30 39 39 36 40 46 43 46 54 54 54 54 55 57
67 67 63 62 60 59 58 58 58 56 54 53 53 55 58 60 60 59 56 52 46 43 56 61 51 56 51 48 31 41 48 45 49 39 49 36 46 51 53 58 60 61 63 60
62 66 68 67 66 64 64 63 62 61 61 60 59 60 61 62 61 62 62 58 45 47 65 64 61 61 66 58 49 49 51 44 54 56 55 55 55 54 65 59 60 67 69 66
56 57 61 68 71 70 68 68 69 69 69 68 67 67 67 68 67 67 65 62 50 48 74 69 72 71 68 65 58 61 49 53 53 51 66 62 65 66 76 66 72 73 71 73
52 51 52 57 63 68 72 74 75 75 75 75 74 72 71 71 71 70 67 63 52 48 81 77 80 80 79 77 76 71 64 59 72 69 67 67 67 66 70 76 79 76 72 75
50 50 50 51 55 59 62 64 66 67 68 68 69 69 68 68 67 66 64 61 58 52 81 87 86 85 85 83 83 85 84 73 76 81 74 78 76 75 79 82 77 79 77 83
52 53 51 51 51 53 55 56 58 59 60 61 62 62 62 63 63 63 63 62 61 61 55 96 96 96 93 94 91 93 86 85 85 85 92 83 81 85 78 86 91 89 91 91
45 46 43 44 47 49 51 52 53 54 55 56 58 59 60 61 62 62 63 63 66 68 67 67 102 103 101 102 103 101 98 97 96 94 92 91 100 91 90 92 93 99 98 100
34 36 38 40 43 46 48 50 51 52 53 54 56 58 60 60 61 62 63 64 65 67 72 73 74 104 108 110 110 112 112 107 108 104 105 102 102 104 102 101 103 107 108 104
33 34 37 39 41 42 44 46 48 49 52 53 55 56 58 59 61 63 64 65 66 67 69 74 76 77 91 111 109 115 118 116 116 115 113 113 111 112 114 113 112 112 111 111
29 31 33 35 37 39 41 43 45 48 50 53 56 58 59 60 61 62 63 65 66 68 70 72 75 78 80 83 91 104 116 120 121 124 123 122 117 119 122 122 121 121 124 121
26 28 31 33 36 38 40 43 45 48 50 53 55 57 59 61 63 64 66 67 68 69 71 73 75 78 80 81 82 85 91 97 113 121 122 130 128 127 129 127 129 131 134 134
24 26 28 31 33 37 39 42 44 47 50 53 55 57 59 61 63 65 66 68 69 70 72 74 76 77 79 82 84 86 87 89 93 92 108 124 127 125 132 128 130 134 137 135
20 22 25 28 31 34 38 41 44 47 50 53 55 57 59 61 63 64 65 67 66 68 70 72 74 76 77 79 82 84 84 86 87 89 92 95 96 97 99 103 106 110 116 120
18 20 23 26 29 32 35 38 42 45 48 51 54 57 59 60 60 61 62 64 68 66 69 70 71 72 73 75 77 78 81 83 84 85 86 88 90 93 94 96 97 99 101 104
17 20 23 27 30 34 37 40 44 47 50 54 56 57 58 59 60 62 65 64 67 66 67 67 67 68 70 71 72 72 73 74 77 81 84 86 87 88 88 88 89 91 93 94
20 23 27 31 34 38 42 45 48 51 54 56 56 56 56 58 61 61 61 62 59 60 63 64 64 64 65 66 68 69 70 70 72 73 75 77 79 81 84 85 86 87 88 89
24 28 32 34 35 38 41 42 48 51 52 54 52 52 54 56 57 58 55 54 54 54 52 53 55 57 59 61 62 64 65 66 67 68 69 71 73 74 76 79 81 83 84 85
24 27 32 35 39 41 43 46 47 50 50 47 49 51 52 52 52 52 52 51 48 48 48 48 50 51 53 55 58 60 62 63 63 63 62 63 63 64 66 67 69 71 73 76
30 35 39 43 45 47 48 49 51 50 48 47 48 51 49 49 47 47 46 45 46 45 46 46 45 46 47 48 49 51 53 55 56 58 59 60 60 59 59 59 60 61 63 65
37 41 46 48 49 50 50 51 51 49 47 46 45 45 45 46 45 45 44 43 43 43 43 43 44 44 44 45 46 46 47 48 50 52 53 55 56 57 57 58 58 59 59 60

GFSNGP_250_spd_111.txt.gz
Wind_Speed
37 40 39 38 42 46 48 48 50 54 50 53 62 59 56 59 61 59 58 57 56 56 54 53 55 57 59 60 64 69 70 69 69 68 64 60 63 67 60 59 52 52 47 45
42 43 45 49 51 46 49 56 53 49 48 49 47 47 48 50 49 46 41 40 44 46 47 48 49 54 58 61 64 62 64 63 60 59 59 50 43 43 48 49 50 50 46 46
43 45 47 44 42 43 47 47 46 48 48 44 44 49 44 46 43 44 44 46 45 47 47 44 43 47 51 53 55 54 53 52 48 46 45 36 46 44 44 47 50 52 47 49
50 51 50 44 44 47 49 50 50 51 49 48 49 48 47 47 49 47 50 50 44 38 36 37 42 44 46 47 37 30 36 34 37 39 41 37 40 42 50 48 52 53 50 51
53 53 50 47 48 48 51 53 54 55 54 54 52 52 52 50 50 55 52 44 39 40 38 42 41 43 40 33 32 19 23 18 25 29 34 36 49 52 50 59 54 52 49 50
54 54 53 49 49 49 49 51 53 53 51 51 52 55 56 53 51 48 44 40 43 45 44 45 42 38 36 36 36 30 24 25 27 23 28 38 45 47 51 55 52 48 51 53
55 52 51 51 51 49 50 51 52 53 54 55 55 52 50 49 47 47 46 44 48 51 48 49 45 43 40 43 40 38 33 36 31 31 29 32 43 45 44 45 49 54 56 55
61 58 56 53 54 53 54 54 53 53 53 53 53 52 51 53 53 52 53 52 53 55 56 54 48 47 45 48 47 47 49 46 41 40 34 35 45 40 38 42 44 49 50 53
65 64 60 58 57 56 57 57 55 55 55 55 55 54 53 54 57 59 61 61 63 62 60 55 49 49 50 59 57 59 64 54 50 44 40 39 51 48 50 54 55 53 51 50
61 63 64 65 63 61 60 60 59 58 59 59 58 58 58 58 57 58 60 62 64 64 62 59 56 55 52 68 67 67 66 62 58 56 59 54 57 61 59 62 61 61 62 65
57 59 61 63 65 67 67 64 63 63 63 65 64 64 64 64 64 64 65 65 66 67 68 67 63 59 58 69 78 75 77 70 70 65 70 63 62 69 61 63 69 68 65 68
55 57 59 60 61 63 67 69 71 71 71 70 70 70 70 71 71 71 72 73 74 75 74 73 69 66 64 67 84 85 82 80 74 69 72 71 71 73 75 73 76 76 74 73
49 52 54 56 58 60 63 67 72 75 77 77 77 76 76 76 76 76 77 80 81 81 79 77 74 69 66 69 78 90 90 92 91 87 80 83 80 80 86 84 83 84 80 82
42 49 50 54 57 58 61 64 66 67 68 68 69 68 70 71 72 73 75 74 75 75 75 75 73 70 68 68 75 88 98 98 96 98 93 88 88 86 87 90 91 97 95 94
30 33 39 45 47 50 52 55 55 59 60 61 61 62 63 64 65 68 70 71 71 72 72 72 72 72 70 68 73 81 103 103 106 103 104 100 97 98 95 98 96 96 99 100
31 33 34 34 35 37 39 43 49 53 56 58 59 60 62 63 65 66 66 67 69 70 70 70 70 71 72 72 69 71 98 110 111 110 113 112 110 105 106 103 102 103 107 105
25 27 27 29 31 33 36 40 42 46 49 52 55 57 60 61 63 64 65 66 67 69 70 70 71 71 72 73 75 75 76 102 109 115 115 120 123 119 116 116 114 113 115 118
24 26 28 28 31 33 35 38 40 43 46 49 52 55 57 60 63 65 66 68 69 69 70 71 71 71 71 73 74 76 78 81 85 113 120 121 125 122 125 125 122 125 122 125
18 20 22 26 28 30 33 36 39 42 45 48 50 53 56 59 62 64 66 67 68 69 70 68 69 69 70 72 74 75 78 82 83 85 91 106 121 122 129 134 133 129 129 133
16 18 19 21 23 26 29 32 36 39 43 46 49 52 55 58 59 62 64 65 64 65 68 65 67 68 68 70 71 73 75 78 82 83 85 87 93 97 120 121 132 137 136 134
10 12 14 16 19 22 26 30 33 38 42 45 49 53 55 57 59 59 59 61 62 64 65 66 67 67 68 69 69 69 70 72 74 77 79 81 83 85 88 92 104 116 117 120
9 12 16 19 23 26 30 34 38 43 46 50 53 56 58 60 61 59 59 60 61 63 63 63 62 62 62 63 64 66 67 68 70 71 73 75 77 80 81 82 85 88 92 95
12 16 19 23 28 31 34 37 41 45 47 49 53 54 56 57 58 59 61 59 59 58 58 57 57 57 56 56 57 59 61 63 66 68 70 71 73 76 77 79 81 83 84 86
15 17 20 24 29 33 37 41 44 47 49 50 52 53 52 49 50 56 57 56 55 54 53 53 52 52 52 52 53 55 56 57 59 60 61 63 65 67 70 73 76 78 81 85
17 23 27 30 34 38 43 45 49 52 53 56 58 57 54 51 49 49 49 49 49 48 47 45 47 48 47 47 47 48 50 51 53 54 55 57 58 59 59 60 62 65 66 68
22 25 30 35 38 40 46 49 51 52 53 53 53 53 51 50 50 49 48 46 45 44 44 43 42 42 43 44 45 45 46 46 47 49 51 52 53 54 54 55 56 57 58 59
27 32 36 41 44 45 48 50 52 53 53 52 51 48 47 46 46 46 45 44 43 42 41 41 41 41 41 42 42 43 44 44 45 46 47 48 49 50 51 52 53 54 54 55

GFSNGP_250_spd_114.txt.gz
Wind_Speed
32 36 41 45 50 54 46 50 46 49 49 49 49 47 49 45 40 44 41 38 38 39 43 50 55 62 65 67 66 66 65 63 64 64 62 61 62 64 61 56 60 62 65 65
40 47 50 49 54 50 47 46 51 49 52 56 55 55 57 53 54 49 48 44 48 37 38 42 47 50 54 58 59 56 62 62 61 59 57 57 59 58 56 57 63 68 73 71
44 50 53 56 51 58 53 50 50 48 47 54 52 48 48 49 55 48 50 52 41 46 54 54 55 57 59 61 59 53 51 52 52 53 55 59 61 60 58 60 65 70 74 73
48 52 54 58 60 56 54 53 50 46 47 46 45 49 45 48 49 52 48 45 49 53 50 49 45 45 45 43 46 47 48 49 50 51 55 57 56 51 48 46 46 56 55 55
50 54 55 55 52 54 49 45 45 43 43 42 40 42 52 46 43 48 51 53 52 51 46 42 40 38 42 41 42 43 45 45 49 46 45 43 40 44 40 44 43 30 53 54
47 50 54 51 51 52 52 50 49 48 48 45 45 46 46 46 48 51 53 52 49 47 46 44 45 44 42 38 41 43 46 44 41 38 39 28 31 30 36 54 49 45 50 53
51 50 50 52 49 50 52 53 51 53 53 52 50 48 49 50 52 53 49 49 50 49 49 52 48 44 42 42 46 43 43 38 42 38 32 33 35 45 52 45 49 51 49 54
54 53 51 49 49 50 51 53 54 55 57 58 57 57 55 57 56 54 55 56 58 56 53 51 50 44 47 47 49 47 48 45 48 48 36 42 41 38 51 48 46 50 55 56
56 56 55 53 54 53 53 54 54 56 57 58 58 59 59 58 57 58 59 59 56 54 53 54 53 52 50 53 54 54 54 54 48 57 48 56 49 46 59 58 55 61 60 61
58 58 57 58 59 61 60 59 59 58 58 59 59 61 62 62 62 63 63 61 59 58 60 58 59 61 59 60 59 57 56 56 53 59 63 63 57 56 61 64 62 63 74 65
60 61 61 59 57 57 61 63 63 62 61 61 60 61 61 62 63 63 64 63 62 62 61 65 67 67 67 67 66 63 58 59 62 60 67 72 69 66 65 64 69 68 70 70
61 61 61 61 64 64 64 63 63 64 66 65 64 64 65 65 65 66 67 67 66 67 68 68 69 70 70 72 71 69 67 69 72 70 76 78 78 79 72 71 76 74 79 78
54 58 62 63 63 63 63 64 66 66 67 69 69 69 71 72 73 72 71 71 71 70 71 74 76 77 77 77 77 77 76 74 78 80 82 85 90 89 89 87 84 80 85 86
45 51 55 58 61 65 65 63 64 65 67 69 72 75 77 79 78 77 77 76 76 76 77 78 79 81 83 85 85 85 84 81 79 84 89 96 99 98 101 97 97 95 92 94
39 41 46 49 52 57 57 60 62 63 67 70 70 71 72 71 74 77 77 77 78 79 80 81 82 83 84 85 85 85 82 79 78 80 85 98 101 111 108 108 107 104 102 101
35 37 38 40 40 41 42 45 51 57 59 62 65 67 69 71 73 72 72 73 73 74 75 75 76 77 78 78 79 80 79 78 77 76 79 86 95 102 114 116 115 112 110 108
27 28 29 32 33 36 38 40 41 42 46 49 52 55 58 61 65 68 69 70 71 72 73 74 75 76 76 75 75 75 75 76 76 76 77 79 87 89 99 110 121 119 117 117
23 24 25 27 29 30 32 34 36 37 40 43 47 51 54 58 61 63 66 68 69 70 71 72 72 73 74 73 72 73 74 74 75 77 78 79 81 86 89 98 98 111 120 122
18 19 19 21 23 25 27 29 32 34 37 40 44 47 50 54 57 59 62 65 68 69 69 69 69 69 69 70 71 72 73 73 74 75 76 78 80 82 88 92 96 97 103 114
10 11 14 16 18 20 23 26 29 32 35 39 42 45 48 51 55 57 60 63 65 65 65 65 66 68 70 70 69 68 69 69 71 73 75 76 77 79 82 85 89 95 97 99
7 7 8 10 13 16 20 24 27 30 34 39 43 46 50 53 55 58 61 63 61 60 61 63 63 63 63 64 65 66 67 68 69 70 71 72 74 75 77 80 82 84 87 92
3 5 7 11 15 18 21 26 29 32 36 40 43 46 49 53 55 57 58 59 58 59 60 61 60 59 57 56 56 56 57 59 61 64 66 68 71 73 75 77 78 80 82 83
5 9 12 14 18 21 25 28 31 35 40 44 47 50 54 56 58 58 56 55 54 55 57 58 56 54 53 54 54 53 54 54 56 58 60 62 64 67 70 73 76 78 79 81
10 11 14 17 19 23 27 32 35 40 44 48 51 52 55 58 56 55 53 52 51 52 51 50 50 49 49 49 49 50 50 51 51 52 54 56 58 60 62 64 66 69 71 75
12 13 16 19 23 27 32 36 40 44 48 52 55 58 59 60 60 57 54 51 49 49 48 47 45 45 45 45 45 45 46 45 47 48 49 50 52 53 55 57 59 60 61 63
13 17 21 25 29 32 36 40 43 47 51 55 57 59 60 61 60 59 56 53 50 48 46 45 44 42 42 43 42 43 43 44 44 45 47 47 47 48 49 51 52 54 56 57
16 21 26 29 33 37 40 44 47 49 51 53 54 56 57 57 55 53 51 50 49 47 45 45 44 43 42 42 42 42 42 43 43 44 45 46 47 47 48 49 51 52 52 53

GFSNGP_250_spd_117.txt.gz
Wind_Speed
21 26 27 31 34 32 33 42 41 46 48 46 44 47 45 46 43 32 34 29 29 32 45 52 55 58 65 67 68 70 69 69 70 70 72 72 72 70 64 56 62 57 54 59
29 30 35 37 37 35 37 44 48 45 45 44 44 44 43 46 42 39 33 31 32 33 37 39 48 55 59 62 61 61 64 69 71 72 72 71 71 71 70 67 64 61 58 53
35 39 44 45 42 43 42 43 44 46 44 45 43 44 44 42 41 40 42 41 39 34 35 33 37 42 47 51 55 60 65 66 64 65 64 66 67 65 65 67 63 61 61 59
39 48 53 52 51 50 47 44 47 49 48 48 49 48 49 50 48 46 44 48 47 45 42 42 45 42 45 47 51 52 52 54 56 58 58 59 62 61 59 59 58 55 43 64
44 53 55 57 57 54 52 49 48 51 48 44 48 51 53 53 49 44 50 47 44 46 47 49 51 50 52 50 50 53 54 56 56 57 55 54 53 55 57 59 58 45 60 69
46 55 58 60 59 58 54 54 51 49 46 46 45 48 51 50 45 48 54 54 53 51 51 53 53 49 51 47 43 45 43 45 46 48 50 50 49 51 54 53 49 49 41 38
51 56 57 57 57 62 59 55 52 49 46 47 46 45 56 51 51 52 52 55 53 55 56 58 56 57 53 48 43 44 44 50 48 47 48 46 50 50 49 38 39 43 46 51
47 55 59 57 60 56 58 59 56 53 52 48 49 49 50 51 54 57 56 56 54 54 55 55 56 54 54 53 49 47 48 52 48 50 48 45 45 50 48 49 53 57 48 61
47 54 57 61 54 59 59 59 59 54 51 53 54 52 51 53 50 51 53 55 59 60 61 61 59 58 55 54 55 55 52 57 52 52 54 49 49 50 52 55 54 62 66 63
51 52 55 58 59 59 58 59 60 61 61 60 60 61 60 61 63 62 61 60 60 60 60 62 63 62 62 60 58 57 56 62 61 58 59 59 55 56 59 63 64 67 73 75
51 52 56 57 58 58 62 63 63 62 62 63 64 65 64 63 65 65 67 68 70 70 71 70 68 67 66 66 64 63 63 68 69 69 69 67 66 64 63 64 72 74 65 63
55 54 57 58 61 61 62 62 64 66 66 65 65 65 66 67 68 69 70 70 70 71 72 72 72 72 72 72 70 70 71 72 75 76 76 74 73 72 72 73 70 77 73 69
51 55 58 59 58 60 61 63 65 66 65 66 66 66 67 68 68 69 71 72 73 74 74 74 74 74 75 76 77 77 77 77 78 81 80 80 78 78 77 77 79 78 85 85
45 50 55 56 56 60 62 62 62 61 62 63 65 67 69 70 73 75 76 77 77 78 77 78 78 79 79 80 82 83 83 84 86 86 86 85 84 83 85 86 86 87 87 92
41 42 45 50 51 53 56 55 56 58 59 60 62 63 66 70 73 75 75 75 76 79 80 80 81 82 83 84 85 86 87 88 90 92 94 95 94 93 91 92 93 95 99 98
35 37 39 42 43 45 47 47 49 52 54 57 59 62 63 64 66 69 70 72 74 75 76 77 77 77 77 78 79 81 82 84 87 90 92 94 95 95 95 93 93 99 105 107
28 30 32 35 36 38 38 39 42 46 48 49 50 52 53 55 57 59 62 64 65 67 68 69 70 71 72 73 73 74 76 77 79 81 83 85 86 87 89 90 92 93 96 103
22 24 27 28 30 32 33 34 35 37 40 42 44 46 47 48 50 54 57 60 63 66 68 70 71 71 70 69 69 69 71 72 74 75 76 78 81 82 84 86 87 89 92 96
18 18 19 20 22 23 25 27 29 31 33 36 38 40 43 46 48 52 55 59 62 64 66 68 69 70 69 68 69 69 69 69 70 70 71 73 75 77 79 81 83 85 88 92
14 15 16 16 18 20 21 22 24 26 28 30 32 35 40 44 48 52 56 59 62 65 66 67 67 67 67 67 67 67 67 66 67 68 69 69 70 71 72 75 77 79 82 85
12 13 13 13 14 14 15 17 20 24 27 30 34 38 42 46 49 51 55 58 61 63 63 63 63 63 64 64 64 62 61 60 60 61 63 65 67 68 69 71 73 75 76 79
11 9 8 8 9 12 15 19 23 27 29 30 33 38 42 47 51 54 57 59 60 60 59 59 58 58 58 60 60 58 57 56 55 56 58 59 61 63 65 67 69 71 72 73
6 6 7 10 14 17 19 20 23 27 30 34 38 42 45 50 55 58 60 60 60 58 57 55 53 53 53 54 54 53 52 51 51 52 53 54 55 57 59 62 65 67 68 69
6 9 12 14 16 18 21 24 28 32 36 39 43 46 49 53 57 59 60 60 58 56 53 52 51 51 51 51 50 49 48 48 49 49 50 50 51 52 54 55 57 59 61 63
9 13 16 16 18 22 25 28 31 36 40 45 48 51 54 57 60 61 61 61 59 56 53 51 49 49 49 49 49 47 46 46 46 46 46 46 47 48 49 51 52 54 55 56
13 16 17 19 21 25 28 33 36 41 47 51 53 55 58 61 63 65 65 63 61 57 54 51 50 49 47 46 47 47 46 45 44 45 46 46 45 46 48 49 50 50 51 53
16 18 20 22 25 28 32 37 40 45 50 54 57 59 61 63 64 64 63 61 59 57 54 51 49 49 48 47 45 44 43 43 43 43 43 45 45 45 47 48 49 50 50 51

GFSNGP_250_spd_120.txt.gz
Wind_Speed
11 14 21 23 23 22 25 27 28 30 35 41 44 40 37 40 42 39 34 31 29 30 38 43 51 56 59 61 66 72 75 76 76 76 75 74 72 70 70 70 69 70 70 70
15 20 27 29 24 25 30 29 31 34 43 46 45 44 43 44 38 36 36 37 37 35 38 40 40 45 55 60 62 67 74 73 75 78 78 77 76 75 76 75 73 70 68 64
24 27 31 33 26 28 33 32 34 37 43 55 50 49 49 43 44 44 46 41 38 33 26 27 33 40 44 49 54 60 66 69 71 74 75 77 78 79 78 78 77 78 75 73
35 36 41 39 32 33 38 36 42 39 43 53 57 54 56 52 49 50 41 39 38 37 35 35 33 35 39 43 46 52 56 60 62 67 72 75 77 78 80 80 79 78 77 75
39 43 43 46 41 42 42 42 46 44 46 52 59 61 60 58 54 49 49 46 44 42 42 44 40 41 40 42 45 45 48 53 58 63 66 69 71 73 73 72 72 70 71 70
43 51 48 49 45 49 46 43 45 49 50 51 53 56 58 59 56 54 46 46 48 49 49 51 48 46 45 46 47 46 49 50 54 58 62 62 63 63 63 62 63 66 66 66
45 54 54 51 50 52 52 47 46 47 51 49 54 52 55 57 60 59 52 48 54 57 57 59 56 53 51 54 54 55 53 55 55 54 58 58 56 57 58 59 60 61 62 60
43 53 63 57 56 55 54 53 49 47 49 52 52 50 52 52 55 56 57 54 55 56 55 53 57 57 58 57 57 57 57 57 60 56 54 52 52 53 55 55 55 56 59 59
40 49 59 66 62 60 59 56 57 55 51 53 48 50 51 51 51 52 58 64 62 58 59 59 59 62 60 58 61 62 61 62 62 58 58 57 54 55 58 58 57 57 61 59
37 42 51 59 69 65 64 61 61 61 61 57 56 56 56 55 55 54 53 59 67 65 68 67 66 67 65 63 64 65 66 64 64 64 63 63 63 62 64 63 64 62 58 54
40 41 44 54 62 68 70 67 66 63 64 61 61 62 59 60 59 59 60 61 62 65 67 67 66 68 70 71 71 71 70 67 66 68 69 69 67 66 70 71 67 68 66 61
40 42 44 46 53 63 67 66 67 68 67 64 66 66 66 65 63 62 64 66 68 70 70 72 74 75 74 76 76 75 75 76 77 75 73 72 72 70 72 79 79 75 75 75
38 41 43 45 48 52 57 62 64 62 63 63 64 65 67 68 68 68 68 69 70 72 74 75 76 77 77 78 79 80 81 80 80 81 81 81 82 81 78 78 86 88 86 84
36 38 42 44 46 48 51 53 57 58 59 60 60 61 63 65 65 66 69 71 73 75 77 79 80 81 82 82 83 84 85 85 86 86 85 85 85 86 87 87 86 91 94 93
35 36 38 42 46 48 48 49 48 48 51 55 57 59 58 60 63 66 69 72 74 76 78 80 82 83 84 84 84 85 85 86 87 87 88 89 89 90 91 92 94 94 95 97
32 33 35 38 41 43 44 43 43 45 47 48 51 54 55 56 58 59 60 62 64 68 72 74 76 77 78 79 81 82 83 83 84 85 85 86 87 89 92 95 96 98 99 100
27 29 31 32 34 35 36 37 39 40 41 43 46 47 48 48 48 49 51 53 55 58 61 63 65 68 70 72 73 75 76 76 76 77 80 82 83 86 90 91 93 95 97 100
23 24 25 28 30 31 33 34 35 36 38 38 40 41 42 43 44 46 48 51 54 57 61 63 66 68 70 71 71 72 71 71 71 72 72 74 77 80 82 84 86 88 90 92
18 20 21 22 24 25 26 27 28 29 30 31 32 33 35 37 40 43 46 49 54 58 60 63 66 69 71 71 71 70 70 70 69 68 68 68 69 71 73 75 78 82 84 86
15 16 17 18 18 18 19 20 21 21 22 24 26 29 31 35 40 44 48 52 56 58 61 64 67 68 69 67 65 64 64 65 66 67 67 65 63 63 65 68 71 73 76 79
12 13 13 13 14 14 14 14 15 16 19 22 26 32 36 38 40 44 49 53 56 59 63 65 66 66 65 63 62 62 61 61 60 60 59 59 58 58 59 62 65 67 69 72
11 11 10 9 8 8 9 11 14 19 22 24 28 31 34 38 43 48 53 57 62 64 67 68 69 68 65 62 60 58 57 56 56 55 55 54 54 55 55 56 58 60 62 65
9 8 7 6 6 8 12 16 19 21 23 25 28 32 37 42 47 52 57 61 65 68 70 70 67 63 60 58 56 54 53 51 52 51 51 50 50 51 52 52 52 54 55 57
8 6 5 6 9 12 15 18 21 23 26 30 33 37 42 48 53 58 61 65 68 70 70 68 64 60 57 55 53 51 50 49 48 48 48 48 48 49 49 50 51 51 51 52
7 8 9 11 14 17 20 22 24 27 30 35 38 43 48 53 58 62 65 68 69 70 69 66 62 59 56 53 51 50 49 48 49 48 48 47 46 46 48 48 49 49 50 50
9 11 13 16 19 22 24 26 29 32 35 39 43 48 52 58 61 65 67 69 69 69 67 64 61 58 55 53 52 50 49 49 49 48 47 45 44 43 44 45 46 46 47 49
12 13 16 20 22 24 27 30 33 36 40 45 50 54 58 62 64 67 69 68 68 66 65 62 60 57 55 54 53 51 50 48 47 46 45 44 44 43 43 43 44 45 45 46

GFSNGP_250_spd_123.txt.gz
Wind_Speed
29 26 25 20 16 16 19 19 18 21 24 26 24 26 27 29 29 22 21 20 28 20 25 27 27 41 42 46 50 55 59 63 68 72 76 77 79 79 78 74 72 72 70 71
25 25 23 23 20 18 21 20 22 26 28 31 30 32 33 26 32 24 20 27 23 30 28 26 36 32 34 40 47 51 54 58 64 69 71 74 76 77 76 74 73 73 74 74
25 26 28 28 24 24 24 24 25 27 37 39 36 35 38 32 33 32 26 24 28 29 30 34 41 40 36 39 44 49 54 58 64 68 71 73 73 77 78 77 77 77 78 77
27 28 32 35 26 30 29 26 28 29 35 44 41 41 41 38 35 36 34 33 32 31 30 30 32 35 39 40 41 46 50 55 59 64 69 72 75 78 79 81 81 81 82 81
28 31 34 38 35 33 36 33 32 33 35 45 48 45 44 44 40 40 41 41 38 36 36 36 37 34 34 36 40 41 43 48 53 58 63 66 70 76 79 82 84 86 87 86
28 34 36 43 42 38 39 38 37 37 38 41 46 50 51 48 47 45 44 46 46 43 42 38 41 40 39 39 39 41 43 45 49 53 58 60 63 65 70 75 80 82 82 83
28 35 39 46 47 43 43 40 41 41 43 45 43 50 56 56 50 50 49 48 49 50 48 48 51 49 47 47 46 46 45 47 48 48 49 52 55 57 60 64 69 74 77 78
28 33 43 45 54 53 46 46 46 42 45 48 48 48 50 55 57 55 53 53 52 54 53 54 53 56 59 56 57 55 54 54 54 55 54 57 58 61 63 66 68 72 75 75
27 32 40 48 52 57 59 54 50 48 48 46 54 51 52 59 58 58 61 62 60 60 60 57 57 59 60 63 64 65 64 63 63 64 64 64 67 66 65 69 69 68 70 75
28 29 39 46 54 59 61 60 58 54 52 50 49 53 56 58 58 61 62 62 63 66 67 62 64 64 70 70 72 72 76 75 72 72 73 74 75 73 70 69 71 70 70 73
29 29 33 43 51 57 63 66 65 63 60 56 54 52 50 54 54 58 62 61 66 67 67 70 75 77 76 74 77 77 78 76 75 73 75 78 78 74 73 73 73 71 73 77
29 30 32 38 47 55 59 63 67 68 67 65 64 63 60 58 56 55 58 60 62 63 65 65 67 70 71 74 76 82 84 82 78 80 80 81 84 86 85 83 82 83 81 79
28 30 32 34 39 47 55 60 61 61 61 64 67 69 69 69 67 66 65 64 64 66 67 69 71 73 74 76 79 81 82 82 82 81 81 81 82 84 85 87 87 86 87 87
26 28 32 34 35 38 45 50 53 56 60 63 62 61 61 61 64 65 65 65 65 66 67 70 73 76 77 79 80 82 83 83 83 83 83 83 85 87 88 88 89 90 91 92
27 29 31 33 34 36 37 41 46 51 53 52 53 53 56 59 63 64 62 62 64 66 68 70 72 74 76 78 79 81 81 81 82 83 83 83 84 84 85 86 88 90 92 94
27 28 30 31 32 34 34 35 37 40 42 44 43 43 47 50 53 54 54 55 57 59 60 62 63 65 66 68 70 72 73 74 75 76 76 77 77 78 80 81 83 86 89 92
25 27 28 29 29 29 30 31 32 33 34 34 38 42 44 43 43 42 42 43 44 46 48 51 54 57 59 62 64 66 68 69 70 71 71 71 71 73 75 78 80 82 85 86
21 22 23 24 25 25 26 27 28 29 31 34 33 34 34 35 36 37 39 39 41 44 47 51 54 59 62 65 67 69 71 73 74 74 73 72 72 71 72 73 75 76 77 80
18 18 20 21 22 23 23 24 25 27 27 27 28 28 29 30 32 32 34 37 41 45 49 53 57 61 65 67 68 70 70 69 68 67 68 68 68 68 68 68 68 68 70 73
16 16 16 16 17 18 18 19 20 21 21 20 21 22 24 25 28 32 36 39 43 46 51 56 60 64 67 68 69 69 68 66 64 62 61 62 62 62 61 60 60 60 60 62
13 12 12 11 11 11 12 14 13 12 12 14 16 19 24 27 30 34 37 40 45 50 55 59 64 68 70 72 72 70 68 63 60 59 58 59 59 58 57 55 54 54 56 57
10 9 9 8 8 8 8 7 6 8 12 16 20 23 27 30 34 38 41 45 50 55 60 64 69 72 73 74 73 70 66 60 58 56 55 55 55 55 54 52 51 51 52 53
8 7 7 7 8 7 4 5 9 13 16 19 23 27 30 34 37 41 45 50 55 60 65 70 73 75 76 75 72 67 63 59 56 55 53 53 52 51 51 50 48 47 48 49
9 10 10 8 6 6 7 10 12 15 20 24 28 31 35 38 41 47 51 55 60 64 70 74 75 75 75 72 68 65 61 57 55 52 51 50 49 49 48 48 47 46 45 46
12 11 9 9 9 10 12 15 18 21 24 28 32 35 39 43 48 51 55 60 65 69 72 73 74 73 71 68 65 62 59 56 53 51 49 48 47 47 45 45 44 44 43 44
14 13 13 12 13 13 15 19 23 25 29 32 36 39 43 47 52 55 59 64 67 70 72 73 72 70 67 65 62 59 56 54 53 51 49 48 46 45 44 44 43 43 43 43
17 16 16 16 16 16 19 23 26 30 33 36 40 44 48 52 56 58 63 67 69 71 71 70 69 67 64 62 59 57 54 53 52 50 48 47 46 44 43 43 43 44 43 42